ftp/pub/palmer/observations_modified/2019/July/AR190716_BASE.txt

Download

Sample DateTime	Unit Id	WS Avg 2min	WD Avg 2min	WGS 10min	WGD 10min	Air Temp	Rel Humidity	Dew Point	Pyranometer	Quantum	Air Pressure	Snow Level	Rainfall	PW Current	Visibility	CBase 1	CBase 2	CBase 3	Vert Vis
2019/07/16  00:00:00  BASE  10.7604  29   14.8529  26   1.3   97    0.9   0     0     991.9    NA       0.0000   9999     3770  0     0    
2019/07/16  00:01:00  BASE  10.6134  31   14.8529  26   1.3   97    0.9   0     0     991.9    NA       0.0000   9999     3580  5020  0    
2019/07/16  00:02:00  BASE  10.0901  30   14.2178  33   1.3   97    0.9   0     0     991.9    NA       0.0000   9999     3050  0     0    
2019/07/16  00:03:00  BASE  10.7134  30   12.9478  33   1.3   97    0.9   0     0     991.8    NA       0.0000   9999     3410  0     0    
2019/07/16  00:04:00  BASE  11.3778  30   12.9478  33   1.3   97    0.9   0     0     991.8    NA       0.0000   9999     0     0     0    
2019/07/16  00:05:00  BASE  10.8133  31   12.9478  33   1.3   97    0.9   0     0     991.9    NA       0.0000   9999     0     0     0    
2019/07/16  00:06:00  BASE  10.7016  32   12.9478  33   1.3   97    0.9   0     0     991.9    NA       0.0000   9999     0     0     0    
2019/07/16  00:07:00  BASE  11.2484  30   13.036   29   1.3   97    0.9   0     0     991.8    NA       0.0000   9999     0     0     0    
2019/07/16  00:08:00  BASE  10.7957  29   13.036   29   1.3   97    0.8   0     0     991.9    NA       0.0000   9999     0     0     0    
2019/07/16  00:09:00  BASE  10.8898  31   13.036   29   1.3   96    0.8   0     0     991.8    NA       0.0000   9999     0     0     0    
2019/07/16  00:10:00  BASE  11.4719  33   13.036   29   1.3   96    0.8   0     0     991.8    NA       0.0000   9999     0     0     0    
2019/07/16  00:11:00  BASE  11.8423  31   13.7945  31   1.3   96    0.8   0     0     991.8    NA       0.0000   9999     0     0     0    
2019/07/16  00:12:00  BASE  12.3362  29   13.7945  31   1.4   96    0.8   0     0     991.7    NA       0.0000   9999     0     0     0    
2019/07/16  00:13:00  BASE  12.2833  30   13.7945  31   1.4   96    0.8   0     0     991.7    NA       0.0000   9999     0     0     0    
2019/07/16  00:14:00  BASE  12.395   33   14.1238  33   1.4   96    0.8   0     0     991.7    NA       0.0000   9999     0     0     0    
2019/07/16  00:15:00  BASE  12.6361  35   14.1238  33   1.4   96    0.8   0     0     991.7    NA       0.0000   9999     0     0     0    
2019/07/16  00:16:00  BASE  12.8419  35   14.8823  33   1.4   95    0.7   0     0     991.7    NA       0.0000   9999     0     0     0    
2019/07/16  00:17:00  BASE  13.3417  34   15.0352  26   1.4   95    0.7   0     0     991.6    NA       0.0000   9999     0     0     0    
2019/07/16  00:18:00  BASE  13.5475  33   15.0352  26   1.4   95    0.7   0     0     991.7    NA       0.0000   9999     4330  0     0    
2019/07/16  00:19:00  BASE  13.0948  33   15.0352  26   1.4   95    0.7   0     0     991.7    NA       0.0000   9999     3810  0     0    
2019/07/16  00:20:00  BASE  12.395   31   15.0352  26   1.4   95    0.7   0     0     991.7    NA       0.0000   9999     4000  0     0    
2019/07/16  00:21:00  BASE  12.3421  31   15.0352  26   1.4   95    0.6   0     0     991.7    NA       0.0000   9999     0     0     0    
2019/07/16  00:22:00  BASE  12.5244  32   15.0352  26   1.3   95    0.6   0     0     991.7    NA       0.0000   9999     0     0     0    
2019/07/16  00:23:00  BASE  11.7953  31   15.0352  26   1.3   95    0.6   0     0     991.7    NA       0.0000   9999     0     0     0    
2019/07/16  00:24:00  BASE  11.5424  32   15.0352  26   1.3   95    0.6   0     0     991.7    NA       0.0000   9999     4990  0     0    
2019/07/16  00:25:00  BASE  11.8835  32   15.0352  26   1.3   95    0.6   0     0     991.7    NA       0.0000   9999     4170  0     0    
2019/07/16  00:26:00  BASE  11.9658  31   15.0352  26   1.3   96    0.7   0     0     991.7    NA       0.0000   9999     0     0     0    
2019/07/16  00:27:00  BASE  11.8541  31   14.4295  32   1.3   96    0.7   0     0     991.7    NA       0.0000   9999     3180  0     0    
2019/07/16  00:28:00  BASE  11.9893  30   14.4295  32   1.3   96    0.8   0     0     991.6    NA       0.0000   9999     3250  0     0    
2019/07/16  00:29:00  BASE  12.3304  29   14.0356  34   1.4   96    0.8   0     0     991.6    NA       0.0000   9999     3610  0     0    
2019/07/16  00:30:00  BASE  12.1892  30   14.0356  34   1.4   96    0.8   0     0     991.6    NA       0.0000   9999     3840  0     0    
2019/07/16  00:31:00  BASE  11.6012  33   14.0356  34   1.4   96    0.8   0     0     991.7    NA       0.0000   9999     4000  0     0    
2019/07/16  00:32:00  BASE  11.219   33   14.0356  34   1.4   95    0.7   0     0     991.7    NA       0.0000   9999     4360  0     0    
2019/07/16  00:33:00  BASE  11.1602  32   14.0356  34   1.4   95    0.7   0     0     991.7    NA       0.0000   9999     0     0     0    
2019/07/16  00:34:00  BASE  11.2073  31   14.0356  34   1.4   95    0.7   0     0     991.6    NA       0.0000   9999     0     0     0    
2019/07/16  00:35:00  BASE  11.3719  31   14.0356  34   1.4   95    0.7   0     0     991.6    NA       0.0000   9999     5640  0     0    
2019/07/16  00:36:00  BASE  11.713   31   14.0356  34   1.4   95    0.7   0     0     991.6    NA       0.0000   9999     0     0     0    
2019/07/16  00:37:00  BASE  12.1128  31   14.0356  34   1.4   95    0.7   0     0     991.6    NA       0.0000   9999     0     0     0    
2019/07/16  00:38:00  BASE  12.1363  31   14.0356  34   1.4   95    0.6   0     0     991.5    NA       0.0000   9999     13030 0     0    
2019/07/16  00:39:00  BASE  12.1246  32   14.4295  34   1.4   94    0.6   0     0     991.5    NA       0.0000   9999     12930 0     0    
2019/07/16  00:40:00  BASE  11.6365  35   14.4295  34   1.4   94    0.5   0     0     991.6    NA       0.0000   9999     0     0     0    
2019/07/16  00:41:00  BASE  11.2837  36   14.4295  34   1.4   94    0.5   0     0     991.5    NA       0.0000   9999     0     0     0    
2019/07/16  00:42:00  BASE  11.7071  37   14.4295  34   1.3   94    0.5   0     0     991.5    NA       0.0000   9999     0     0     0    
2019/07/16  00:43:00  BASE  11.9776  37   14.4295  34   1.3   94    0.5   0     0     991.5    NA       0.0000   9999     0     0     0    
2019/07/16  00:44:00  BASE  11.9246  35   14.4295  34   1.4   94    0.5   0     0     991.5    NA       0.0000   9999     12630 0     0    
2019/07/16  00:45:00  BASE  11.5836  36   14.4295  34   1.4   94    0.5   0     0     991.5    NA       0.0000   9999     13030 0     0    
2019/07/16  00:46:00  BASE  10.8721  38   14.4295  34   1.4   94    0.5   0     0     991.5    NA       0.0000   9999     13580 0     0    
2019/07/16  00:47:00  BASE  10.978   40   14.4295  34   1.4   94    0.4   0     0     991.4    NA       0.0000   9999     13980 0     0    
2019/07/16  00:48:00  BASE  11.7188  39   14.4295  34   1.4   94    0.4   0     0     991.4    NA       0.0000   9999     14040 0     0    
2019/07/16  00:49:00  BASE  11.6071  38   13.9474  40   1.3   93    0.4   0     0     991.4    NA       0.0000   9999     13940 0     0    
2019/07/16  00:50:00  BASE  10.8545  37   13.9474  40   1.3   93    0.4   0     0     991.5    NA       0.0000   9999     14040 0     0    
2019/07/16  00:51:00  BASE  10.2782  38   13.9474  40   1.3   93    0.4   0     0     991.5    NA       0.0000   9999     13850 0     0    
2019/07/16  00:52:00  BASE  10.584   39   13.9474  40   1.3   93    0.4   0     0     991.4    NA       0.0000   9999     13620 0     0    
2019/07/16  00:53:00  BASE  10.3076  39   13.9474  40   1.3   93    0.4   0     0     991.5    NA       0.0000   9999     13260 0     0    
2019/07/16  00:54:00  BASE  9.9372   40   13.9474  40   1.3   94    0.4   0     0     991.4    NA       0.0000   9999     13580 0     0    
2019/07/16  00:55:00  BASE  10.2606  40   13.9474  40   1.3   94    0.5   0     0     991.4    NA       0.0000   9999     13620 0     0    
2019/07/16  00:56:00  BASE  10.1077  38   13.9474  40   1.4   94    0.5   0     0     991.4    NA       0.0000   9999     13850 0     0    
2019/07/16  00:57:00  BASE  9.41388  36   13.9474  40   1.4   94    0.4   0     0     991.5    NA       0.0000   9999     13520 0     0    
2019/07/16  00:58:00  BASE  9.00816  37   12.4303  38   1.4   93    0.4   0     0     991.4    NA       0.0000   9999     13090 0     0    
2019/07/16  00:59:00  BASE  9.6432   39   12.2833  44   1.3   93    0.4   0     0     991.4    NA       0.0000   9999     13580 0     0    
2019/07/16  01:00:00  BASE  9.71376  37   12.2833  44   1.3   93    0.3   0     0     991.4    NA       0.0000   9999     13350 0     0    
2019/07/16  01:01:00  BASE  9.38448  38   12.2833  44   1.3   93    0.3   0     0     991.4    NA       0.0000   9999     13060 0     0    
2019/07/16  01:02:00  BASE  9.79608  39   12.2833  44   1.3   93    0.3   0     0     991.4    NA       0.0000   9999     12890 0     0    
2019/07/16  01:03:00  BASE  9.5256   38   12.2833  44   1.3   93    0.3   0     0     991.4    NA       0.0000   9999     12930 0     0    
2019/07/16  01:04:00  BASE  9.60204  37   12.2833  44   1.3   93    0.3   0     0     991.3    NA       0.0000   9999     11650 0     0    
2019/07/16  01:05:00  BASE  9.87252  41   11.7953  24   1.3   93    0.3   0     0     991.4    NA       0.0000   9999     13090 0     0    
2019/07/16  01:06:00  BASE  9.97836  43   11.7953  24   1.3   93    0.3   0     0     991.4    NA       0.0000   9999     13550 0     0    
2019/07/16  01:07:00  BASE  10.3018  43   11.7953  24   1.3   93    0.3   0     0     991.4    NA       0.0000   9999     13580 0     0    
2019/07/16  01:08:00  BASE  10.0901  41   11.7953  24   1.3   93    0.3   0     0     991.4    NA       0.0000   9999     13520 0     0    
2019/07/16  01:09:00  BASE  10.1665  39   11.7953  24   1.3   93    0.3   0     0     991.3    NA       0.0000   9999     13520 0     0    
2019/07/16  01:10:00  BASE  9.7608   41   11.7953  24   1.3   93    0.2   0     0     991.4    NA       0.0000   9999     13190 0     0    
2019/07/16  01:11:00  BASE  9.32568  41   11.7953  24   1.3   93    0.2   0     0     991.4    NA       0.0000   9999     12830 0     0    
2019/07/16  01:12:00  BASE  9.261    38   11.7953  24   1.2   92    0.1   0     0     991.3    NA       0.0000   9999     12630 0     0    
2019/07/16  01:13:00  BASE  9.30804  38   11.7953  24   1.2   92    0.1   0     0     991.3    NA       0.0000   9999     10600 0     0    
2019/07/16  01:14:00  BASE  9.96072  39   13.036   42   1.2   92    0.1   0     0     991.3    NA       0.0000   9999     12570 0     0    
2019/07/16  01:15:00  BASE  10.4076  40   13.036   42   1.2   93    0.1   0     0     991.3    NA       0.0000   9999     12890 0     0    
2019/07/16  01:16:00  BASE  9.82548  39   13.036   42   1.2   93    0.1   0     0     991.4    NA       0.0000   9999     12500 0     0    
2019/07/16  01:17:00  BASE  9.17868  38   13.036   42   1.2   93    0.2   0     0     991.3    NA       0.0000   9999     12500 0     0    
2019/07/16  01:18:00  BASE  9.22572  37   13.036   42   1.2   93    0.2   0     0     991.3    NA       0.0000   9999     12270 0     0    
2019/07/16  01:19:00  BASE  9.35508  37   13.036   42   1.2   93    0.2   0     0     991.3    NA       0.0000   9999     13160 0     0    
2019/07/16  01:20:00  BASE  9.94308  38   13.036   42   1.2   93    0.1   0     0     991.3    NA       0.0000   9999     11120 0     0    
2019/07/16  01:21:00  BASE  10.3253  37   13.036   42   1.2   92    0.1   0     0     991.2    NA       0.0000   9999     0     0     0    
2019/07/16  01:22:00  BASE  9.96072  34   13.036   42   1.2   92    0.1   0     0     991.3    NA       0.0000   9999     0     0     0    
2019/07/16  01:23:00  BASE  9.71964  34   13.036   42   1.2   92    0.1   0     0     991.3    NA       0.0000   9999     0     0     0    
2019/07/16  01:24:00  BASE  10.3841  36   12.8537  39   1.2   92    0.1   0     0     991.2    NA       0.0000   9999     11250 0     0    
2019/07/16  01:25:00  BASE  10.4252  35   12.8537  39   1.3   92    0.1   0     0     991.2    NA       0.0000   9999     11090 0     0    
2019/07/16  01:26:00  BASE  9.57264  36   12.8537  39   1.2   92    0.0   0     0     991.3    NA       0.0000   9999     0     0     0    
2019/07/16  01:27:00  BASE  9.71376  38   12.8537  39   1.2   91    0.0   0     0     991.2    NA       0.0000   9999     0     0     0    
2019/07/16  01:28:00  BASE  10.2547  39   12.8537  39   1.3   91    -0.0  0     0     991.2    NA       0.0000   9999     0     0     0    
2019/07/16  01:29:00  BASE  10.0313  40   12.8537  39   1.3   91    -0.0  0     0     991.2    NA       0.0000   9999     14370 0     0    
2019/07/16  01:30:00  BASE  9.5256   39   12.8537  39   1.3   91    -0.1  0     0     991.2    NA       0.0000   9999     14270 0     0    
2019/07/16  01:31:00  BASE  9.36684  38   12.8537  39   1.3   90    -0.1  0     0     991.2    NA       0.0000   9999     0     0     0    
2019/07/16  01:32:00  BASE  9.6432   37   12.8537  39   1.3   90    -0.1  0     0     991.2    NA       0.0000   9999     14470 0     0    
2019/07/16  01:33:00  BASE  10.1018  36   12.8537  39   1.3   90    -0.2  0     0     991.2    NA       0.0000   9999     0     0     0    
2019/07/16  01:34:00  BASE  10.3488  36   12.101   34   1.3   90    -0.2  0     0     991.2    NA       0.0000   9999     0     0     0    
2019/07/16  01:35:00  BASE  10.3018  35   12.101   34   1.3   90    -0.2  0     0     991.2    NA       0.0000   9999     14570 0     0    
2019/07/16  01:36:00  BASE  9.7608   35   12.101   34   1.3   90    -0.2  0     0     991.2    NA       0.0000   9999     0     0     0    
2019/07/16  01:37:00  BASE  9.1434   37   12.101   34   1.3   89    -0.2  0     0     991.2    NA       0.0000   9999     15520 0     0    
2019/07/16  01:38:00  BASE  9.13752  36   12.101   34   1.3   89    -0.3  0     0     991.2    NA       0.0000   9999     14170 0     0    
2019/07/16  01:39:00  BASE  9.54324  34   12.101   34   1.3   89    -0.3  0     0     991.2    NA       0.0000   9999     14110 0     0    
2019/07/16  01:40:00  BASE  9.89604  35   12.101   34   1.3   89    -0.3  0     0     991.2    NA       0.0000   9999     14080 0     0    
2019/07/16  01:41:00  BASE  10.0195  34   12.101   34   1.3   89    -0.4  0     0     991.2    NA       0.0000   9999     14010 0     0    
2019/07/16  01:42:00  BASE  9.555    35   12.101   34   1.2   89    -0.4  0     0     991.2    NA       0.0000   9999     13980 0     0    
2019/07/16  01:43:00  BASE  9.15516  36   11.4954  35   1.2   89    -0.5  0     0     991.2    NA       0.0000   9999     13980 0     0    
2019/07/16  01:44:00  BASE  9.30216  35   11.4366  36   1.2   89    -0.5  0     0     991.2    NA       0.0000   9999     14010 0     0    
2019/07/16  01:45:00  BASE  9.59028  35   11.1896  38   1.2   89    -0.5  0     0     991.2    NA       0.0000   9999     14010 0     0    
2019/07/16  01:46:00  BASE  9.60204  36   11.1896  38   1.2   89    -0.5  0     0     991.3    NA       0.0000   9999     14010 0     0    
2019/07/16  01:47:00  BASE  9.71376  36   11.5836  36   1.2   89    -0.5  0     0     991.3    NA       0.0000   9999     13980 0     0    
2019/07/16  01:48:00  BASE  9.3492   34   11.5836  36   1.1   89    -0.5  0     0     991.3    NA       0.0000   9999     13910 0     0    
2019/07/16  01:49:00  BASE  8.2026   33   11.5836  36   1.1   89    -0.5  0     0     991.4    NA       0.0000   9999     13940 0     0    
2019/07/16  01:50:00  BASE  7.92036  32   11.5836  36   1.1   89    -0.5  0     0     991.3    NA       0.0000   9999     10890 13910 0    
2019/07/16  01:51:00  BASE  8.51424  31   11.5836  36   1.1   89    -0.5  0     0     991.3    NA       0.0000   9999     10890 13910 0    
2019/07/16  01:52:00  BASE  8.57304  31   11.5836  36   1.1   89    -0.5  0     0     991.3    NA       0.0000   9999     10860 13910 0    
2019/07/16  01:53:00  BASE  8.53188  32   11.5836  36   1.1   89    -0.6  0     0     991.3    NA       0.0000   9999     13980 0     0    
2019/07/16  01:54:00  BASE  8.26728  33   11.5836  36   1.0   89    -0.6  0     0     991.3    NA       0.0000   9999     13810 0     0    
2019/07/16  01:55:00  BASE  8.27904  35   11.5836  36   1.0   89    -0.6  0     0     991.3    NA       0.0000   9999     13810 0     0    
2019/07/16  01:56:00  BASE  8.3202   35   11.5836  36   1.0   89    -0.6  0     0     991.3    NA       0.0000   9999     13880 0     0    
2019/07/16  01:57:00  BASE  8.42016  29   9.98424  27   1.0   89    -0.6  0     0     991.2    NA       0.0000   9999     13850 0     0    
2019/07/16  01:58:00  BASE  9.01404  29   9.98424  27   1.1   89    -0.5  0     0     991.3    NA       0.0000   9999     13880 0     0    
2019/07/16  01:59:00  BASE  8.37312  32   9.98424  27   1.1   89    -0.5  0     0     991.3    NA       0.0000   9999     13880 0     0    
2019/07/16  02:00:00  BASE  7.60872  33   9.98424  27   1.1   89    -0.5  0     0     991.3    NA       0.0000   9999     13980 0     0    
2019/07/16  02:01:00  BASE  7.72632  33   9.98424  27   1.1   89    -0.5  0     0     991.3    NA       0.0000   9999     13980 0     0    
2019/07/16  02:02:00  BASE  8.35548  34   9.98424  27   1.2   89    -0.5  0     0     991.3    NA       0.0000   9999     15290 0     0    
2019/07/16  02:03:00  BASE  8.15556  34   9.98424  27   1.2   89    -0.5  0     0     991.3    NA       0.0000   9999     15360 0     0    
2019/07/16  02:04:00  BASE  7.80276  34   9.98424  27   1.2   89    -0.5  0     0     991.3    NA       0.0000   9999     15490 0     0    
2019/07/16  02:05:00  BASE  8.03208  35   9.98424  27   1.2   89    -0.5  0     0     991.3    NA       0.0000   9999     14040 15550 0    
2019/07/16  02:06:00  BASE  7.97328  35   9.98424  27   1.2   89    -0.5  0     0     991.3    NA       0.0000   9999     14040 15580 16470
2019/07/16  02:07:00  BASE  7.92624  34   9.80196  40   1.2   88    -0.5  0     0     991.3    NA       0.0000   9999     14110 15580 16470
2019/07/16  02:08:00  BASE  7.9968   30   9.80196  40   1.2   88    -0.6  0     0     991.3    NA       0.0000   9999     15620 16500 0    
2019/07/16  02:09:00  BASE  7.81452  32   9.80196  40   1.2   88    -0.6  0     0     991.3    NA       0.0000   9999     16540 17910 0    
2019/07/16  02:10:00  BASE  8.54952  36   10.3135  45   1.1   88    -0.6  0     0     991.2    NA       0.0000   9999     16600 17490 0    
2019/07/16  02:11:00  BASE  8.83764  35   10.3135  45   1.1   88    -0.6  0     0     991.3    NA       0.0000   9999     19690 0     0    
2019/07/16  02:12:00  BASE  8.34372  35   10.3135  45   1.1   88    -0.6  0     0     991.3    NA       0.0000   9999     0     0     0    
2019/07/16  02:13:00  BASE  8.23788  32   10.3135  45   1.2   88    -0.6  0     0     991.3    NA       0.0000   9999     15580 18310 0    
2019/07/16  02:14:00  BASE  7.97328  31   10.3135  45   1.2   88    -0.6  0     0     991.3    NA       0.0000   9999     15580 0     0    
2019/07/16  02:15:00  BASE  8.09676  29   10.3135  45   1.2   88    -0.6  0     0     991.3    NA       0.0000   9999     15390 0     0    
2019/07/16  02:16:00  BASE  7.80276  29   10.3135  45   1.2   88    -0.7  0     0     991.4    NA       0.0000   9999     15320 0     0    
2019/07/16  02:17:00  BASE  7.41468  32   10.3135  45   1.2   87    -0.7  0     0     991.4    NA       0.0000   9999     15290 0     0    
2019/07/16  02:18:00  BASE  7.8792   31   10.3135  45   1.2   87    -0.8  0     0     991.3    NA       0.0000   9999     15260 0     0    
2019/07/16  02:19:00  BASE  8.13204  29   10.3135  45   1.2   87    -0.8  0     0     991.3    NA       0.0000   9999     15220 0     0    
2019/07/16  02:20:00  BASE  7.92036  25   9.64908  34   1.2   86    -0.8  0     0     991.3    NA       0.0000   9999     15190 0     0    
2019/07/16  02:21:00  BASE  7.82628  24   9.64908  34   1.2   86    -0.8  0     0     991.3    NA       0.0000   9999     15220 0     0    
2019/07/16  02:22:00  BASE  7.60872  25   9.56088  32   1.2   86    -0.8  0     0     991.3    NA       0.0000   9999     15220 0     0    
2019/07/16  02:23:00  BASE  7.5852   27   9.56088  32   1.2   86    -0.8  0     0     991.3    NA       0.0000   9999     15190 0     0    
2019/07/16  02:24:00  BASE  7.47936  28   9.56088  32   1.2   86    -0.8  0     0     991.3    NA       0.0000   9999     14990 0     0    
2019/07/16  02:25:00  BASE  7.24416  26   9.4374   35   1.2   87    -0.8  0     0     991.3    NA       0.0000   9999     14930 0     0    
2019/07/16  02:26:00  BASE  7.82628  25   9.4374   35   1.2   87    -0.7  0     0     991.3    NA       0.0000   9999     14960 0     0    
2019/07/16  02:27:00  BASE  8.3202   25   9.4374   35   1.3   87    -0.7  0     0     991.3    NA       0.0000   9999     15030 0     0    
2019/07/16  02:28:00  BASE  7.77336  26   9.408    20   1.3   87    -0.6  0     0     991.3    NA       0.0000   9999     15060 0     0    
2019/07/16  02:29:00  BASE  7.3206   25   9.408    20   1.3   87    -0.6  0     0     991.3    NA       0.0000   9999     15030 0     0    
2019/07/16  02:30:00  BASE  7.39116  26   9.408    20   1.3   87    -0.6  0     0     991.3    NA       0.0000   9999     14990 0     0    
2019/07/16  02:31:00  BASE  7.91448  28   9.64908  26   1.3   87    -0.6  0     0     991.2    NA       0.0000   9999     15030 0     0    
2019/07/16  02:32:00  BASE  8.18496  28   9.64908  26   1.3   87    -0.6  0     0     991.2    NA       0.0000   9999     15030 0     0    
2019/07/16  02:33:00  BASE  8.2614   26   9.64908  26   1.3   87    -0.6  0     0     991.2    NA       0.0000   9999     14800 0     0    
2019/07/16  02:34:00  BASE  8.32608  26   9.64908  26   1.3   88    -0.6  0     0     991.2    NA       0.0000   9999     14900 0     0    
2019/07/16  02:35:00  BASE  8.04972  27   9.64908  26   1.3   88    -0.5  0     0     991.2    NA       0.0000   9999     11550 0     0    
2019/07/16  02:36:00  BASE  7.80276  28   9.64908  26   1.2   88    -0.5  0     0     991.2    NA       0.0000   9999     11680 0     0    
2019/07/16  02:37:00  BASE  7.72044  30   9.64908  26   1.2   89    -0.4  0     0     991.2    NA       0.0000   9999     11450 0     0    
2019/07/16  02:38:00  BASE  7.6146   29   9.64908  26   1.2   89    -0.5  0     0     991.2    NA       0.0000   9999     0     0     0    
2019/07/16  02:39:00  BASE  7.80276  28   9.64908  26   1.2   88    -0.5  0     0     991.2    NA       0.0000   9999     16240 0     0    
2019/07/16  02:40:00  BASE  7.89684  29   9.64908  26   1.1   89    -0.5  0     0     991.2    NA       0.0000   9999     0     0     0    
2019/07/16  02:41:00  BASE  7.87332  30   9.408    20   1.1   89    -0.5  0     0     991.1    NA       0.0000   9999     0     0     0    
2019/07/16  02:42:00  BASE  7.76748  28   9.408    20   1.1   89    -0.6  0     0     991.2    NA       0.0000   9999     0     0     0    
2019/07/16  02:43:00  BASE  7.54992  27   9.3786   28   1.1   89    -0.5  0     0     991.2    NA       0.0000   9999     11650 0     0    
2019/07/16  02:44:00  BASE  7.91448  26   9.3786   28   1.1   89    -0.5  0     0     991.2    NA       0.0000   9999     12500 0     0    
2019/07/16  02:45:00  BASE  8.04384  26   9.25512  33   1.1   89    -0.4  0     0     991.1    NA       0.0000   9999     12500 0     0    
2019/07/16  02:46:00  BASE  7.94976  27   9.25512  33   1.1   89    -0.4  0     0     991.1    NA       0.0000   9999     12140 0     0    
2019/07/16  02:47:00  BASE  7.80276  26   9.25512  33   1.1   90    -0.4  0     0     991.1    NA       0.0000   9999     12170 0     0    
2019/07/16  02:48:00  BASE  8.04972  26   9.3786   31   1.1   90    -0.4  0     0     991.1    NA       0.0000   9999     12070 0     0    
2019/07/16  02:49:00  BASE  8.3496   28   9.3786   31   1.1   90    -0.4  0     0     991.1    NA       0.0000   9999     0     0     0    
2019/07/16  02:50:00  BASE  8.0556   29   9.3786   31   1.1   90    -0.4  0     0     991.1    NA       0.0000   9999     0     0     0    
2019/07/16  02:51:00  BASE  8.50836  30   10.1959  28   1.1   90    -0.4  0     0     991.1    NA       0.0000   9999     0     0     0    
2019/07/16  02:52:00  BASE  8.75532  33   10.1959  28   1.1   90    -0.4  0     0     991.1    NA       0.0000   9999     13160 0     0    
2019/07/16  02:53:00  BASE  8.46132  33   10.1959  28   1.1   90    -0.3  0     0     991.1    NA       0.0000   9999     13090 0     0    
2019/07/16  02:54:00  BASE  8.32608  34   10.1959  28   1.0   91    -0.3  0     0     991.1    NA       0.0000   9999     12960 0     0    
2019/07/16  02:55:00  BASE  8.16144  35   10.1959  28   1.0   91    -0.3  0     0     991.1    NA       0.0000   9999     12110 0     0    
2019/07/16  02:56:00  BASE  8.23788  36   10.1959  28   1.0   91    -0.2  0     0     991.0    NA       0.0000   9999     0     0     0    
2019/07/16  02:57:00  BASE  8.18496  39   10.1959  28   1.0   92    -0.2  0     0     991.0    NA       0.0000   9999     0     0     0    
2019/07/16  02:58:00  BASE  8.26728  39   10.1959  28   1.0   92    -0.2  0     0     991.0    NA       0.0000   9999     12630 0     0    
2019/07/16  02:59:00  BASE  8.35548  38   10.1959  28   1.0   92    -0.1  0     0     991.0    NA       0.0000   9999     12370 0     0    
2019/07/16  03:00:00  BASE  7.63812  37   10.1959  28   1.0   92    -0.1  0     0     991.0    NA       0.0000   9999     12370 0     0    
2019/07/16  03:01:00  BASE  7.70868  38   9.98424  37   1.0   92    -0.1  0     0     991.0    NA       0.0000   9999     12830 0     0    
2019/07/16  03:02:00  BASE  8.39664  40   9.98424  37   1.1   92    -0.1  0     0     991.0    NA       0.0000   9999     12600 0     0    
2019/07/16  03:03:00  BASE  8.34372  41   9.98424  37   1.1   92    -0.1  0     0     991.0    NA       0.0000   9999     12760 0     0    
2019/07/16  03:04:00  BASE  8.2614   40   9.98424  37   1.1   92    -0.1  0     0     991.0    NA       0.0000   9999     12800 0     0    
2019/07/16  03:05:00  BASE  7.9968   40   9.67848  34   1.1   92    -0.1  0     0     991.0    NA       0.0000   9999     12930 0     0    
2019/07/16  03:06:00  BASE  7.93212  39   9.67848  34   1.1   92    -0.1  0     0     991.0    NA       0.0000   9999     12960 0     0    
2019/07/16  03:07:00  BASE  7.93212  38   9.67848  34   1.1   92    -0.1  0     0     991.0    NA       0.0000   9999     12730 0     0    
2019/07/16  03:08:00  BASE  7.66752  39   9.67848  34   1.1   91    -0.1  0     0     990.9    NA       0.0000   9999     12530 0     0    
2019/07/16  03:09:00  BASE  7.54992  41   9.67848  34   1.1   91    -0.1  0     0     991.0    NA       0.0000   9999     12110 0     0    
2019/07/16  03:10:00  BASE  7.35     42   9.67848  34   1.1   91    -0.2  0     0     991.0    NA       0.0000   9999     0     0     0    
2019/07/16  03:11:00  BASE  7.45584  42   9.67848  34   1.1   91    -0.2  0     0     990.9    NA       0.0000   9999     12070 0     0    
2019/07/16  03:12:00  BASE  7.62048  40   9.89016  44   1.0   91    -0.3  0     0     990.9    NA       0.0000   9999     12470 0     0    
2019/07/16  03:13:00  BASE  7.75572  40   9.89016  44   1.0   91    -0.3  0     0     990.9    NA       0.0000   9999     12470 0     0    
2019/07/16  03:14:00  BASE  8.44368  38   10.437   35   1.0   91    -0.3  0     0     990.8    NA       0.0000   9999     12530 0     0    
2019/07/16  03:15:00  BASE  8.50836  38   10.437   35   1.0   91    -0.3  0     0     990.8    NA       0.0000   9999     12630 0     0    
2019/07/16  03:16:00  BASE  8.48484  40   10.437   35   1.0   91    -0.3  0     0     990.8    NA       0.0000   9999     12700 0     0    
2019/07/16  03:17:00  BASE  8.53776  39   10.437   35   1.1   91    -0.3  0     0     990.9    NA       0.0000   9999     12600 0     0    
2019/07/16  03:18:00  BASE  8.10852  40   10.437   35   1.1   90    -0.3  0     0     990.9    NA       0.0000   9999     12600 0     0    
2019/07/16  03:19:00  BASE  8.13792  40   10.437   35   1.1   90    -0.3  0     0     990.8    NA       0.0000   9999     12800 0     0    
2019/07/16  03:20:00  BASE  8.39076  36   10.437   35   1.2   89    -0.4  0     0     990.8    NA       0.0000   9999     13120 0     0    
2019/07/16  03:21:00  BASE  8.26728  38   10.437   35   1.2   89    -0.4  0     0     990.8    NA       0.0000   9999     13120 0     0    
2019/07/16  03:22:00  BASE  8.80236  40   10.437   35   1.2   89    -0.5  0     0     990.8    NA       0.0000   9999     12990 0     0    
2019/07/16  03:23:00  BASE  8.97288  39   10.437   35   1.2   88    -0.5  0     0     990.8    NA       0.0000   9999     12960 0     0    
2019/07/16  03:24:00  BASE  8.13204  40   10.3429  33   1.2   88    -0.5  0     0     990.9    NA       0.0000   9999     13060 0     0    
2019/07/16  03:25:00  BASE  7.89096  40   10.3429  33   1.2   88    -0.6  0     0     990.9    NA       0.0000   9999     13480 0     0    
2019/07/16  03:26:00  BASE  7.76748  40   10.3429  33   1.2   88    -0.6  0     0     990.9    NA       0.0000   9999     13680 0     0    
2019/07/16  03:27:00  BASE  7.8498   42   10.3429  33   1.2   87    -0.7  0     0     990.9    NA       0.0000   9999     13620 0     0    
2019/07/16  03:28:00  BASE  7.9086   44   10.3429  33   1.2   87    -0.7  0     0     991.0    NA       0.0000   9999     13290 0     0    
2019/07/16  03:29:00  BASE  7.40292  43   10.3429  33   1.2   87    -0.7  0     0     991.0    NA       0.0000   9999     13350 0     0    
2019/07/16  03:30:00  BASE  7.56756  42   10.3429  33   1.2   88    -0.7  0     0     990.9    NA       0.0000   9999     13580 0     0    
2019/07/16  03:31:00  BASE  8.03208  43   10.3429  33   1.1   88    -0.7  0     0     991.0    NA       0.0000   9999     13780 0     0    
2019/07/16  03:32:00  BASE  8.0262   44   9.77256  44   1.1   88    -0.6  0     0     990.9    NA       0.0000   9999     13940 0     0    
2019/07/16  03:33:00  BASE  7.94388  44   9.77256  44   1.0   89    -0.6  0     0     990.9    NA       0.0000   9999     8070  0     0    
2019/07/16  03:34:00  BASE  7.8792   45   9.77256  44   1.0   89    -0.6  0     0     990.9    NA       0.0000   9999     8070  0     0    
2019/07/16  03:35:00  BASE  7.98504  45   9.77256  44   1.0   89    -0.6  0     0     990.9    NA       0.0000   9999     8100  0     0    
2019/07/16  03:36:00  BASE  8.12616  46   9.77256  44   1.0   89    -0.6  0     0     990.9    NA       0.0000   9999     14010 0     0    
2019/07/16  03:37:00  BASE  8.232    46   9.4668   41   1.0   89    -0.6  0     0     990.9    NA       0.0000   9999     14040 0     0    
2019/07/16  03:38:00  BASE  8.25552  46   9.4668   41   0.9   90    -0.6  0     0     990.9    NA       0.0000   9999     13880 0     0    
2019/07/16  03:39:00  BASE  8.30256  46   9.4668   41   0.9   90    -0.5  0     0     990.9    NA       0.0000   9999     13750 0     0    
2019/07/16  03:40:00  BASE  8.0556   45   9.4668   41   0.9   90    -0.5  0     0     990.9    NA       0.0000   9999     13550 0     0    
2019/07/16  03:41:00  BASE  8.12028  45   9.4668   41   0.9   91    -0.5  0     0     990.9    NA       0.0000   9999     13260 0     0    
2019/07/16  03:42:00  BASE  8.5848   46   9.4668   41   0.9   91    -0.4  0     0     990.9    NA       0.0000   9999     13160 0     0    
2019/07/16  03:43:00  BASE  8.33196  48   9.4668   41   0.9   91    -0.3  0     0     990.9    NA       0.0000   9999     13030 0     0    
2019/07/16  03:44:00  BASE  8.04384  49   9.4668   41   0.9   92    -0.3  0     0     990.8    NA       0.0000   9999     12600 0     0    
2019/07/16  03:45:00  BASE  8.13792  49   9.4374   47   0.9   92    -0.3  0     0     990.8    NA       0.0000   9999     12890 0     0    
2019/07/16  03:46:00  BASE  8.66712  48   10.2547  51   0.9   92    -0.2  0     0     990.8    NA       0.0000   9999     12210 0     0    
2019/07/16  03:47:00  BASE  8.8788   46   10.2547  51   0.9   92    -0.2  0     0     990.8    NA       0.0000   9999     12830 0     0    
2019/07/16  03:48:00  BASE  8.47308  44   10.2547  51   0.9   92    -0.2  0     0     990.8    NA       0.0000   9999     12800 0     0    
2019/07/16  03:49:00  BASE  8.12028  44   10.2547  51   1.0   92    -0.2  0     0     990.8    NA       0.0000   9999     12860 0     0    
2019/07/16  03:50:00  BASE  8.1438   45   10.2547  51   1.0   92    -0.2  0     0     990.8    NA       0.0000   9999     12570 0     0    
2019/07/16  03:51:00  BASE  7.97916  45   10.2547  51   1.0   92    -0.2  0     0     990.8    NA       0.0000   9999     12500 0     0    
2019/07/16  03:52:00  BASE  7.63812  45   10.2547  51   1.0   92    -0.2  0     0     990.8    NA       0.0000   9999     12500 0     0    
2019/07/16  03:53:00  BASE  7.8204   44   10.2547  51   1.0   92    -0.2  0     0     990.8    NA       0.0000   9999     12800 0     0    
2019/07/16  03:54:00  BASE  7.54404  43   10.2547  51   1.0   91    -0.3  0     0     990.8    NA       0.0000   9999     12830 0     0    
2019/07/16  03:55:00  BASE  7.07952  43   10.2547  51   1.0   91    -0.3  0     0     990.8    NA       0.0000   9999     13030 0     0    
2019/07/16  03:56:00  BASE  6.85608  41   9.4374   44   1.0   91    -0.3  0     0     990.8    NA       0.0000   9999     12240 0     0    
2019/07/16  03:57:00  BASE  7.23828  42   9.3786   43   1.0   91    -0.4  0     0     990.7    NA       0.0000   9999     12210 0     0    
2019/07/16  03:58:00  BASE  7.6146   40   9.3786   43   1.0   90    -0.4  0     0     990.7    NA       0.0000   9999     12070 0     0    
2019/07/16  03:59:00  BASE  7.17948  39   9.3786   43   1.0   90    -0.4  0     0     990.7    NA       0.0000   9999     11650 0     0    
2019/07/16  04:00:00  BASE  7.38528  40   9.56088  31   1.0   89    -0.5  0     0     990.6    NA       0.0000   9999     11250 0     0    
2019/07/16  04:01:00  BASE  8.10852  38   9.56088  31   1.1   89    -0.6  0     0     990.6    NA       0.0000   9999     13710 0     0    
2019/07/16  04:02:00  BASE  8.232    34   9.56088  31   1.1   89    -0.6  0     0     990.6    NA       0.0000   9999     13520 0     0    
2019/07/16  04:03:00  BASE  8.21436  34   9.56088  31   1.1   88    -0.6  0     0     990.6    NA       0.0000   9999     13320 0     0    
2019/07/16  04:05:00  BASE  8.24376  34   9.77256  32   1.1   88    -0.7  0     0     990.6    NA       0.0000   9999     13290 0     0    
2019/07/16  04:06:00  BASE  8.26728  38   9.77256  32   1.1   88    -0.7  0     0     990.6    NA       0.0000   9999     13260 0     0    
2019/07/16  04:07:00  BASE  7.77336  39   9.77256  32   1.1   88    -0.7  0     0     990.6    NA       0.0000   9999     13160 0     0    
2019/07/16  04:08:00  BASE  7.51464  36   9.77256  32   1.1   88    -0.6  0     0     990.5    NA       0.0000   9999     13120 0     0    
2019/07/16  04:09:00  BASE  7.67928  36   9.77256  32   1.1   88    -0.6  0     0     990.5    NA       0.0000   9999     13260 0     0    
2019/07/16  04:10:00  BASE  7.8204   38   9.77256  32   1.1   89    -0.6  0     0     990.5    NA       0.0000   9999     13290 0     0    
2019/07/16  04:11:01  BASE  7.81452  38   9.77256  32   1.0   89    -0.6  0     0     990.5    NA       0.0000   9999     13220 0     0    
2019/07/16  04:12:00  BASE  7.63812  37   9.77256  32   1.1   89    -0.6  0     0     990.5    NA       0.0000   9999     13160 0     0    
2019/07/16  04:13:00  BASE  7.72632  36   9.77256  32   1.1   89    -0.5  0     0     990.5    NA       0.0000   9999     13090 0     0    
2019/07/16  04:14:00  BASE  7.53816  37   9.77256  32   1.1   89    -0.6  0     0     990.5    NA       0.0000   9999     13120 0     0    
2019/07/16  04:15:00  BASE  7.38528  37   9.64908  40   1.1   89    -0.5  0     0     990.5    NA       0.0000   9999     13260 0     0    
2019/07/16  04:16:00  BASE  6.98544  35   8.86116  42   1.1   88    -0.6  0     0     990.5    NA       0.0000   9999     13450 0     0    
2019/07/16  04:17:00  BASE  7.03836  30   8.86116  42   1.1   88    -0.7  0     0     990.4    NA       0.0000   9999     13390 0     0    
2019/07/16  04:18:00  BASE  7.49112  30   8.86116  42   1.1   88    -0.7  0     0     990.4    NA       0.0000   9999     13090 0     0    
2019/07/16  04:19:00  BASE  7.77336  33   8.86116  42   1.1   88    -0.7  0     0     990.4    NA       0.0000   9999     13090 0     0    
2019/07/16  04:20:00  BASE  7.89684  33   9.28452  31   1.0   88    -0.8  0     0     990.4    NA       0.0000   9999     13160 0     0    
2019/07/16  04:21:00  BASE  7.53228  33   9.28452  31   1.0   88    -0.7  0     0     990.4    NA       0.0000   9999     13160 0     0    
2019/07/16  04:22:00  BASE  7.38528  32   9.28452  31   1.1   88    -0.7  0     0     990.4    NA       0.0000   9999     12960 0     0    
2019/07/16  04:23:00  BASE  7.40292  32   9.28452  31   1.1   88    -0.7  0     0     990.4    NA       0.0000   9999     12890 0     0    
2019/07/16  04:24:00  BASE  7.3206   32   9.28452  31   1.1   88    -0.7  0     0     990.4    NA       0.0000   9999     13120 0     0    
2019/07/16  04:25:00  BASE  7.2618   29   9.28452  31   1.1   87    -0.7  0     0     990.4    NA       0.0000   9999     13220 0     0    
2019/07/16  04:26:00  BASE  7.2324   30   9.28452  31   1.1   87    -0.8  0     0     990.4    NA       0.0000   9999     13190 0     0    
2019/07/16  04:27:00  BASE  7.19712  29   9.28452  31   1.1   87    -0.8  0     0     990.3    NA       0.0000   9999     12960 0     0    
2019/07/16  04:28:00  BASE  7.18536  27   9.28452  31   1.1   87    -0.8  0     0     990.3    NA       0.0000   9999     12960 0     0    
2019/07/16  04:29:00  BASE  7.36764  28   9.28452  31   1.1   87    -0.9  0     0     990.3    NA       0.0000   9999     12890 0     0    
2019/07/16  04:30:00  BASE  7.44408  29   8.64948  28   1.1   87    -0.9  0     0     990.4    NA       0.0000   9999     12800 0     0    
2019/07/16  04:31:00  BASE  7.40292  30   8.64948  28   1.0   87    -0.9  0     0     990.3    NA       0.0000   9999     12700 0     0    
2019/07/16  04:32:00  BASE  7.63224  28   8.53188  28   1.0   87    -0.9  0     0     990.3    NA       0.0000   9999     12600 0     0    
2019/07/16  04:33:00  BASE  7.50876  29   8.53188  28   1.0   87    -1.0  0     0     990.4    NA       0.0000   9999     12630 0     0    
2019/07/16  04:34:00  BASE  6.97956  28   8.53188  28   1.0   86    -1.0  0     0     990.4    NA       0.0000   9999     12470 0     0    
2019/07/16  04:35:00  BASE  6.52092  28   8.53188  28   1.0   86    -1.0  0     0     990.4    NA       0.0000   9999     12570 0     0    
2019/07/16  04:36:00  BASE  6.59736  31   8.53188  28   1.0   86    -1.1  0     0     990.3    NA       0.0000   9999     12760 0     0    
2019/07/16  04:37:00  BASE  6.80316  31   8.53188  28   1.0   86    -1.1  0     0     990.3    NA       0.0000   9999     13120 0     0    
2019/07/16  04:38:00  BASE  6.63264  28   8.53188  28   0.9   86    -1.2  0     0     990.3    NA       0.0000   9999     13160 0     0    
2019/07/16  04:39:00  BASE  6.5562   29   8.4672   32   0.9   86    -1.2  0     0     990.3    NA       0.0000   9999     10730 0     0    
2019/07/16  04:40:00  BASE  6.5856   30   8.4672   32   1.0   85    -1.2  0     0     990.3    NA       0.0000   9999     10660 0     0    
2019/07/16  04:41:00  BASE  6.54444  28   8.4672   32   1.0   85    -1.3  0     0     990.2    NA       0.0000   9999     10660 0     0    
2019/07/16  04:42:00  BASE  7.05012  28   8.4672   36   1.0   85    -1.3  0     0     990.2    NA       0.0000   9999     10600 0     0    
2019/07/16  04:43:00  BASE  7.56168  28   8.77296  23   1.0   84    -1.3  0     0     990.2    NA       0.0000   9999     10560 0     0    
2019/07/16  04:44:00  BASE  7.57344  27   9.01404  30   1.0   84    -1.4  0     0     990.1    NA       0.0000   9999     5640  0     0    
2019/07/16  04:45:00  BASE  7.82628  27   9.01404  30   1.0   84    -1.4  0     0     990.2    NA       0.0000   9999     12830 0     0    
2019/07/16  04:46:00  BASE  7.84392  26   9.13752  23   1.0   84    -1.4  0     0     990.1    NA       0.0000   9999     12760 0     0    
2019/07/16  04:47:00  BASE  7.91448  26   9.13752  23   1.1   84    -1.4  0     0     990.1    NA       0.0000   9999     12660 0     0    
2019/07/16  04:48:00  BASE  7.8498   28   9.13752  23   1.1   83    -1.4  0     0     990.1    NA       0.0000   9999     12800 0     0    
2019/07/16  04:49:00  BASE  7.54404  28   9.13752  23   1.1   83    -1.4  0     0     990.1    NA       0.0000   9999     12860 0     0    
2019/07/16  04:50:00  BASE  7.35588  28   9.13752  23   1.1   83    -1.5  0     0     990.1    NA       0.0000   9999     12960 0     0    
2019/07/16  04:51:00  BASE  7.65576  29   9.4374   30   1.1   83    -1.5  0     0     990.0    NA       0.0000   9999     12990 0     0    
2019/07/16  04:52:00  BASE  7.92624  28   9.4374   30   1.0   83    -1.5  0     0     990.0    NA       0.0000   9999     12990 0     0    
2019/07/16  04:53:00  BASE  7.72632  28   9.4374   30   1.0   83    -1.5  0     0     990.1    NA       0.0000   9999     13030 0     0    
2019/07/16  04:54:00  BASE  7.78512  30   9.4374   30   1.0   83    -1.6  0     0     990.0    NA       0.0000   9999     12890 0     0    
2019/07/16  04:55:00  BASE  7.28532  34   9.4374   30   0.9   83    -1.6  0     0     990.1    NA       0.0000   9999     12860 0     0    
2019/07/16  04:56:00  BASE  6.615    33   9.4374   30   0.9   83    -1.7  0     0     990.1    NA       0.0000   9999     12470 0     0    
2019/07/16  04:57:00  BASE  6.53856  29   9.4374   30   0.8   83    -1.7  0     0     990.1    NA       0.0000   9999     12600 0     0    
2019/07/16  04:58:00  BASE  6.81492  28   9.4374   30   0.7   83    -1.8  0     0     990.1    NA       0.0000   9999     12660 0     0    
2019/07/16  04:59:00  BASE  6.98544  28   9.4374   30   0.6   84    -1.8  0     0     990.0    NA       0.0000   9999     12630 0     0    
2019/07/16  05:00:00  BASE  6.96192  29   9.4374   30   0.6   84    -1.8  0     0     990.0    NA       0.0000   9999     11980 0     0    
2019/07/16  05:01:00  BASE  7.2324   30   8.77296  29   0.6   84    -1.8  0     0     990.0    NA       0.0000   9999     12140 0     0    
2019/07/16  05:02:00  BASE  7.54404  28   8.67888  33   0.6   85    -1.7  0     0     990.0    NA       0.0000   9999     11910 0     0    
2019/07/16  05:03:00  BASE  7.87332  26   8.71416  27   0.7   85    -1.6  0     0     989.9    NA       0.0000   9999     11610 0     0    
2019/07/16  05:04:00  BASE  7.84392  25   8.71416  27   0.7   84    -1.6  0     0     989.9    NA       0.0000   9999     11680 0     0    
2019/07/16  05:05:00  BASE  7.4382   23   8.71416  27   0.8   84    -1.6  0     0     990.0    NA       0.0000   9999     11290 0     0    
2019/07/16  05:06:00  BASE  6.93252  24   8.71416  27   0.8   84    -1.6  0     0     990.1    NA       0.0000   9999     11480 0     0    
2019/07/16  05:07:00  BASE  6.48564  26   8.71416  27   0.9   83    -1.7  0     0     990.1    NA       0.0000   9999     11550 0     0    
2019/07/16  05:08:00  BASE  6.39156  27   8.71416  27   0.9   83    -1.7  0     0     990.0    NA       0.0000   9999     11550 0     0    
2019/07/16  05:09:00  BASE  6.6738   26   8.71416  27   0.9   82    -1.8  0     0     990.0    NA       0.0000   9999     11390 0     0    
2019/07/16  05:10:00  BASE  6.95016  28   8.71416  27   0.9   82    -1.8  0     0     990.0    NA       0.0000   9999     11520 0     0    
2019/07/16  05:11:00  BASE  6.84432  29   8.71416  27   0.9   82    -1.9  0     0     989.9    NA       0.0000   9999     11550 0     0    
2019/07/16  05:12:00  BASE  6.56208  28   8.71416  27   0.9   81    -1.9  0     0     989.9    NA       0.0000   9999     11550 0     0    
2019/07/16  05:13:00  BASE  6.42684  30   8.13792  31   0.9   81    -2.0  0     0     989.9    NA       0.0000   9999     11680 0     0    
2019/07/16  05:14:00  BASE  6.79728  30   8.04384  20   0.8   81    -2.0  0     0     989.9    NA       0.0000   9999     11780 0     0    
2019/07/16  05:15:00  BASE  7.0854   29   7.89684  24   0.8   81    -2.0  0     0     989.9    NA       0.0000   9999     11580 0     0    
2019/07/16  05:16:00  BASE  7.17948  29   8.13792  29   0.8   82    -2.0  0     0     989.9    NA       0.0000   9999     11550 0     0    
2019/07/16  05:17:00  BASE  7.15596  29   8.13792  29   0.8   82    -2.0  0     0     989.9    NA       0.0000   9999     11880 0     0    
2019/07/16  05:18:00  BASE  6.93252  28   8.13792  29   0.8   82    -2.0  0     0     989.9    NA       0.0000   9999     11940 0     0    
2019/07/16  05:19:00  BASE  6.86784  28   8.13792  29   0.8   81    -2.0  0     0     989.9    NA       0.0000   9999     11840 0     0    
2019/07/16  05:20:00  BASE  6.62088  27   8.13792  29   0.8   81    -2.0  0     0     989.9    NA       0.0000   9999     11910 0     0    
2019/07/16  05:21:00  BASE  6.60324  27   8.13792  29   0.8   81    -2.1  0     0     989.9    NA       0.0000   9999     12010 0     0    
2019/07/16  05:22:00  BASE  6.74436  27   8.13792  29   0.8   81    -2.1  0     0     989.9    NA       0.0000   9999     11910 0     0    
2019/07/16  05:23:00  BASE  6.615    27   8.13792  29   0.8   81    -2.1  0     0     989.9    NA       0.0000   9999     11940 0     0    
2019/07/16  05:24:00  BASE  6.4386   29   8.13792  29   0.7   81    -2.2  0     0     990.0    NA       0.0000   9999     12010 0     0    
2019/07/16  05:25:00  BASE  6.2034   28   8.13792  29   0.7   81    -2.2  0     0     990.0    NA       0.0000   9999     12110 0     0    
2019/07/16  05:26:00  BASE  5.89764  28   7.74396  36   0.7   81    -2.2  0     0     990.0    NA       0.0000   9999     12170 0     0    
2019/07/16  05:27:00  BASE  5.68596  27   7.74396  36   0.7   81    -2.2  0     0     990.0    NA       0.0000   9999     10370 0     0    
2019/07/16  05:28:00  BASE  5.60364  27   7.74396  36   0.7   81    -2.2  0     0     990.1    NA       0.0000   9999     11910 0     0    
2019/07/16  05:29:00  BASE  5.25084  29   7.74396  36   0.7   81    -2.2  0     0     990.1    NA       0.0000   9999     10240 0     0    
2019/07/16  05:30:00  BASE  5.06856  28   7.74396  36   0.6   81    -2.2  0     0     990.1    NA       0.0000   9999     10170 0     0    
2019/07/16  05:31:00  BASE  5.2626   28   7.44408  24   0.6   81    -2.2  0     0     990.1    NA       0.0000   9999     10240 0     0    
2019/07/16  05:32:00  BASE  5.3214   31   7.02072  31   0.6   82    -2.2  0     0     990.1    NA       0.0000   9999     10200 0     0    
2019/07/16  05:33:00  BASE  4.9686   35   7.02072  31   0.6   82    -2.1  0     0     990.1    NA       0.0000   9999     11980 0     0    
2019/07/16  05:34:00  BASE  4.3512   39   7.02072  31   0.6   82    -2.1  0     0     990.1    NA       0.0000   9999     12040 0     0    
2019/07/16  05:35:00  BASE  3.822    42   6.77376  24   0.6   82    -2.2  0     0     990.2    NA       0.0000   9999     12110 0     0    
2019/07/16  05:36:00  BASE  3.35748  44   6.77376  24   0.5   81    -2.3  0     0     990.2    NA       0.0000   9999     12070 0     0    
2019/07/16  05:37:00  BASE  3.13992  49   6.77376  24   0.5   81    -2.3  0     0     990.2    NA       0.0000   9999     12010 0     0    
2019/07/16  05:38:00  BASE  2.84004  61   6.07992  32   0.4   81    -2.4  0     0     990.2    NA       0.0000   9999     11780 0     0    
2019/07/16  05:39:00  BASE  2.68716  69   6.07992  32   0.3   82    -2.4  0     0     990.2    NA       0.0000   9999     11550 0     0    
2019/07/16  05:40:00  BASE  2.86356  79   5.95644  33   0.3   82    -2.5  0     0     990.2    NA       0.0000   9999     11420 0     0    
2019/07/16  05:41:00  BASE  2.91648  89   5.95644  33   0.3   82    -2.5  0     0     990.2    NA       0.0000   9999     11250 0     0    
2019/07/16  05:42:00  BASE  3.79848  104  5.3214   41   0.3   82    -2.5  0     0     990.1    NA       0.0000   9999     11290 0     0    
2019/07/16  05:43:00  BASE  4.27476  111  5.02152  115  0.3   82    -2.4  0     0     990.2    NA       0.0000   9999     11090 0     0    
2019/07/16  05:44:00  BASE  3.53388  108  5.02152  115  0.4   82    -2.3  0     0     990.2    NA       0.0000   9999     11020 0     0    
2019/07/16  05:45:00  BASE  2.90472  113  5.02152  115  0.5   82    -2.2  0     0     990.2    NA       0.0000   9999     11160 0     0    
2019/07/16  05:46:00  BASE  3.234    131  5.02152  115  0.5   83    -2.0  0     0     990.1    NA       0.0000   9999     11160 0     0    
2019/07/16  05:47:00  BASE  4.116    157  5.02152  115  0.6   83    -1.9  0     0     990.1    NA       0.0000   9999     11190 0     0    
2019/07/16  05:48:00  BASE  4.22184  174  5.02152  115  0.5   84    -1.9  0     0     990.1    NA       0.0000   9999     11160 0     0    
2019/07/16  05:49:00  BASE  3.69264  182  5.02152  115  0.4   85    -1.9  0     0     990.1    NA       0.0000   9999     11160 0     0    
2019/07/16  05:50:00  BASE  3.13404  179  5.02152  115  0.2   86    -1.8  0     0     990.1    NA       0.0000   9999     10790 0     0    
2019/07/16  05:51:00  BASE  2.76948  172  5.02152  115  0.1   88    -1.8  0     0     990.1    NA       0.0000   9999     10860 0     0    
2019/07/16  05:52:00  BASE  2.57544  168  4.86864  161  -0.1  89    -1.6  0     0     990.1    NA       0.0000   9999     10630 0     0    
2019/07/16  05:53:00  BASE  2.43432  172  4.86864  161  -0.2  91    -1.5  0     0     990.1    NA       0.0000   9999     10960 0     0    
2019/07/16  05:54:00  BASE  2.37552  181  4.86864  161  -0.3  93    -1.4  0     0     990.1    NA       0.0000   9999     10960 0     0    
2019/07/16  05:55:00  BASE  2.36964  184  4.86864  161  -0.4  94    -1.3  0     0     990.1    NA       0.0000   9999     10990 0     0    
2019/07/16  05:56:00  BASE  2.40492  187  4.86864  161  -0.4  95    -1.1  0     0     990.1    NA       0.0000   9999     11940 0     0    
2019/07/16  05:57:00  BASE  2.22852  192  4.263    185  -0.4  96    -0.9  0     0     990.1    NA       0.0000   9999     12170 0     0    
2019/07/16  05:58:00  BASE  1.71696  199  3.83964  176  -0.4  97    -0.8  0     0     990.1    NA       0.0000   9999     11940 0     0    
2019/07/16  05:59:00  BASE  1.2054   205  3.26928  181  -0.5  98    -0.7  0     0     990.1    NA       0.0000   9999     11940 0     0    
2019/07/16  06:00:00  BASE  0.77616  212  2.93412  178  -0.5  99    -0.6  0     0     990.1    NA       0.0000   9999     10470 0     0    
2019/07/16  06:01:00  BASE  0.28224  220  2.75184  165  -0.5  99    -0.6  0     0     990.1    NA       0.0000   9999     11940 0     0    
2019/07/16  06:02:00  BASE  0        249  2.69304  189  -0.4  100   -0.5  0     0     990.1    NA       0.0000   9999     11910 0     0    
2019/07/16  06:03:00  BASE  0.1176   292  2.69304  189  -0.4  100   -0.4  0     0     990.1    NA       0.0000   9999     11610 0     0    
2019/07/16  06:04:00  BASE  0.27048  285  2.69304  189  -0.3  100   -0.3  0     0     990.1    NA       0.0000   9999     11290 0     0    
2019/07/16  06:05:00  BASE  0.2058   313  2.69304  189  -0.2  100   -0.2  0     0     990.1    NA       0.0000   9999     10830 0     0    
2019/07/16  06:06:00  BASE  0.41748  24   2.35788  193  -0.1  99    -0.2  0     0     990.1    NA       0.0000   9999     10660 0     0    
2019/07/16  06:07:00  BASE  0.67032  31   1.57584  205  -0.1  99    -0.2  0     0     990.0    NA       0.0000   9999     10730 0     0    
2019/07/16  06:08:00  BASE  0.38808  19   1.29948  203  -0.1  98    -0.4  0     0     989.9    NA       0.0000   9999     10500 0     0    
2019/07/16  06:09:00  BASE  0.27636  7    0.9996   41   -0.1  96    -0.7  0     0     989.9    NA       0.0000   9999     10470 0     0    
2019/07/16  06:10:00  BASE  0.55272  359  0.9996   41   -0.1  95    -0.8  0     0     989.9    NA       0.0000   9999     10240 0     0    
2019/07/16  06:11:00  BASE  0.78792  2    0.9996   41   0.0   93    -1.0  0     0     989.9    NA       0.0000   9999     10140 0     0    
2019/07/16  06:12:00  BASE  0.735    354  0.9996   41   0.1   92    -1.1  0     0     989.9    NA       0.0000   9999     10200 0     0    
2019/07/16  06:13:00  BASE  0.30576  349  0.9996   41   0.2   91    -1.2  0     0     989.9    NA       0.0000   9999     9970  0     0    
2019/07/16  06:14:00  BASE  0.0294   355  0.9996   41   0.3   90    -1.2  0     0     989.9    NA       0.0000   9999     9940  0     0    
2019/07/16  06:15:00  BASE  0.21756  360  0.9996   41   0.4   89    -1.3  0     0     989.9    NA       0.0000   9999     9780  0     0    
2019/07/16  06:16:00  BASE  0.48804  10   0.93492  341  0.4   88    -1.4  0     0     989.9    NA       0.0000   9999     9710  0     0    
2019/07/16  06:17:00  BASE  0.3234   16   0.93492  341  0.3   87    -1.6  0     0     989.9    NA       0.0000   9999     9550  0     0    
2019/07/16  06:18:00  BASE  0.02352  16   0.93492  341  0.2   88    -1.6  0     0     989.9    NA       0.0000   9999     9610  0     0    
2019/07/16  06:19:00  BASE  0        9    0.93492  341  0.1   88    -1.7  0     0     989.8    NA       0.0000   9999     9290  0     0    
2019/07/16  06:20:00  BASE  0        1    0.93492  341  0.0   88    -1.7  0     0     989.8    NA       0.0000   9999     9220  0     0    
2019/07/16  06:21:00  BASE  0        2    0.93492  341  -0.0  89    -1.7  0     0     989.8    NA       0.0000   9999     9380  0     0    
2019/07/16  06:22:00  BASE  0.34692  291  1.1466   191  -0.1  89    -1.7  0     0     989.8    NA       0.0000   9999     9380  0     0    
2019/07/16  06:23:00  BASE  1.02312  186  1.51116  185  -0.2  89    -1.8  0     0     989.8    NA       0.0000   9999     9350  0     0    
2019/07/16  06:24:00  BASE  1.32888  185  1.51116  185  -0.3  89    -1.8  0     0     989.8    NA       0.0000   9999     9290  0     0    
2019/07/16  06:25:01  BASE  1.1172   180  1.51116  185  -0.3  90    -1.8  0     0     989.8    NA       0.0000   9999     9380  0     0    
2019/07/16  06:26:00  BASE  1.02312  173  1.51116  185  -0.3  90    -1.8  0     0     989.8    NA       0.0000   9999     9290  0     0    
2019/07/16  06:27:01  BASE  1.32888  164  1.81692  155  -0.3  90    -1.8  0     0     989.8    NA       0.0000   9999     9290  0     0    
2019/07/16  06:28:00  BASE  1.40532  158  1.81692  155  -0.3  90    -1.7  0     0     989.8    NA       0.0000   9999     9450  0     0    
2019/07/16  06:29:00  BASE  1.04076  163  1.81692  155  -0.4  90    -1.7  0     0     989.7    NA       0.0000   9999     9350  0     0    
2019/07/16  06:30:00  BASE  0.90552  170  1.81692  155  -0.4  90    -1.8  0     0     989.7    NA       0.0000   9999     9150  0     0    
2019/07/16  06:31:00  BASE  1.04076  176  1.81692  155  -0.4  90    -1.8  0     0     989.7    NA       0.0000   9999     9190  0     0    
2019/07/16  06:32:00  BASE  1.04076  184  1.81692  155  -0.3  90    -1.8  0     0     989.7    NA       0.0000   9999     9120  0     0    
2019/07/16  06:33:00  BASE  0.8232   196  1.81692  155  -0.2  90    -1.7  0     0     989.7    NA       0.0000   9999     9290  0     0    
2019/07/16  06:34:01  BASE  0.34104  212  1.81692  155  -0.1  90    -1.6  0     0     989.7    NA       0.0000   9999     9420  0     0    
2019/07/16  06:35:00  BASE  0        225  1.81692  155  0.1   89    -1.5  0     0     989.6    NA       0.0000   9999     9420  0     0    
2019/07/16  06:36:00  BASE  0        212  1.81692  155  0.2   88    -1.5  0     0     989.6    NA       0.0000   9999     9350  0     0    
2019/07/16  06:37:00  BASE  0        198  1.63464  152  0.4   87    -1.6  0     0     989.6    NA       0.0000   9999     9510  0     0    
2019/07/16  06:38:00  BASE  0        206  1.18188  180  0.5   86    -1.7  0     0     989.6    NA       0.0000   9999     9420  0     0    
2019/07/16  06:39:00  BASE  0        211  1.18188  180  0.5   84    -1.8  0     0     989.6    NA       0.0000   9999     8070  0     0    
2019/07/16  06:40:00  BASE  0        207  1.18188  180  0.6   83    -1.9  0     0     989.6    NA       0.0000   9999     9220  0     0    
2019/07/16  06:41:00  BASE  0        108  1.1172   184  0.7   82    -2.0  0     0     989.6    NA       0.0000   9999     7740  0     0    
2019/07/16  06:42:01  BASE  0        50   0.81732  192  0.7   81    -2.1  0     0     989.6    NA       0.0000   9999     8100  0     0    
2019/07/16  06:43:00  BASE  0.19992  48   1.54056  50   0.8   80    -2.2  0     0     989.6    NA       0.0000   9999     7910  0     0    
2019/07/16  06:44:00  BASE  1.07016  48   1.87572  66   0.7   79    -2.5  0     0     989.6    NA       0.0000   9999     7780  0     0    
2019/07/16  06:45:00  BASE  1.69344  53   1.87572  66   0.5   79    -2.7  0     0     989.6    NA       0.0000   9999     7640  0     0    
2019/07/16  06:46:01  BASE  1.50528  49   1.87572  66   0.3   79    -2.9  0     0     989.6    NA       0.0000   9999     7870  0     0    
2019/07/16  06:47:01  BASE  1.16424  47   1.87572  66   0.0   80    -3.0  0     0     989.6    NA       0.0000   9999     7870  0     0    
2019/07/16  06:48:01  BASE  0.51156  44   1.87572  66   -0.2  81    -3.1  0     0     989.6    NA       0.0000   9999     7740  0     0    
2019/07/16  06:49:00  BASE  0.294    31   1.87572  66   -0.4  83    -2.9  0     0     989.5    NA       0.0000   9999     7580  0     0    
2019/07/16  06:50:00  BASE  0.67032  13   1.87572  66   -0.5  84    -2.8  0     0     989.5    NA       0.0000   9999     7810  0     0    
2019/07/16  06:51:00  BASE  0.7938   6    1.87572  66   -0.6  85    -2.7  0     0     989.5    NA       0.0000   9999     7640  0     0    
2019/07/16  06:52:00  BASE  0.75852  355  1.87572  66   -0.6  86    -2.6  0     0     989.5    NA       0.0000   9999     7480  0     0    
2019/07/16  06:53:00  BASE  0.61152  332  1.87572  66   -0.6  87    -2.5  0     0     989.5    NA       0.0000   9999     7640  0     0    
2019/07/16  06:54:00  BASE  0.6468   290  1.78752  49   -0.7  88    -2.4  0     0     989.5    NA       0.0000   9999     7450  0     0    
2019/07/16  06:55:00  BASE  0.85848  265  1.57584  49   -0.7  89    -2.3  0     0     989.5    NA       0.0000   9999     7420  0     0    
2019/07/16  06:56:00  BASE  0.8232   286  1.18188  271  -0.7  90    -2.1  0     0     989.4    NA       0.0000   9999     8660  0     0    
2019/07/16  06:57:00  BASE  0.72324  310  1.18188  271  -0.6  90    -2.0  0     0     989.4    NA       0.0000   9999     7680  0     0    
2019/07/16  06:58:00  BASE  0.38808  304  1.18188  271  -0.6  91    -1.9  0     0     989.4    NA       0.0000   9999     7580  0     0    
2019/07/16  06:59:00  BASE  0.57036  272  1.39356  242  -0.6  92    -1.8  0     0     989.4    NA       0.0000   9999     8400  0     0    
2019/07/16  07:00:01  BASE  1.29948  246  1.57584  239  -0.5  92    -1.6  0     0     989.4    NA       0.0000   9999     7220  0     0    
2019/07/16  07:01:00  BASE  1.51704  241  1.63464  238  -0.5  93    -1.6  0     0     989.4    NA       0.0000   9999     8430  0     0    
2019/07/16  07:02:00  BASE  1.43472  244  1.63464  238  -0.6  93    -1.5  0     0     989.4    NA       0.0000   9999     8460  0     0    
2019/07/16  07:03:00  BASE  1.01724  262  1.63464  238  -0.6  94    -1.4  0     0     989.3    NA       0.0000   9999     7350  0     0    
2019/07/16  07:04:00  BASE  0.42924  299  1.63464  238  -0.6  95    -1.3  0     0     989.2    NA       0.0000   9999     7150  0     0    
2019/07/16  07:05:00  BASE  0.29988  329  1.63464  238  -0.6  96    -1.1  0     0     989.2    NA       0.0000   9999     6960  0     0    
2019/07/16  07:06:00  BASE  0.22344  331  1.63464  238  -0.6  97    -0.9  0     0     989.2    NA       0.0000   9999     7150  0     0    
2019/07/16  07:07:01  BASE  0.21756  289  1.63464  238  -0.5  98    -0.8  0     0     989.2    NA       0.0000   9999     8010  0     0    
2019/07/16  07:08:01  BASE  0.59976  247  1.63464  238  -0.5  99    -0.7  0     0     989.2    NA       0.0000   9999     7870  0     0    
2019/07/16  07:09:00  BASE  0.441    256  1.63464  238  -0.5  99    -0.6  0     0     989.2    NA       0.0000   9999     6230  0     0    
2019/07/16  07:10:00  BASE  0.2352   274  1.63464  238  -0.5  99    -0.6  0     0     989.1    NA       0.0000   9999     6140  0     0    
2019/07/16  07:11:00  BASE  0.61152  275  1.54056  247  -0.5  99    -0.6  0     0     989.1    NA       0.0000   9999     7840  0     0    
2019/07/16  07:12:00  BASE  0.97608  275  1.1466   277  -0.5  99    -0.5  0     0     989.1    NA       0.0000   9999     8040  0     0    
2019/07/16  07:13:00  BASE  0.9702   287  1.1466   277  -0.5  100   -0.5  0     0     989.1    NA       0.0000   9999     7970  0     0    
2019/07/16  07:14:00  BASE  0.59388  308  1.1466   277  -0.5  100   -0.5  0     0     989.1    NA       0.0000   9999     8300  0     0    
2019/07/16  07:15:01  BASE  0.17052  337  1.1466   277  -0.5  100   -0.5  0     0     989.1    NA       0.0000   9999     8330  0     0    
2019/07/16  07:16:00  BASE  0        6    1.1466   277  -0.5  100   -0.5  0     0     989.1    NA       0.0000   9999     7150  0     0    
2019/07/16  07:17:00  BASE  0        360  1.1466   277  -0.5  100   -0.5  0     0     989.1    NA       0.0000   9999     7090  0     0    
2019/07/16  07:18:00  BASE  0        335  1.1466   277  -0.5  100   -0.5  0     0     989.1    NA       0.0000   9999     7810  0     0    
2019/07/16  07:19:00  BASE  0        301  1.1466   277  -0.5  100   -0.5  0     0     989.1    NA       0.0000   9999     6990  0     0    
2019/07/16  07:20:00  BASE  0        267  1.1466   277  -0.4  100   -0.4  0     0     989.0    NA       0.0000   9999     8760  0     0    
2019/07/16  07:21:00  BASE  0        251  1.1466   277  -0.4  100   -0.4  0     0     989.0    NA       0.0000   9999     7250  0     0    
2019/07/16  07:22:00  BASE  0        242  0.90552  295  -0.3  100   -0.3  0     0     989.0    NA       0.0000   9999     6820  0     0    
2019/07/16  07:23:00  BASE  0.0882   292  0.84672  8    -0.3  100   -0.3  0     0     989.0    NA       0.0000   9999     7250  0     0    
2019/07/16  07:24:00  BASE  0.61152  11   1.39356  47   -0.3  100   -0.3  0     0     989.0    NA       0.0000   9999     7220  0     0    
2019/07/16  07:25:00  BASE  1.32888  42   1.81692  52   -0.4  100   -0.5  0     0     989.0    NA       0.0000   9999     7090  0     0    
2019/07/16  07:26:00  BASE  1.74636  52   2.058    52   -0.6  100   -0.6  0     0     989.0    NA       0.0000   9999     7190  0     0    
2019/07/16  07:27:00  BASE  1.92276  54   2.29908  60   -0.7  99    -0.8  0     0     989.0    NA       0.0000   9999     7050  0     0    
2019/07/16  07:28:00  BASE  1.89336  52   2.29908  60   -0.9  99    -1.0  0     0     989.0    NA       0.0000   9999     6790  0     0    
2019/07/16  07:29:00  BASE  1.79928  50   2.29908  60   -1.0  99    -1.2  0     0     988.9    NA       0.0000   9999     6890  0     0    
2019/07/16  07:30:00  BASE  1.89924  52   2.29908  60   -1.0  98    -1.3  0     0     988.9    NA       0.0000   9999     8790  0     0    
2019/07/16  07:31:00  BASE  1.85808  51   2.29908  60   -1.0  98    -1.3  0     0     988.9    NA       0.0000   9999     8920  0     0    
2019/07/16  07:32:00  BASE  1.65816  50   2.29908  60   -1.0  97    -1.3  0     0     988.9    NA       0.0000   9999     7050  0     0    
2019/07/16  07:33:00  BASE  1.59348  47   2.29908  60   -0.9  97    -1.3  0     0     988.9    NA       0.0000   9999     7550  0     0    
2019/07/16  07:34:00  BASE  1.5582   45   2.29908  60   -0.9  97    -1.2  0     0     988.9    NA       0.0000   9999     8660  0     0    
2019/07/16  07:35:00  BASE  1.57584  51   2.29908  60   -0.8  98    -1.2  0     0     988.9    NA       0.0000   9999     8430  0     0    
2019/07/16  07:36:00  BASE  1.59348  58   2.29908  60   -0.8  98    -1.1  0     0     988.9    NA       0.0000   9999     8430  0     0    
2019/07/16  07:37:00  BASE  1.44648  59   2.21088  52   -0.7  98    -1.0  0     0     988.9    NA       0.0000   9999     8170  0     0    
2019/07/16  07:38:00  BASE  1.48176  64   2.21088  52   -0.7  98    -1.0  0     0     988.9    NA       0.0000   9999     8300  0     0    
2019/07/16  07:39:00  BASE  1.65228  69   2.21088  52   -0.6  98    -0.9  0     0     988.9    NA       0.0000   9999     8630  0     0    
2019/07/16  07:40:00  BASE  1.41708  61   1.87572  67   -0.5  98    -0.8  0     0     988.9    NA       0.0000   9999     7120  0     0    
2019/07/16  07:41:00  BASE  1.18188  51   1.87572  67   -0.4  97    -0.8  0     0     988.9    NA       0.0000   9999     8100  0     0    
2019/07/16  07:42:00  BASE  1.1466   34   1.87572  67   -0.2  96    -0.7  0     0     988.9    NA       0.0000   9999     8860  0     0    
2019/07/16  07:43:00  BASE  1.18188  18   1.87572  67   -0.1  95    -0.8  0     0     988.8    NA       0.0000   9999     8890  0     0    
2019/07/16  07:44:00  BASE  1.33476  19   1.87572  67   -0.0  94    -0.9  0     0     988.7    NA       0.0000   9999     8790  0     0    
2019/07/16  07:45:00  BASE  1.48764  21   1.87572  67   -0.0  92    -1.1  0     0     988.7    NA       0.0000   9999     8560  0     0    
2019/07/16  07:46:00  BASE  1.2936   20   1.87572  67   -0.1  91    -1.5  0     0     988.7    NA       0.0000   9999     6990  0     0    
2019/07/16  07:47:00  BASE  1.05252  15   1.87572  67   -0.3  90    -1.7  0     0     988.7    NA       0.0000   9999     6790  0     0    
2019/07/16  07:48:00  BASE  1.0584   16   1.81692  59   -0.4  90    -1.8  0     0     988.7    NA       0.0000   9999     6860  0     0    
2019/07/16  07:49:00  BASE  1.11132  27   1.75224  23   -0.5  91    -1.8  0     0     988.7    NA       0.0000   9999     6530  0     0    
2019/07/16  07:50:00  BASE  1.24656  33   1.81692  39   -0.5  91    -1.7  0     0     988.7    NA       0.0000   9999     6460  0     0    
2019/07/16  07:51:00  BASE  1.47588  30   1.96392  24   -0.4  92    -1.6  0     0     988.7    NA       0.0000   9999     6530  0     0    
2019/07/16  07:52:00  BASE  1.62288  28   1.96392  24   -0.4  92    -1.5  0     0     988.7    NA       0.0000   9999     8010  0     0    
2019/07/16  07:53:00  BASE  1.74636  27   2.0286   24   -0.4  92    -1.6  0     0     988.7    NA       0.0000   9999     7610  0     0    
2019/07/16  07:54:00  BASE  2.01096  19   2.29908  11   -0.4  91    -1.7  0     0     988.7    NA       0.0000   9999     7970  0     0    
2019/07/16  07:55:00  BASE  2.19912  14   2.35788  15   -0.5  91    -1.8  0     0     988.7    NA       0.0000   9999     7740  0     0    
2019/07/16  07:56:00  BASE  2.16384  13   2.35788  15   -0.6  91    -1.9  0     0     988.6    NA       0.0000   9999     7640  0     0    
2019/07/16  07:57:00  BASE  2.03448  11   2.35788  15   -0.7  92    -1.9  0     0     988.5    NA       0.0000   9999     8170  0     0    
2019/07/16  07:58:00  BASE  1.91688  8    2.35788  15   -0.8  92    -1.9  0     0     988.5    NA       0.0000   9999     8500  0     0    
2019/07/16  07:59:00  BASE  1.81692  9    2.35788  15   -0.9  94    -1.8  0     0     988.5    NA       0.0000   9999     8460  0     0    
2019/07/16  08:00:00  BASE  1.78752  8    2.35788  15   -1.0  95    -1.7  0     0     988.5    NA       0.0000   9999     6500  0     0    
2019/07/16  08:01:00  BASE  1.87572  5    2.35788  15   -0.9  96    -1.5  0     0     988.5    NA       0.0000   9999     6230  0     0    
2019/07/16  08:02:00  BASE  1.8228   3    2.35788  15   -1.0  97    -1.4  0     0     988.5    NA       0.0000   9999     8530  0     0    
2019/07/16  08:03:00  BASE  1.6464   5    2.35788  15   -1.0  98    -1.3  0     0     988.5    NA       0.0000   9999     8600  0     0    
2019/07/16  08:04:00  BASE  1.47     11   2.35788  15   -0.9  98    -1.2  0     0     988.5    NA       0.0000   9999     8460  0     0    
2019/07/16  08:05:00  BASE  1.44648  20   2.24028  19   -1.0  99    -1.1  0     0     988.5    NA       0.0000   9999     8460  0     0    
2019/07/16  08:06:00  BASE  1.59936  29   2.1168   8    -1.0  99    -1.1  0     0     988.5    NA       0.0000   9999     8730  0     0    
2019/07/16  08:07:00  BASE  1.68756  38   2.0874   2    -1.0  100   -1.1  0     0     988.5    NA       0.0000   9999     8660  0     0    
2019/07/16  08:08:00  BASE  1.92276  37   2.26968  32   -1.1  100   -1.1  0     0     988.5    NA       0.0000   9999     8830  0     0    
2019/07/16  08:09:00  BASE  2.10504  28   2.26968  32   -1.1  100   -1.1  0     0     988.5    NA       0.0000   9999     8660  0     0    
2019/07/16  08:10:00  BASE  2.03448  22   2.26968  32   -1.1  100   -1.1  0     0     988.4    NA       0.0000   9999     9020  0     0    
2019/07/16  08:11:00  BASE  1.98156  20   2.26968  32   -1.1  100   -1.1  0     0     988.4    NA       0.0000   9999     5810  0     0    
2019/07/16  08:12:00  BASE  1.9992   21   2.26968  32   -1.1  100   -1.1  0     0     988.4    NA       0.0000   9999     8630  0     0    
2019/07/16  08:13:00  BASE  1.99332  25   2.26968  32   -1.0  100   -1.0  0     0     988.4    NA       0.0000   9999     8790  0     0    
2019/07/16  08:14:00  BASE  1.97568  35   2.26968  32   -1.0  100   -1.0  0     0     988.4    NA       0.0000   9999     8430  0     0    
2019/07/16  08:15:00  BASE  1.86984  43   2.26968  32   -0.9  100   -0.9  0     0     988.3    NA       0.0000   9999     8400  0     0    
2019/07/16  08:16:00  BASE  1.82868  51   2.26968  32   -0.9  100   -0.9  0     0     988.3    NA       0.0000   9999     8500  0     0    
2019/07/16  08:17:00  BASE  1.86396  56   2.26968  32   -0.8  100   -0.9  0     0     988.3    NA       0.0000   9999     8170  0     0    
2019/07/16  08:18:00  BASE  1.80516  52   2.1462   23   -0.8  99    -0.8  0     0     988.3    NA       0.0000   9999     8530  0     0    
2019/07/16  08:19:00  BASE  1.65816  42   2.1168   24   -0.7  99    -0.8  0     0     988.3    NA       0.0000   9999     5770  0     0    
2019/07/16  08:20:00  BASE  1.53468  30   2.1168   24   -0.5  98    -0.8  0     0     988.2    NA       0.0000   9999     8690  0     0    
2019/07/16  08:21:00  BASE  1.48176  23   2.1168   24   -0.4  98    -0.7  0     0     988.2    NA       0.0000   9999     7580  0     0    
2019/07/16  08:22:00  BASE  1.41708  28   2.0286   41   -0.3  97    -0.8  0     0     988.2    NA       0.0000   9999     7450  0     0    
2019/07/16  08:23:00  BASE  1.39944  38   2.0286   41   -0.3  96    -0.9  0     0     988.2    NA       0.0000   9999     7480  8530  9060 
2019/07/16  08:24:00  BASE  1.51704  44   1.96392  47   -0.3  94    -1.1  0     0     988.2    NA       0.0000   9999     7510  8370  9020 
2019/07/16  08:25:00  BASE  1.7346   49   1.96392  47   -0.3  93    -1.2  0     0     988.2    NA       0.0000   9999     8240  0     0    
2019/07/16  08:26:00  BASE  1.8816   55   2.0874   53   -0.3  93    -1.3  0     0     988.2    NA       0.0000   9999     8270  0     0    
2019/07/16  08:27:00  BASE  1.78752  58   2.0874   53   -0.3  92    -1.4  0     0     988.2    NA       0.0000   9999     8200  0     0    
2019/07/16  08:28:00  BASE  1.617    58   2.0874   53   -0.2  92    -1.4  0     0     988.1    NA       0.0000   9999     6730  8100  0    
2019/07/16  08:29:00  BASE  1.51704  51   2.0874   53   -0.1  91    -1.4  0     0     988.0    NA       0.0000   9999     6590  8040  0    
2019/07/16  08:30:00  BASE  1.47     44   2.0874   53   -0.1  91    -1.4  0     0     988.0    NA       0.0000   9999     6500  8010  0    
2019/07/16  08:31:00  BASE  1.54056  43   2.0874   53   -0.0  90    -1.5  0     0     988.0    NA       0.0000   9999     6460  0     0    
2019/07/16  08:32:00  BASE  1.60524  42   2.0874   53   0.0   89    -1.5  0     0     987.9    NA       0.0000   9999     6370  0     0    
2019/07/16  08:33:00  BASE  1.61112  41   2.0874   53   0.0   89    -1.6  0     0     987.9    NA       0.0000   9999     6330  0     0    
2019/07/16  08:34:00  BASE  1.61112  42   2.0874   53   0.0   88    -1.7  0     0     987.9    NA       0.0000   9999     6300  0     0    
2019/07/16  08:35:00  BASE  1.58172  46   2.0874   53   0.0   88    -1.8  0     0     987.9    NA       0.0000   9999     6370  0     0    
2019/07/16  08:36:00  BASE  1.47     49   1.75224  57   0.0   87    -1.8  0     0     987.9    NA       0.0000   9999     6300  0     0    
2019/07/16  08:37:00  BASE  1.31124  54   1.75224  57   0.0   87    -1.8  0     0     987.9    NA       0.0000   9999     6300  0     0    
2019/07/16  08:38:00  BASE  1.1172   54   1.72284  40   0.0   87    -1.9  0     0     987.9    NA       0.0000   9999     6270  0     0    
2019/07/16  08:39:00  BASE  0.89964  49   1.72284  40   0.1   87    -1.8  0     0     987.9    NA       0.0000   9999     6270  0     0    
2019/07/16  08:40:00  BASE  0.78204  49   1.72284  40   0.1   87    -1.8  0     0     987.9    NA       0.0000   9999     6200  0     0    
2019/07/16  08:41:00  BASE  0.74088  44   1.72284  40   0.1   87    -1.8  0     0     987.9    NA       0.0000   9999     6140  0     0    
2019/07/16  08:42:00  BASE  0.441    36   1.72284  40   0.2   87    -1.7  0     0     987.9    NA       0.0000   9999     6000  0     0    
2019/07/16  08:43:00  BASE  0.07644  29   1.69344  44   0.3   87    -1.7  0     0     987.9    NA       0.0000   9999     5840  0     0    
2019/07/16  08:44:00  BASE  0        25   1.63464  50   0.3   86    -1.7  0     0     987.9    NA       0.0000   9999     5840  0     0    
2019/07/16  08:45:00  BASE  0        24   1.57584  49   0.4   86    -1.7  0     0     987.8    NA       0.0000   9999     5810  0     0    
2019/07/16  08:46:00  BASE  0        30   1.39356  53   0.5   85    -1.7  0     0     987.8    NA       0.0000   9999     5840  0     0    
2019/07/16  08:47:00  BASE  0        37   1.18188  58   0.5   85    -1.7  0     0     987.8    NA       0.0000   9999     5770  0     0    
2019/07/16  08:48:00  BASE  0        44   0.90552  42   0.5   84    -1.8  0     0     987.8    NA       0.0000   9999     5840  0     0    
2019/07/16  08:49:00  BASE  0.22932  102  0.9996   188  0.5   84    -1.9  0     0     987.7    NA       0.0000   9999     5910  0     0    
2019/07/16  08:50:00  BASE  0.69972  178  1.1172   188  0.5   83    -2.0  0     0     987.7    NA       0.0000   9999     6000  0     0    
2019/07/16  08:51:00  BASE  0.86436  201  1.1172   188  0.3   83    -2.1  0     0     987.7    NA       0.0000   9999     6140  0     0    
2019/07/16  08:52:00  BASE  0.81732  211  1.1172   188  0.2   84    -2.3  0     0     987.6    NA       0.0000   9999     5970  0     0    
2019/07/16  08:53:00  BASE  0.84672  215  1.1172   188  -0.0  84    -2.4  0     0     987.6    NA       0.0000   9999     5840  0     0    
2019/07/16  08:54:00  BASE  0.8526   214  1.1172   188  -0.3  86    -2.4  0     0     987.6    NA       0.0000   9999     5940  0     0    
2019/07/16  08:55:00  BASE  1.1466   203  1.66404  185  -0.4  87    -2.3  0     0     987.6    NA       0.0000   9999     6070  0     0    
2019/07/16  08:56:00  BASE  1.59348  182  1.90512  170  -0.6  89    -2.1  0     0     987.6    NA       0.0000   9999     5680  6330  0    
2019/07/16  08:57:00  BASE  1.72872  168  1.90512  170  -0.7  91    -2.0  0     0     987.5    NA       0.0000   9999     5580  0     0    
2019/07/16  08:58:00  BASE  1.45824  163  1.90512  170  -0.8  93    -1.7  0     0     987.4    NA       0.0000   9999     5840  0     0    
2019/07/16  08:59:00  BASE  1.1466   159  1.90512  170  -0.8  95    -1.5  0     0     987.4    NA       0.0000   9999     5410  0     0    
2019/07/16  09:00:00  BASE  1.44648  141  2.0874   125  -0.7  96    -1.3  0     0     987.5    NA       0.0000   9999     5580  0     0    
2019/07/16  09:01:00  BASE  1.85808  119  2.1756   124  -0.7  97    -1.1  0     0     987.6    NA       0.0000   9999     5610  0     0    
2019/07/16  09:02:00  BASE  1.78752  103  2.1756   124  -0.6  97    -1.0  0     0     987.5    NA       0.0000   9999     5480  0     0    
2019/07/16  09:03:00  BASE  1.54644  93   2.1756   124  -0.4  98    -0.8  0     0     987.4    NA       0.0000   9999     5380  0     0    
2019/07/16  09:04:00  BASE  1.764    106  2.48136  121  -0.3  97    -0.7  0     0     987.4    NA       0.0000   9999     5120  0     0    
2019/07/16  09:05:00  BASE  2.32848  126  3.2046   124  -0.2  96    -0.7  0     0     987.4    NA       0.0000   9999     4040  0     0    
2019/07/16  09:06:00  BASE  2.352    129  3.2046   124  0.0   94    -0.8  0     0     987.4    NA       0.0000   9999     5640  0     0    
2019/07/16  09:07:00  BASE  2.352    129  3.2046   124  0.2   92    -1.0  0     0     987.4    NA       0.0000   9999     5410  0     0    
2019/07/16  09:08:00  BASE  2.10504  146  3.2046   124  0.2   89    -1.3  0     0     987.3    NA       0.0000   9999     5480  0     0    
2019/07/16  09:09:00  BASE  1.58172  156  3.2046   124  0.2   87    -1.7  0     0     987.3    NA       0.0000   9999     5450  0     0    
2019/07/16  09:10:00  BASE  1.21128  140  3.2046   124  0.1   85    -2.1  0     0     987.3    NA       0.0000   9999     5410  0     0    
2019/07/16  09:11:00  BASE  1.18776  121  3.2046   124  -0.0  84    -2.4  0     0     987.3    NA       0.0000   9999     5540  0     0    
2019/07/16  09:12:00  BASE  1.8228   114  3.2046   124  -0.2  84    -2.5  0     0     987.3    NA       0.0000   9999     5480  0     0    
2019/07/16  09:13:00  BASE  2.01684  116  3.2046   124  -0.2  85    -2.5  0     0     987.3    NA       0.0000   9999     5480  0     0    
2019/07/16  09:14:00  BASE  2.10504  124  3.2046   124  -0.3  85    -2.4  0     0     987.3    NA       0.0000   9999     5350  0     0    
2019/07/16  09:15:00  BASE  2.42256  122  2.99292  140  -0.3  86    -2.3  0     0     987.3    NA       0.0000   9999     5380  0     0    
2019/07/16  09:16:00  BASE  2.45196  118  2.99292  140  -0.3  86    -2.3  0     0     987.3    NA       0.0000   9999     5450  0     0    
2019/07/16  09:17:00  BASE  2.69892  123  3.2046   124  -0.3  86    -2.3  0     0     987.3    NA       0.0000   9999     4530  0     0    
2019/07/16  09:18:00  BASE  3.28104  124  4.05132  113  -0.2  86    -2.3  0     0     987.3    NA       0.0000   9999     5350  0     0    
2019/07/16  09:19:00  BASE  3.6456   124  4.05132  113  -0.1  86    -2.2  0     0     987.3    NA       0.0000   9999     5320  0     0    
2019/07/16  09:20:00  BASE  3.60444  125  4.05132  113  -0.1  86    -2.2  0     0     987.2    NA       0.0000   9999     4070  0     0    
2019/07/16  09:21:00  BASE  3.66912  114  4.29828  112  0.0   86    -2.1  0     0     987.2    NA       0.0000   9999     5250  0     0    
2019/07/16  09:22:00  BASE  3.53976  110  4.29828  112  0.2   85    -2.0  0     0     987.2    NA       0.0000   9999     5180  0     0    
2019/07/16  09:23:00  BASE  3.02232  117  4.29828  112  0.2   84    -2.1  0     0     987.2    NA       0.0000   9999     5020  0     0    
2019/07/16  09:24:00  BASE  2.5578   127  4.29828  112  0.2   83    -2.3  0     0     987.2    NA       0.0000   9999     4990  0     0    
2019/07/16  09:25:00  BASE  2.14032  142  4.29828  112  0.1   83    -2.4  0     0     987.2    NA       0.0000   9999     4860  0     0    
2019/07/16  09:26:00  BASE  2.03448  147  4.29828  112  -0.0  83    -2.6  0     0     987.2    NA       0.0000   9999     5940  0     0    
2019/07/16  09:27:00  BASE  2.16972  146  4.29828  112  -0.2  84    -2.6  0     0     987.2    NA       0.0000   9999     5510  0     0    
2019/07/16  09:28:00  BASE  2.51076  151  4.29828  112  -0.4  85    -2.6  0     0     987.1    NA       0.0000   9999     5180  0     0    
2019/07/16  09:29:00  BASE  2.8812   157  4.29828  112  -0.5  86    -2.5  0     0     987.1    NA       0.0000   9999     5090  0     0    
2019/07/16  09:30:00  BASE  2.92824  155  4.29828  112  -0.5  87    -2.4  0     0     987.0    NA       0.0000   9999     4860  0     0    
2019/07/16  09:31:00  BASE  3.087    150  3.69264  116  -0.6  88    -2.2  0     0     987.0    NA       0.0000   9999     4820  0     0    
2019/07/16  09:32:00  BASE  2.98704  146  3.48096  144  -0.6  89    -2.1  0     0     987.0    NA       0.0000   9999     4760  0     0    
2019/07/16  09:33:00  BASE  3.16344  144  3.96312  142  -0.6  90    -2.0  0     0     987.0    NA       0.0000   9999     4820  0     0    
2019/07/16  09:34:01  BASE  3.80436  142  4.29828  143  -0.5  91    -1.9  0     0     987.0    NA       0.0000   9999     4790  0     0    
2019/07/16  09:35:01  BASE  4.21596  141  5.08032  139  -0.4  91    -1.7  0     0     987.0    NA       0.0000   9999     4790  0     0    
2019/07/16  09:36:00  BASE  4.3218   139  5.08032  139  -0.3  91    -1.5  0     0     987.0    NA       0.0000   9999     4860  0     0    
2019/07/16  09:37:01  BASE  3.7926   137  5.08032  139  -0.1  91    -1.4  0     0     987.0    NA       0.0000   9999     4660  0     0    
2019/07/16  09:38:01  BASE  3.43392  135  5.08032  139  0.1   90    -1.3  0     0     986.9    NA       0.0000   9999     4660  0     0    
2019/07/16  09:39:01  BASE  3.60444  125  5.08032  139  0.2   89    -1.3  0     0     986.9    NA       0.0000   9999     4720  0     0    
2019/07/16  09:40:01  BASE  3.01644  116  5.08032  139  0.4   88    -1.3  0     0     986.8    NA       0.0000   9999     4560  0     0    
2019/07/16  09:41:01  BASE  2.46372  105  5.08032  139  0.5   87    -1.4  0     0     986.8    NA       0.0000   9999     4660  0     0    
2019/07/16  09:42:01  BASE  3.56916  97   5.47428  82   0.6   86    -1.4  0     0     986.8    NA       0.0000   9999     4430  0     0    
2019/07/16  09:43:01  BASE  4.37472  99   5.47428  82   0.8   85    -1.5  0     0     986.8    NA       0.0000   9999     4300  0     0    
2019/07/16  09:44:01  BASE  4.51584  94   5.47428  82   1.0   83    -1.6  0     0     986.8    NA       0.0000   9999     4200  0     0    
2019/07/16  09:45:01  BASE  4.85688  88   5.47428  82   1.2   81    -1.7  0     0     986.8    NA       0.0000   9999     4040  0     0    
2019/07/16  09:46:01  BASE  5.15676  88   6.41508  90   1.4   79    -1.9  0     0     986.8    NA       0.0000   9999     3970  0     0    
2019/07/16  09:47:00  BASE  5.50368  93   6.41508  90   1.4   78    -2.1  0     0     986.7    NA       0.0000   9999     4000  0     0    
2019/07/16  09:48:00  BASE  6.12696  91   7.2618   78   1.4   77    -2.2  0     0     986.7    NA       0.0000   9999     3900  0     0    
2019/07/16  09:49:00  BASE  7.00308  88   7.86744  88   1.3   78    -2.2  0     0     986.7    NA       0.0000   9999     4100  0     0    
2019/07/16  09:50:00  BASE  7.056    89   7.86744  88   1.2   78    -2.1  0     0     986.6    NA       0.0000   9999     3970  0     0    
2019/07/16  09:51:00  BASE  6.4092   94   7.86744  88   1.2   79    -2.0  0     0     986.7    NA       0.0000   9999     3970  0     0    
2019/07/16  09:52:00  BASE  6.07992  99   7.86744  88   1.2   80    -1.9  0     0     986.7    NA       0.0000   9999     4170  0     0    
2019/07/16  09:53:00  BASE  6.03876  97   7.86744  88   1.2   80    -1.8  0     0     986.7    NA       0.0000   9999     4200  0     0    
2019/07/16  09:54:00  BASE  6.06228  91   7.86744  88   1.2   80    -1.8  0     0     986.7    NA       0.0000   9999     3640  0     0    
2019/07/16  09:55:00  BASE  6.23868  91   8.25552  83   1.3   80    -1.8  0     0     986.7    NA       0.0000   9999     3640  0     0    
2019/07/16  09:56:00  BASE  7.02072  92   8.50248  87   1.3   80    -1.8  0     0     986.6    NA       0.0000   9999     3580  0     0    
2019/07/16  09:57:00  BASE  7.3794   92   8.50248  87   1.3   80    -1.8  0     0     986.6    NA       0.0000   9999     3740  0     0    
2019/07/16  09:58:00  BASE  6.84432  95   8.50248  87   1.3   80    -1.8  0     0     986.6    NA       0.0000   9999     3740  0     0    
2019/07/16  09:59:00  BASE  6.78552  96   8.50248  87   1.2   80    -1.8  0     0     986.6    NA       0.0000   9999     3610  0     0    
2019/07/16  10:00:00  BASE  6.71496  99   8.50248  87   1.1   81    -1.7  0     0     986.6    NA       0.0000   9999     3610  0     0    
2019/07/16  10:01:00  BASE  6.42096  104  8.50248  87   1.1   81    -1.7  0     0     986.6    NA       0.0000   9999     3380  0     0    
2019/07/16  10:02:00  BASE  6.07404  105  8.50248  87   1.1   82    -1.7  0     0     986.7    NA       0.0000   9999     3310  0     0    
2019/07/16  10:03:00  BASE  5.24496  109  8.50248  87   1.1   82    -1.6  0     0     986.7    NA       0.0000   9999     3640  0     0    
2019/07/16  10:04:00  BASE  4.7334   122  8.50248  87   1.2   82    -1.6  0     0     986.7    NA       0.0000   9999     3450  0     0    
2019/07/16  10:05:00  BASE  5.25084  134  8.50248  87   1.2   82    -1.6  0     0     986.6    NA       0.0000   9999     4000  0     0    
2019/07/16  10:06:00  BASE  5.70948  140  7.50288  95   1.2   82    -1.6  0     0     986.6    NA       0.0000   9999     4000  0     0    
2019/07/16  10:07:00  BASE  5.44488  142  7.3206   107  1.2   81    -1.6  0     0     986.6    NA       0.0000   9999     3770  0     0    
2019/07/16  10:08:01  BASE  5.56836  139  7.3206   107  1.2   81    -1.7  0     0     986.6    NA       0.0000   9999     3280  0     0    
2019/07/16  10:09:01  BASE  5.76828  135  7.3206   107  1.1   82    -1.7  0     0     986.6    NA       0.0000   9999     3580  0     0    
2019/07/16  10:10:01  BASE  5.31552  138  7.07952  100  1.1   82    -1.6  0     0     986.6    NA       0.0000   9999     3900  0     0    
2019/07/16  10:11:01  BASE  4.88628  136  6.68556  140  1.0   83    -1.6  0     0     986.6    NA       0.0000   9999     3940  0     0    
2019/07/16  10:12:01  BASE  5.27436  128  6.89724  129  1.0   83    -1.5  0     0     986.6    NA       0.0000   9999     3770  0     0    
2019/07/16  10:13:01  BASE  6.02112  128  6.89724  129  1.0   83    -1.5  0     0     986.6    NA       0.0000   9999     3940  0     0    
2019/07/16  10:14:01  BASE  5.83884  128  6.89724  129  1.0   83    -1.5  0     0     986.6    NA       0.0000   9999     4920  0     0    
2019/07/16  10:15:01  BASE  5.20968  113  6.89724  129  1.0   84    -1.4  0     0     986.6    NA       0.0000   9999     5180  0     0    
2019/07/16  10:16:01  BASE  5.48016  108  7.4088   123  1.1   84    -1.4  0     0     986.5    NA       0.0000   9999     5120  0     0    
2019/07/16  10:17:01  BASE  5.66832  122  7.4088   123  1.1   84    -1.4  0     0     986.5    NA       0.0000   9999     3770  0     0    
2019/07/16  10:18:01  BASE  5.145    128  7.4088   123  1.1   84    -1.4  0     0     986.5    NA       0.0000   9999     4860  0     0    
2019/07/16  10:19:01  BASE  4.72164  125  7.4088   123  1.1   83    -1.4  0     0     986.5    NA       0.0000   9999     4360  0     0    
2019/07/16  10:20:01  BASE  4.71576  127  7.4088   123  1.1   83    -1.4  0     0     986.5    NA       0.0000   9999     4200  0     0    
2019/07/16  10:21:01  BASE  4.7334   128  7.4088   123  1.0   83    -1.5  0     0     986.5    NA       0.0000   9999     4070  0     0    
2019/07/16  10:22:01  BASE  4.5276   122  7.4088   123  1.0   84    -1.5  0     0     986.4    NA       0.0000   9999     4860  0     0    
2019/07/16  10:23:00  BASE  4.27476  121  7.4088   123  0.9   84    -1.5  0     0     986.4    NA       0.0000   9999     5020  0     0    
2019/07/16  10:24:00  BASE  3.969    122  7.4088   123  0.9   84    -1.4  0     0     986.4    NA       0.0000   9999     5020  0     0    
2019/07/16  10:25:00  BASE  4.07484  121  7.4088   123  0.9   85    -1.4  0     0     986.4    NA       0.0000   9999     4920  0     0    
2019/07/16  10:26:00  BASE  4.5864   122  5.74476  127  0.9   85    -1.3  0     0     986.4    NA       0.0000   9999     4990  0     0    
2019/07/16  10:27:00  BASE  4.65696  125  5.74476  127  0.9   85    -1.3  0     0     986.3    NA       0.0000   9999     5020  0     0    
2019/07/16  10:28:00  BASE  4.52172  125  5.74476  127  1.0   85    -1.3  0     0     986.3    NA       0.0000   9999     5640  0     0    
2019/07/16  10:29:00  BASE  4.72752  121  5.74476  127  1.0   84    -1.3  0     0     986.3    NA       0.0000   9999     5280  0     0    
2019/07/16  10:30:00  BASE  4.704    118  5.74476  127  1.0   84    -1.3  0     0     986.2    NA       0.0000   9999     4920  0     0    
2019/07/16  10:31:00  BASE  4.41588  115  5.74476  127  1.1   84    -1.4  0     0     986.2    NA       0.0000   9999     5540  0     0    
2019/07/16  10:32:00  BASE  3.87492  111  5.74476  127  1.1   84    -1.4  0     0     986.2    NA       0.0000   9999     6200  0     0    
2019/07/16  10:33:00  BASE  3.33396  108  5.74476  127  1.1   83    -1.4  0     0     986.2    NA       0.0000   9999     4950  0     0    
2019/07/16  10:34:00  BASE  3.19284  109  5.74476  127  1.1   83    -1.4  0     0     986.2    NA       0.0000   9999     4530  0     0    
2019/07/16  10:35:00  BASE  3.03408  114  5.74476  127  1.1   83    -1.5  0     0     986.2    NA       0.0000   9999     6500  0     0    
2019/07/16  10:36:00  BASE  2.56368  111  5.145    116  1.1   83    -1.5  0     0     986.2    NA       0.0000   9999     4430  0     0    
2019/07/16  10:37:00  BASE  2.04624  102  5.145    116  1.1   82    -1.5  0     0     986.2    NA       0.0000   9999     4360  0     0    
2019/07/16  10:38:00  BASE  1.66992  100  5.145    116  1.1   82    -1.6  0     0     986.2    NA       0.0000   9999     4270  0     0    
2019/07/16  10:39:00  BASE  1.2642   88   4.99212  113  1.1   82    -1.6  0     0     986.2    NA       0.0000   9999     4270  0     0    
2019/07/16  10:40:00  BASE  0.91728  28   4.38648  112  1.1   82    -1.6  0     0     986.2    NA       0.0000   9999     4270  0     0    
2019/07/16  10:41:00  BASE  1.22304  335  4.02192  114  1.0   82    -1.7  0     0     986.1    NA       0.0000   9999     4200  0     0    
2019/07/16  10:42:01  BASE  1.60524  334  3.59856  106  0.9   82    -1.8  0     0     986.0    NA       0.0000   9999     4270  0     0    
2019/07/16  10:43:01  BASE  2.3814   340  4.116    340  0.7   83    -1.9  0     0     986.0    NA       0.0000   9999     4300  0     0    
2019/07/16  10:44:01  BASE  3.55152  339  4.41588  342  0.5   83    -2.0  0     0     986.0    NA       0.0000   9999     4490  0     0    
2019/07/16  10:45:01  BASE  3.38688  342  4.41588  342  0.2   84    -2.2  0     0     986.0    NA       0.0000   9999     4170  0     0    
2019/07/16  10:46:01  BASE  2.28144  352  4.41588  342  0.0   85    -2.1  0     0     986.0    NA       0.0000   9999     4070  0     0    
2019/07/16  10:47:01  BASE  2.22852  354  4.41588  342  -0.1  87    -2.1  0     0     986.0    NA       0.0000   9999     3970  0     0    
2019/07/16  10:48:01  BASE  3.21048  348  4.41588  342  -0.1  88    -2.0  0     0     986.0    NA       0.0000   9999     3740  0     0    
2019/07/16  10:49:01  BASE  4.2924   348  5.3214   349  -0.2  88    -1.9  0     0     986.0    NA       0.0000   9999     3510  0     0    
2019/07/16  10:50:01  BASE  4.77456  345  5.3214   349  -0.2  89    -1.8  0     0     986.0    NA       0.0000   9999     3510  0     0    
2019/07/16  10:51:01  BASE  4.6452   339  5.3214   349  -0.2  89    -1.7  0     0     986.0    NA       0.0000   9999     3580  0     0    
2019/07/16  10:52:01  BASE  4.68048  336  5.3214   349  -0.2  90    -1.7  0     0     986.0    NA       0.0000   9999     3480  0     0    
2019/07/16  10:53:01  BASE  4.63344  334  5.3214   349  -0.1  90    -1.6  0     0     986.0    NA       0.0000   9999     3450  0     0    
2019/07/16  10:54:01  BASE  4.44528  332  5.3214   349  -0.1  90    -1.6  0     0     986.0    NA       0.0000   9999     3410  0     0    
2019/07/16  10:55:01  BASE  4.4688   331  5.3214   349  -0.2  90    -1.6  0     0     986.0    NA       0.0000   9999     3150  0     0    
2019/07/16  10:56:01  BASE  4.59816  331  5.3214   349  -0.2  90    -1.7  0     0     986.0    NA       0.0000   9999     3050  0     0    
2019/07/16  10:57:01  BASE  4.57464  330  5.3214   349  -0.2  90    -1.6  0     0     985.9    NA       0.0000   9999     3050  0     0    
2019/07/16  10:58:01  BASE  4.55112  327  5.3214   349  -0.2  90    -1.6  0     0     985.9    NA       0.0000   9999     2790  0     0    
2019/07/16  10:59:00  BASE  4.62168  325  5.08032  335  -0.2  91    -1.6  0     0     985.8    NA       0.0000   9999     0     0     0    
2019/07/16  11:00:00  BASE  4.704    327  5.08032  335  -0.2  91    -1.6  0     0     985.8    NA       0.0000   9999     0     0     0    
2019/07/16  11:01:00  BASE  4.83336  329  5.08032  335  -0.2  91    -1.5  0     0     985.8    NA       0.0000   9999     0     0     0    
2019/07/16  11:02:00  BASE  4.84512  329  5.05092  327  -0.2  91    -1.5  0     0     985.8    NA       0.0000   9999     0     0     0    
2019/07/16  11:03:00  BASE  4.51584  332  5.05092  327  -0.3  92    -1.5  0     0     985.8    NA       0.0000   9999     0     0     0    
2019/07/16  11:04:00  BASE  3.91608  339  5.05092  327  -0.3  92    -1.4  0     0     985.9    NA       0.0000   9999     0     0     0    
2019/07/16  11:05:00  BASE  3.90432  341  5.05092  327  -0.3  92    -1.4  0     0     985.8    NA       0.0000   9999     0     0     0    
2019/07/16  11:06:00  BASE  4.2336   335  5.05092  327  -0.3  93    -1.3  0     0     985.8    NA       0.0000   9999     3180  0     0    
2019/07/16  11:07:00  BASE  4.06896  332  5.05092  327  -0.3  93    -1.3  0     0     985.8    NA       0.0000   9999     2950  0     0    
2019/07/16  11:08:00  BASE  3.6162   329  5.05092  327  -0.4  93    -1.3  0     0     985.8    NA       0.0000   9999     0     0     0    
2019/07/16  11:09:00  BASE  3.22812  329  5.05092  327  -0.4  94    -1.3  0     0     985.8    NA       0.0000   9999     0     0     0    
2019/07/16  11:10:00  BASE  2.91648  329  5.05092  327  -0.4  94    -1.2  0     0     985.8    NA       0.0000   9999     0     0     0    
2019/07/16  11:11:01  BASE  2.84004  324  5.05092  327  -0.4  94    -1.2  0     0     985.8    NA       0.0000   9999     0     0     0    
2019/07/16  11:12:00  BASE  2.84004  319  4.44528  332  -0.4  95    -1.2  0     0     985.8    NA       0.0000   9999     0     0     0    
2019/07/16  11:13:00  BASE  2.36964  314  4.38648  335  -0.5  95    -1.2  0     0     985.8    NA       0.0000   9999     0     0     0    
2019/07/16  11:14:00  BASE  1.49352  294  4.38648  335  -0.5  95    -1.1  0     0     985.8    NA       0.0000   9999     0     0     0    
2019/07/16  11:15:00  BASE  1.92276  166  4.35708  336  -0.5  96    -1.1  0     0     985.8    NA       0.0000   9999     0     0     0    
2019/07/16  11:16:01  BASE  2.78712  147  4.2042   335  -0.5  96    -1.1  0     0     985.8    NA       0.0000   9999     0     0     0    
2019/07/16  11:17:01  BASE  2.53428  147  3.65736  330  -0.5  96    -1.1  0     0     985.8    NA       0.0000   UP       9999  4040  0    
2019/07/16  11:18:01  BASE  2.15796  164  3.29868  330  -0.5  96    -1.1  0     0     985.8    NA       0.0000   UP       9999  3970  0    
2019/07/16  11:19:01  BASE  1.64052  188  3.1164   330  -0.5  96    -1.0  0     0     985.8    NA       0.0000   UP       9999  0     0    
2019/07/16  11:20:01  BASE  0.81732  243  3.087    149  -0.5  96    -1.0  0     0     985.8    NA       0.0000   UP       9999  0     0    
2019/07/16  11:21:01  BASE  0.69384  280  3.087    149  -0.4  96    -1.0  0     0     985.8    NA       0.0000   UP       9999  1870  0    
2019/07/16  11:22:01  BASE  0.9996   294  3.087    149  -0.4  96    -1.0  0     0     985.8    NA       0.0000   UP       9999  0     0    
2019/07/16  11:23:01  BASE  1.18776  315  3.087    149  -0.4  95    -1.0  0     0     985.7    NA       0.0000   UP       9999  0     0    
2019/07/16  11:24:01  BASE  1.44648  321  3.087    149  -0.4  95    -1.0  0     0     985.7    NA       0.0000   UP       9999  3900  0    
2019/07/16  11:25:01  BASE  1.52292  311  2.99292  136  -0.3  95    -1.1  0     0     985.7    NA       0.0000   UP       9999  3870  0    
2019/07/16  11:26:01  BASE  1.63464  304  2.56956  151  -0.3  94    -1.1  0     0     985.7    NA       0.0000   UP       9999  3810  0    
2019/07/16  11:27:01  BASE  1.62876  308  2.32848  172  -0.3  94    -1.1  0     0     985.6    NA       0.0000   9999     3840  0     0    
2019/07/16  11:28:01  BASE  1.4112   312  2.058    189  -0.2  94    -1.2  0     0     985.6    NA       0.0000   9999     3900  0     0    
2019/07/16  11:29:01  BASE  1.12308  309  1.93452  298  -0.3  93    -1.2  0     0     985.6    NA       0.0000   9999     3900  0     0    
2019/07/16  11:30:01  BASE  0.95256  304  1.93452  298  -0.3  93    -1.3  0     0     985.5    NA       0.0000   9999     3900  0     0    
2019/07/16  11:31:01  BASE  0.90552  302  1.93452  298  -0.3  93    -1.3  0     0     985.4    NA       0.0000   9999     0     0     0    
2019/07/16  11:32:01  BASE  0.93492  301  1.93452  298  -0.4  93    -1.3  0     0     985.4    NA       0.0000   9999     0     0     0    
2019/07/16  11:33:01  BASE  0.9996   297  1.93452  298  -0.4  94    -1.3  0     0     985.4    NA       0.0000   9999     0     0     0    
2019/07/16  11:34:01  BASE  1.01724  301  1.93452  298  -0.4  94    -1.2  0     0     985.4    NA       0.0000   9999     0     0     0    
2019/07/16  11:35:01  BASE  1.01724  306  1.90512  299  -0.4  95    -1.2  0     0     985.4    NA       0.0000   9999     0     0     0    
2019/07/16  11:36:01  BASE  0.88788  297  1.78752  315  -0.4  95    -1.1  0     0     985.4    NA       0.0000   9999     0     0     0    
2019/07/16  11:37:01  BASE  0.69972  285  1.54056  318  -0.4  95    -1.1  0     0     985.4    NA       0.0000   9999     0     0     0    
2019/07/16  11:38:01  BASE  0.74088  285  1.35828  297  -0.4  95    -1.1  0     0     985.4    NA       0.0000   9999     0     0     0    
2019/07/16  11:39:01  BASE  0.84084  288  1.35828  297  -0.4  95    -1.1  0     0     985.4    NA       0.0000   9999     0     0     0    
2019/07/16  11:40:01  BASE  0.87612  292  1.35828  297  -0.4  95    -1.1  0     0     985.4    NA       0.0000   9999     0     0     0    
2019/07/16  11:41:00  BASE  0.81732  298  1.24068  311  -0.4  95    -1.1  0     0     985.4    NA       0.0000   9999     0     0     0    
2019/07/16  11:42:00  BASE  0.79968  306  1.24068  311  -0.4  95    -1.1  0     0     985.4    NA       0.0000   9999     0     0     0    
2019/07/16  11:43:00  BASE  0.88788  317  1.24068  311  -0.4  95    -1.1  0     0     985.4    NA       0.0000   9999     0     0     0    
2019/07/16  11:44:00  BASE  1.01724  332  1.24068  346  -0.4  95    -1.1  0     0     985.4    NA       0.0000   9999     0     0     0    
2019/07/16  11:45:00  BASE  1.11132  344  1.24068  346  -0.4  95    -1.1  0     0     985.4    NA       0.0000   9999     0     0     0    
2019/07/16  11:46:00  BASE  1.1466   347  1.24068  347  -0.4  95    -1.1  0     0     985.4    NA       0.0000   9999     0     0     0    
2019/07/16  11:47:00  BASE  1.1172   354  1.24068  347  -0.4  95    -1.1  0     0     985.4    NA       0.0000   9999     0     0     0    
2019/07/16  11:48:01  BASE  1.03488  3    1.24068  347  -0.4  95    -1.1  0     0     985.4    NA       0.0000   9999     0     0     0    
2019/07/16  11:49:01  BASE  1.029    6    1.24068  347  -0.4  95    -1.1  0     0     985.4    NA       0.0000   9999     0     0     0    
2019/07/16  11:50:01  BASE  1.04076  6    1.24068  347  -0.4  95    -1.1  0     0     985.3    NA       0.0000   9999     0     0     0    
2019/07/16  11:51:01  BASE  1.07016  4    1.24068  347  -0.4  95    -1.1  0     0     985.3    NA       0.0000   9999     0     0     0    
2019/07/16  11:52:01  BASE  1.09368  357  1.24068  347  -0.4  95    -1.1  0     0     985.3    NA       0.0000   9999     0     0     0    
2019/07/16  11:53:01  BASE  1.0878   350  1.24068  347  -0.4  95    -1.1  0     0     985.3    NA       0.0000   9999     0     0     0    
2019/07/16  11:54:01  BASE  1.04076  340  1.24068  347  -0.4  95    -1.1  0     0     985.3    NA       0.0000   9999     0     0     0    
2019/07/16  11:55:01  BASE  0.89964  336  1.24068  347  -0.3  95    -1.1  0     0     985.3    NA       0.0000   UP       9999  0     0    
2019/07/16  11:56:01  BASE  0.77028  351  1.21128  348  -0.3  95    -1.1  0     0     985.3    NA       0.0000   UP       9999  0     0    
2019/07/16  11:57:01  BASE  0.71736  3    1.21128  348  -0.3  94    -1.1  0     0     985.3    NA       0.0000   UP       9999  0     0    
2019/07/16  11:58:01  BASE  0.72912  2    1.21128  348  -0.4  94    -1.2  0     0     985.3    NA       0.0000   UP       9999  0     0    
2019/07/16  11:59:01  BASE  0.82908  3    1.21128  348  -0.4  94    -1.2  0     0     985.3    NA       0.0000   UP       9000  0     0    
2019/07/16  12:00:01  BASE  1.02312  11   1.24068  18   -0.4  94    -1.2  0     0     985.3    NA       0.0000   UP       8000  0     0    
2019/07/16  12:01:01  BASE  1.2054   25   1.35828  42   -0.4  95    -1.2  0     0     985.3    NA       0.0000   UP       9000  0     0    
2019/07/16  12:02:01  BASE  1.31712  39   1.48176  45   -0.4  95    -1.1  0     0     985.1    NA       0.0000   UP       9999  0     0    
2019/07/16  12:03:01  BASE  1.3818   42   1.48176  41   -0.4  95    -1.1  0     0     985.2    NA       0.0000   UP       9999  0     0    
2019/07/16  12:04:01  BASE  1.37004  37   1.48176  41   -0.5  95    -1.2  0     0     985.2    NA       0.0000   UP       9999  0     0    
2019/07/16  12:05:01  BASE  1.33476  31   1.48176  41   -0.5  95    -1.2  0     0     985.2    NA       0.0000   UP       BR    9000  0    
2019/07/16  12:06:01  BASE  1.31712  28   1.48176  41   -0.5  95    -1.2  0     0     985.2    NA       0.0000   UP       BR    9999  0    
2019/07/16  12:07:01  BASE  1.3524   29   1.48176  35   -0.6  96    -1.2  0     0     985.2    NA       0.0000   UP       BR    9999  0    
2019/07/16  12:08:01  BASE  1.48176  33   1.63464  33   -0.6  96    -1.2  0     0     985.0    NA       0.0000   UP       BR    9999  0    
2019/07/16  12:09:01  BASE  1.5876   39   1.69344  42   -0.6  96    -1.1  0     0     985.1    NA       0.0000   UP       BR    9999  0    
2019/07/16  12:10:01  BASE  1.49352  49   1.69344  42   -0.6  96    -1.1  0     0     985.1    NA       0.0000   UP       BR    9999  0    
2019/07/16  12:11:01  BASE  1.30536  56   1.69344  42   -0.6  97    -1.0  0     0     985.1    NA       0.0000   UP       BR    9999  0    
2019/07/16  12:12:01  BASE  1.18188  47   1.69344  42   -0.5  97    -1.0  0     0     985.1    NA       0.0000   UP       BR    9999  0    
2019/07/16  12:13:01  BASE  1.19952  31   1.69344  42   -0.5  97    -0.9  0     0     985.0    NA       0.0000   UP       BR    9999  0    
2019/07/16  12:14:01  BASE  1.29948  19   1.69344  42   -0.5  97    -0.9  0     0     984.9    NA       0.0000   UP       BR    9999  0    
2019/07/16  12:15:01  BASE  1.3524   14   1.69344  42   -0.4  97    -0.9  0     0     984.9    NA       0.0000   UP       9999  0     0    
2019/07/16  12:16:01  BASE  1.37592  17   1.69344  42   -0.4  97    -0.8  0     0     984.9    NA       0.0000   UP       9999  0     0    
2019/07/16  12:17:01  BASE  1.30536  27   1.69344  42   -0.4  97    -0.9  0     0     984.8    NA       0.0000   UP       9999  0     0    
2019/07/16  12:18:01  BASE  1.16424  38   1.69344  42   -0.5  97    -0.9  0     0     984.8    NA       0.0000   UP       9999  0     0    
2019/07/16  12:19:01  BASE  1.01724  40   1.57584  17   -0.5  97    -0.9  0     0     984.8    NA       0.0000   UP       9999  0     0    
2019/07/16  12:20:00  BASE  0.88788  27   1.57584  17   -0.5  97    -0.8  0     0     984.8    NA       0.0000   UP       9999  3540  0    
2019/07/16  12:21:00  BASE  0.89964  10   1.57584  17   -0.5  98    -0.8  0     0     984.8    NA       0.0000   UP       9999  3280  0    
2019/07/16  12:22:00  BASE  1.16424  3    1.57584  17   -0.4  98    -0.7  0     0     984.8    NA       0.0000   UP       9999  3480  0    
2019/07/16  12:23:00  BASE  1.45824  9    1.78752  16   -0.4  98    -0.7  0     0     984.8    NA       0.0000   UP       9999  5020  0    
2019/07/16  12:24:01  BASE  1.74048  20   2.0874   30   -0.4  98    -0.7  0     0     984.7    NA       0.0000   UP       9999  2490  0    
2019/07/16  12:25:00  BASE  2.07564  32   2.32848  36   -0.4  98    -0.7  0     0     984.7    NA       0.0000   UP       9999  5910  0    
2019/07/16  12:26:00  BASE  2.19324  40   2.32848  36   -0.5  98    -0.8  0     0     984.7    NA       0.0000   9999     6170  0     0    
2019/07/16  12:27:00  BASE  2.0874   47   2.32848  36   -0.6  98    -0.9  0     0     984.7    NA       0.0000   9999     7120  0     0    
2019/07/16  12:28:00  BASE  1.79928  53   2.32848  36   -0.7  98    -1.0  0     0     984.7    NA       0.0000   9999     8630  0     0    
2019/07/16  12:29:00  BASE  1.3818   50   2.32848  36   -0.8  99    -1.0  0     0     984.7    NA       0.0000   9999     3670  0     0    
2019/07/16  12:30:00  BASE  1.00548  38   2.32848  36   -0.8  99    -1.0  0     0     984.7    NA       0.0000   9999     3710  0     0    
2019/07/16  12:31:00  BASE  0.91728  32   2.32848  36   -0.8  99    -0.9  0     0     984.6    NA       0.0000   9999     9350  0     0    
2019/07/16  12:32:00  BASE  1.19952  31   2.32848  36   -0.8  100   -0.8  0     0     984.6    NA       0.0000   9999     3900  0     0    
2019/07/16  12:33:00  BASE  1.44648  35   2.32848  36   -0.7  100   -0.7  0     0     984.6    NA       0.0000   9999     3670  0     0    
2019/07/16  12:34:00  BASE  1.49352  39   2.32848  36   -0.7  100   -0.7  0     0     984.6    NA       0.0000   9999     4300  0     0    
2019/07/16  12:35:00  BASE  1.41708  21   2.24028  42   -0.6  100   -0.6  0     0     984.5    NA       0.0000   9999     4100  5120  0    
2019/07/16  12:36:00  BASE  1.47     13   2.1168   44   -0.6  100   -0.6  0     0     984.6    NA       0.0000   9999     4270  5090  0    
2019/07/16  12:37:00  BASE  1.74636  23   1.9992   18   -0.6  100   -0.6  0     0     984.5    NA       0.0000   9999     4460  0     0    
2019/07/16  12:38:00  BASE  1.80516  16   2.058    12   -0.6  100   -0.6  0     0     984.5    NA       0.0000   9999     4490  0     0    
2019/07/16  12:39:00  BASE  1.63464  25   2.058    12   -0.6  100   -0.6  0     0     984.5    NA       0.0000   9999     4720  5710  0    
2019/07/16  12:40:00  BASE  1.5288   48   2.058    12   -0.6  100   -0.6  0     0     984.5    NA       0.0000   9999     4920  0     0    
2019/07/16  12:41:00  BASE  1.37592  42   2.058    12   -0.6  100   -0.6  0     0     984.5    NA       0.0000   9999     4920  5810  0    
2019/07/16  12:42:00  BASE  1.0878   16   2.058    12   -0.6  100   -0.6  0     0     984.4    NA       0.0000   9999     4790  5770  0    
2019/07/16  12:43:00  BASE  0.55272  358  2.058    12   -0.6  100   -0.6  0     0     984.3    NA       0.0000   9999     3740  4950  0    
2019/07/16  12:44:00  BASE  0.22932  346  2.058    12   -0.5  100   -0.5  0     0     984.3    NA       0.0000   9999     3710  0     0    
2019/07/16  12:45:00  BASE  0.59976  329  2.058    12   -0.5  100   -0.5  0     0     984.2    NA       0.0000   9999     3710  0     0    
2019/07/16  12:46:00  BASE  1.029    336  2.058    12   -0.4  100   -0.4  0     0     984.2    NA       0.0000   9999     4890  6630  0    
2019/07/16  12:47:00  BASE  1.34064  2    2.058    12   -0.4  100   -0.4  0     0     984.2    NA       0.0000   9999     4820  0     0    
2019/07/16  12:48:00  BASE  1.54644  14   1.75224  12   -0.4  100   -0.4  0     0     984.2    NA       0.0000   9999     7550  0     0    
2019/07/16  12:49:00  BASE  1.5582   19   1.75224  12   -0.4  100   -0.4  0     0     984.2    NA       0.0000   9999     4660  0     0    
2019/07/16  12:50:00  BASE  1.66992  16   1.90512  8    -0.4  100   -0.4  0     0     984.2    NA       0.0000   9999     3770  4820  0    
2019/07/16  12:51:00  BASE  1.68168  358  1.90512  8    -0.5  100   -0.5  0     0     984.2    NA       0.0000   9999     3740  5870  0    
2019/07/16  12:52:00  BASE  1.28184  345  1.90512  8    -0.5  100   -0.5  0     0     984.1    NA       0.0000   9999     4690  0     0    
2019/07/16  12:53:00  BASE  0.54684  355  1.90512  8    -0.5  100   -0.5  0     0     984.1    NA       0.0000   9999     3610  0     0    
2019/07/16  12:54:00  BASE  0.1176   357  1.90512  8    -0.5  100   -0.5  0     0     984.1    NA       0.0000   9999     3310  0     0    
2019/07/16  12:55:00  BASE  0.45864  324  1.90512  8    -0.4  100   -0.4  0     0     984.1    NA       0.0000   9999     4920  0     0    
2019/07/16  12:56:00  BASE  0.81732  321  1.90512  8    -0.4  100   -0.4  0     0     984.1    NA       0.0000   9999     4590  5020  0    
2019/07/16  12:57:00  BASE  0.9702   350  1.90512  8    -0.4  100   -0.4  0     0     984.1    NA       0.0000   9999     4590  5320  0    
2019/07/16  12:58:00  BASE  1.08192  1    1.90512  8    -0.4  100   -0.4  0     0     984.1    NA       0.0000   9999     4760  0     0    
2019/07/16  12:59:00  BASE  1.15248  357  1.90512  8    -0.4  100   -0.4  0     0     984.0    NA       0.0000   9999     4820  0     0    
2019/07/16  13:00:01  BASE  1.27596  352  1.78752  349  -0.4  100   -0.4  0     0     984.0    NA       0.0000   9999     4920  0     0    
2019/07/16  13:01:01  BASE  1.4112   354  1.78752  1    -0.4  100   -0.4  0     0     984.0    NA       0.0000   9999     5020  0     0    
2019/07/16  13:02:01  BASE  1.53468  2    1.78752  1    -0.5  100   -0.5  0     0     984.0    NA       0.0000   9999     5120  0     0    
2019/07/16  13:03:01  BASE  1.46412  12   1.78752  1    -0.5  100   -0.5  0     0     984.0    NA       0.0000   9999     5250  0     0    
2019/07/16  13:04:01  BASE  1.28772  2    1.78752  1    -0.5  100   -0.5  0     0     984.0    NA       0.0000   9999     5350  0     0    
2019/07/16  13:05:01  BASE  1.1172   341  1.78752  1    -0.5  100   -0.5  0     0     984.0    NA       0.0000   9999     5510  0     0    
2019/07/16  13:06:01  BASE  0.98784  332  1.78752  1    -0.5  100   -0.5  0     0     984.0    NA       0.0000   9999     5680  0     0    
2019/07/16  13:07:01  BASE  1.19952  340  1.78752  1    -0.5  100   -0.5  1     0     984.0    NA       0.0000   9999     7220  0     0    
2019/07/16  13:08:01  BASE  1.39944  348  1.78752  1    -0.5  100   -0.5  1     0     984.0    NA       0.0000   9999     3540  0     0    
2019/07/16  13:09:01  BASE  1.2348   344  1.78752  1    -0.4  100   -0.4  1     0     984.0    NA       0.0000   9999     7710  0     0    
2019/07/16  13:10:01  BASE  1.50528  331  2.24028  319  -0.5  100   -0.5  1     0     983.9    NA       0.0000   9999     7510  0     0    
2019/07/16  13:11:01  BASE  2.04624  325  2.42256  328  -0.5  100   -0.5  1     0     983.9    NA       0.0000   9999     7610  0     0    
2019/07/16  13:12:01  BASE  2.35788  328  2.59896  331  -0.5  100   -0.5  1     0     983.9    NA       0.0000   9999     7640  0     0    
2019/07/16  13:13:01  BASE  2.52252  332  2.69304  332  -0.6  100   -0.6  1     0     983.9    NA       0.0000   9999     8040  0     0    
2019/07/16  13:14:01  BASE  2.45196  329  2.69304  332  -0.6  100   -0.6  1     0     983.9    NA       0.0000   9999     8270  0     0    
2019/07/16  13:15:01  BASE  2.27556  320  2.69304  332  -0.6  100   -0.6  1     0     983.9    NA       0.0000   9999     4270  0     0    
2019/07/16  13:16:01  BASE  2.16972  315  2.69304  332  -0.7  100   -0.7  1     0     983.9    NA       0.0000   9999     4950  0     0    
2019/07/16  13:17:01  BASE  1.98744  320  2.69304  332  -0.7  100   -0.7  1     0     983.9    NA       0.0000   9999     3940  0     0    
2019/07/16  13:18:01  BASE  1.9404   328  2.69304  332  -0.7  100   -0.7  1     0     983.9    NA       0.0000   9999     3900  0     0    
2019/07/16  13:19:01  BASE  1.92864  330  2.69304  332  -0.8  100   -0.8  1     0     983.9    NA       0.0000   9999     4790  0     0    
2019/07/16  13:20:01  BASE  1.71696  326  2.69304  332  -0.8  100   -0.8  1     0     983.9    NA       0.0000   9999     5580  0     0    
2019/07/16  13:21:00  BASE  1.82868  319  2.69304  332  -0.8  100   -0.8  1     0     983.8    NA       0.0000   9999     5740  0     0    
2019/07/16  13:22:00  BASE  2.2344   317  2.69304  332  -0.8  100   -0.8  1     0     983.7    NA       0.0000   9999     5640  0     0    
2019/07/16  13:23:00  BASE  2.45196  317  2.56956  328  -0.8  100   -0.8  1     0     983.7    NA       0.0000   9999     4070  0     0    
2019/07/16  13:24:01  BASE  2.47548  322  2.59896  327  -0.8  100   -0.8  1     0     983.7    NA       0.0000   9999     3970  0     0    
2019/07/16  13:25:00  BASE  2.41668  334  2.59896  327  -0.8  100   -0.8  1     0     983.7    NA       0.0000   9999     3080  3870  0    
2019/07/16  13:26:00  BASE  2.22264  338  2.59896  327  -0.9  100   -0.9  1     0     983.7    NA       0.0000   9999     5680  0     0    
2019/07/16  13:27:00  BASE  1.91688  337  2.59896  327  -0.9  100   -0.9  1     0     983.7    NA       0.0000   9999     4330  0     0    
2019/07/16  13:28:01  BASE  1.47     340  2.59896  327  -0.9  100   -0.9  1     0     983.7    NA       0.0000   9999     3670  0     0    
2019/07/16  13:29:00  BASE  0.9702   338  2.59896  327  -0.9  100   -0.9  2     0     983.7    NA       0.0000   9999     3510  0     0    
2019/07/16  13:30:00  BASE  0.84084  338  2.59896  327  -0.9  100   -0.9  2     0     983.7    NA       0.0000   9999     3610  0     0    
2019/07/16  13:31:00  BASE  0.95844  351  2.59896  327  -0.9  100   -0.9  2     0     983.7    NA       0.0000   9999     5380  0     0    
2019/07/16  13:32:00  BASE  1.00548  351  2.59896  327  -0.9  100   -0.9  2     0     983.6    NA       0.0000   9999     4200  0     0    
2019/07/16  13:33:00  BASE  1.19364  325  2.59896  327  -0.8  100   -0.8  2     0     983.5    NA       0.0000   9999     5480  0     0    
2019/07/16  13:34:00  BASE  1.10544  312  2.45196  342  -0.8  100   -0.8  2     0     983.5    NA       0.0000   9999     5150  0     0    
2019/07/16  13:35:00  BASE  0.96432  326  2.26968  341  -0.8  100   -0.8  2     0     983.5    NA       0.0000   9999     3310  0     0    
2019/07/16  13:36:00  BASE  1.04664  336  2.0286   337  -0.8  100   -0.8  2     0     983.5    NA       0.0000   9999     5770  0     0    
2019/07/16  13:37:00  BASE  0.63504  325  1.54056  299  -0.8  100   -0.8  2     0     983.3    NA       0.0000   9999     5740  0     0    
2019/07/16  13:38:00  BASE  0.11172  274  1.54056  299  -0.8  100   -0.8  2     0     983.5    NA       0.0000   9999     5540  0     0    
2019/07/16  13:39:00  BASE  0        216  1.54056  299  -0.8  100   -0.8  2     0     983.4    NA       0.0000   9999     5410  0     0    
2019/07/16  13:40:00  BASE  0.16464  228  1.54056  299  -0.8  100   -0.8  2     0     983.5    NA       0.0000   9999     5250  0     0    
2019/07/16  13:41:00  BASE  0.79968  272  1.66404  306  -0.8  100   -0.8  2     0     983.4    NA       0.0000   9999     5250  0     0    
2019/07/16  13:42:00  BASE  1.45236  300  1.96392  321  -0.8  100   -0.8  2     0     983.4    NA       0.0000   9999     3250  0     0    
2019/07/16  13:43:00  BASE  1.75812  318  2.1168   321  -0.8  100   -0.8  2     0     983.3    NA       0.0000   9999     4720  0     0    
2019/07/16  13:44:00  BASE  1.88748  330  2.21088  330  -0.8  100   -0.8  2     0     983.4    NA       0.0000   9999     5250  0     0    
2019/07/16  13:45:00  BASE  1.87572  330  2.21088  330  -0.8  100   -0.8  2     0     983.4    NA       0.0000   9999     4990  0     0    
2019/07/16  13:46:00  BASE  1.89924  319  2.21088  330  -0.8  100   -0.8  2     0     983.4    NA       0.0000   9999     4860  0     0    
2019/07/16  13:47:00  BASE  1.8522   299  2.21088  330  -0.8  100   -0.8  2     0     983.3    NA       0.0000   9999     4760  0     0    
2019/07/16  13:48:00  BASE  1.75224  282  2.21088  330  -0.9  100   -0.9  2     0     983.3    NA       0.0000   9999     4690  0     0    
2019/07/16  13:49:00  BASE  1.3818   263  2.21088  330  -0.8  100   -0.8  2     0     983.3    NA       0.0000   9999     4860  0     0    
2019/07/16  13:50:00  BASE  0.68796  223  2.21088  330  -0.9  100   -0.9  2     0     983.3    NA       0.0000   9999     5090  0     0    
2019/07/16  13:51:00  BASE  0.18228  211  2.21088  330  -0.9  100   -0.9  2     0     983.3    NA       0.0000   9999     5410  0     0    
2019/07/16  13:52:00  BASE  0.37632  296  2.21088  330  -1.0  100   -1.0  2     0     983.3    NA       0.0000   9999     5970  0     0    
2019/07/16  13:53:00  BASE  0.98196  325  2.21088  330  -1.0  100   -1.0  3     0     983.3    NA       0.0000   9999     6730  0     0    
2019/07/16  13:54:00  BASE  1.21128  319  2.0286   304  -1.0  100   -1.0  3     0     983.3    NA       0.0000   9999     6730  0     0    
2019/07/16  13:55:00  BASE  1.06428  307  2.0286   304  -1.0  100   -1.0  3     0     983.3    NA       0.0000   9999     7120  0     0    
2019/07/16  13:56:00  BASE  0.9114   293  1.96392  280  -0.9  100   -0.9  3     0     983.2    NA       0.0000   9999     6820  0     0    
2019/07/16  13:57:00  BASE  0.9114   290  1.96392  280  -0.8  100   -0.8  3     0     983.2    NA       0.0000   9999     6530  0     0    
2019/07/16  13:58:00  BASE  1.00548  307  1.54056  270  -0.8  100   -0.8  3     0     983.2    NA       0.0000   9999     6230  0     0    
2019/07/16  13:59:00  BASE  1.21128  330  1.51116  344  -0.8  100   -0.8  3     0     983.2    NA       0.0000   9999     6200  0     0    
2019/07/16  14:00:00  BASE  1.33476  344  1.51116  344  -0.8  100   -0.8  3     0     983.2    NA       0.0000   9999     6370  0     0    
2019/07/16  14:01:00  BASE  1.2054   353  1.51116  344  -0.9  100   -0.9  3     0     983.3    NA       0.0000   9999     6500  0     0    
2019/07/16  14:02:00  BASE  1.07604  9    1.51116  344  -0.9  100   -0.9  3     0     983.3    NA       0.0000   9999     6370  0     0    
2019/07/16  14:03:00  BASE  1.176    20   1.51116  344  -0.9  100   -0.9  3     0     983.2    NA       0.0000   9999     6300  0     0    
2019/07/16  14:04:00  BASE  1.25244  18   1.51116  344  -0.9  100   -0.9  3     0     983.2    NA       0.0000   9999     4490  0     0    
2019/07/16  14:05:00  BASE  1.18776  0    1.51116  344  -1.0  100   -1.0  3     0     983.1    NA       0.0000   9999     4490  0     0    
2019/07/16  14:06:00  BASE  1.19364  340  1.57584  324  -0.9  100   -0.9  3     0     983.1    NA       0.0000   9999     4460  0     0    
2019/07/16  14:07:00  BASE  1.1172   339  1.57584  324  -0.9  100   -0.9  3     0     983.1    NA       0.0000   9999     4400  0     0    
2019/07/16  14:08:00  BASE  0.93492  358  1.57584  324  -0.8  100   -0.8  4     0     983.1    NA       0.0000   9999     4360  0     0    
2019/07/16  14:09:00  BASE  1.029    24   1.57584  324  -0.8  100   -0.8  4     0     983.2    NA       0.0000   9999     4360  0     0    
2019/07/16  14:10:00  BASE  1.176    28   1.57584  324  -0.8  100   -0.8  4     0     983.2    NA       0.0000   9999     4400  0     0    
2019/07/16  14:11:01  BASE  1.18776  15   1.57584  324  -0.7  100   -0.7  4     0     983.1    NA       0.0000   9999     4270  0     0    
2019/07/16  14:12:01  BASE  1.24068  2    1.57584  324  -0.7  100   -0.7  4     0     983.1    NA       0.0000   9999     4330  5910  0    
2019/07/16  14:13:01  BASE  1.38768  0    1.60524  360  -0.7  100   -0.7  4     0     983.1    NA       0.0000   9999     4200  0     0    
2019/07/16  14:14:01  BASE  1.53468  13   1.75224  22   -0.7  100   -0.7  4     0     983.1    NA       0.0000   9999     4170  0     0    
2019/07/16  14:15:01  BASE  1.62876  19   1.81692  18   -0.7  100   -0.7  4     0     983.1    NA       0.0000   9999     4200  0     0    
2019/07/16  14:16:01  BASE  1.74048  17   1.90512  10   -0.8  100   -0.8  4     0     983.1    NA       0.0000   9999     4200  0     0    
2019/07/16  14:17:01  BASE  1.75812  19   1.90512  10   -0.8  100   -0.8  5     0     983.1    NA       0.0000   9999     4230  0     0    
2019/07/16  14:18:01  BASE  1.66992  23   1.90512  10   -0.8  100   -0.8  5     0     983.1    NA       0.0000   9999     4100  0     0    
2019/07/16  14:19:01  BASE  1.62288  26   1.90512  10   -0.9  100   -0.9  5     0     983.1    NA       0.0000   9999     4000  0     0    
2019/07/16  14:20:01  BASE  1.48176  31   1.90512  10   -0.9  100   -0.9  5     0     983.1    NA       0.0000   9999     3970  0     0    
2019/07/16  14:21:01  BASE  1.27596  39   1.90512  10   -0.9  100   -0.9  5     0     983.1    NA       0.0000   9999     4070  0     0    
2019/07/16  14:22:01  BASE  1.24068  46   1.90512  10   -0.8  100   -0.8  5     0     982.9    NA       0.0000   9999     4230  0     0    
2019/07/16  14:23:01  BASE  1.3524   44   1.90512  10   -0.7  100   -0.7  5     0     983.1    NA       0.0000   9999     6230  0     0    
2019/07/16  14:24:01  BASE  1.50528  37   1.90512  10   -0.6  100   -0.6  6     0     983.1    NA       0.0000   9999     6530  0     0    
2019/07/16  14:25:01  BASE  1.52292  24   1.90512  10   -0.5  100   -0.5  6     0     983.0    NA       0.0000   9999     6560  0     0    
2019/07/16  14:26:01  BASE  1.38768  7    1.81692  16   -0.5  100   -0.5  6     0     983.0    NA       0.0000   9999     6430  0     0    
2019/07/16  14:27:00  BASE  1.30536  357  1.81692  16   -0.5  100   -0.5  6     0     982.9    NA       0.0000   9999     6370  0     0    
2019/07/16  14:28:00  BASE  1.3818   358  1.81692  16   -0.4  100   -0.4  6     0     982.9    NA       0.0000   9999     6370  0     0    
2019/07/16  14:29:00  BASE  1.42884  355  1.81692  16   -0.4  100   -0.4  7     0     982.9    NA       0.0000   9999     6500  0     0    
2019/07/16  14:30:00  BASE  1.48176  355  1.81692  16   -0.4  100   -0.4  7     0     982.9    NA       0.0000   9999     6660  0     0    
2019/07/16  14:31:00  BASE  1.69932  355  2.21088  352  -0.3  100   -0.3  7     0     982.9    NA       0.0000   9999     6500  0     0    
2019/07/16  14:32:00  BASE  1.8522   353  2.21088  352  -0.3  100   -0.3  7     0     982.9    NA       0.0000   9999     6270  0     0    
2019/07/16  14:33:00  BASE  2.00508  353  2.38728  354  -0.3  100   -0.3  8     0     982.8    NA       0.0000   9999     6330  0     0    
2019/07/16  14:34:00  BASE  2.1756   357  2.38728  336  -0.3  100   -0.3  8     0     982.9    NA       0.0000   9999     4070  0     0    
2019/07/16  14:35:00  BASE  2.08152  5    2.38728  336  -0.3  100   -0.3  9     0     982.9    NA       0.0000   9999     3640  0     0    
2019/07/16  14:36:00  BASE  1.99332  8    2.38728  336  -0.3  100   -0.3  9     0     982.9    NA       0.0000   9999     3580  0     0    
2019/07/16  14:37:00  BASE  1.78164  9    2.38728  336  -0.4  100   -0.4  10    0     982.5    NA       0.0000   9999     3580  0     0    
2019/07/16  14:38:00  BASE  1.61112  6    2.38728  336  -0.4  100   -0.4  10    0     981.3    NA       0.0000   9999     3510  0     0    
2019/07/16  14:39:00  BASE  1.51704  7    2.38728  336  -0.4  100   -0.4  10    0     982.7    NA       0.0000   9999     3450  0     0    
2019/07/16  14:40:01  BASE  1.19364  10   2.38728  336  -0.4  100   -0.4  11    0     982.9    NA       0.0000   9999     3450  0     0    
2019/07/16  14:41:00  BASE  0.9114   1    2.38728  336  -0.4  100   -0.4  11    0     982.9    NA       0.0000   9999     7510  0     0    
2019/07/16  14:42:00  BASE  0.39396  11   2.38728  336  -0.4  100   -0.4  12    0     982.9    NA       0.0000   9999     3710  0     0    
2019/07/16  14:43:00  BASE  0        21   2.38728  336  -0.4  100   -0.4  12    0     982.9    NA       0.0000   9999     7610  0     0    
2019/07/16  14:44:00  BASE  0        13   2.26968  7    -0.4  100   -0.4  12    0     982.9    NA       0.0000   9999     7870  0     0    
2019/07/16  14:45:00  BASE  0.0294   352  2.26968  7    -0.4  100   -0.4  13    0     982.9    NA       0.0000   9999     3410  0     0    
2019/07/16  14:46:00  BASE  0.49392  323  1.87572  15   -0.4  100   -0.4  13    0     982.9    NA       0.0000   9999     3350  0     0    
2019/07/16  14:47:00  BASE  1.08192  310  1.87572  15   -0.4  100   -0.4  13    0     982.8    NA       0.0000   9999     7640  0     0    
2019/07/16  14:48:00  BASE  1.2642   307  1.69344  3    -0.4  100   -0.4  14    0     982.8    NA       0.0000   9999     3250  0     0    
2019/07/16  14:49:00  BASE  1.2348   310  1.51116  7    -0.5  100   -0.5  14    0     982.8    NA       0.0000   9999     7510  0     0    
2019/07/16  14:50:00  BASE  1.18776  317  1.48176  311  -0.5  100   -0.5  14    0     982.8    NA       0.0000   9999     7610  0     0    
2019/07/16  14:51:00  BASE  1.28184  321  1.51116  316  -0.6  100   -0.6  15    0     982.7    NA       0.0000   9999     3250  0     0    
2019/07/16  14:52:00  BASE  1.5288   324  1.87572  332  -0.6  100   -0.6  15    0     982.7    NA       0.0000   9999     3250  0     0    
2019/07/16  14:53:00  BASE  1.82868  326  2.0874   329  -0.7  100   -0.7  15    0     982.7    NA       0.0000   9999     3220  0     0    
2019/07/16  14:54:00  BASE  1.95216  326  2.0874   327  -0.7  100   -0.7  15    0     982.7    NA       0.0000   9999     6370  0     0    
2019/07/16  14:55:00  BASE  1.764    326  2.0874   327  -0.8  100   -0.8  16    0     982.8    NA       0.0000   9999     3250  0     0    
2019/07/16  14:56:00  BASE  1.08192  325  2.0874   327  -0.8  100   -0.8  16    0     982.8    NA       0.0000   9999     3180  0     0    
2019/07/16  14:57:00  BASE  0.28812  316  2.0874   327  -0.9  100   -0.9  16    0     982.8    NA       0.0000   9999     3150  0     0    
2019/07/16  14:58:00  BASE  0        307  2.0874   327  -0.9  100   -0.9  17    0     982.8    NA       0.0000   9999     3150  0     0    
2019/07/16  14:59:00  BASE  0.32928  311  2.0874   327  -1.0  100   -1.0  17    0     982.7    NA       0.0000   9999     3770  0     0    
2019/07/16  15:00:00  BASE  0.9996   321  2.0874   327  -0.9  100   -0.9  17    0     982.7    NA       0.0000   9999     3380  0     0    
2019/07/16  15:01:00  BASE  1.59348  324  2.0874   327  -0.9  100   -0.9  17    0     982.7    NA       0.0000   9999     6430  0     0    
2019/07/16  15:02:00  BASE  1.98156  324  2.26968  326  -0.8  100   -0.8  18    0     982.7    NA       0.0000   9999     3220  0     0    
2019/07/16  15:03:00  BASE  2.1462   325  2.26968  326  -0.7  100   -0.7  18    0     982.6    NA       0.0000   9999     3280  0     0    
2019/07/16  15:04:00  BASE  2.24616  321  2.45196  316  -0.7  100   -0.7  18    0     982.6    NA       0.0000   9999     3080  0     0    
2019/07/16  15:05:00  BASE  2.33436  311  2.45196  316  -0.7  100   -0.7  18    0     982.6    NA       0.0000   9999     3020  0     0    
2019/07/16  15:06:00  BASE  2.25204  303  2.45196  316  -0.7  100   -0.7  18    0     982.6    NA       0.0000   9999     3050  0     0    
2019/07/16  15:07:00  BASE  2.07564  299  2.45196  316  -0.8  100   -0.8  18    0     982.6    NA       0.0000   9999     2920  0     0    
2019/07/16  15:08:00  BASE  1.89336  299  2.45196  316  -0.8  100   -0.8  19    0     982.6    NA       0.0000   9999     2950  0     0    
2019/07/16  15:09:00  BASE  1.77576  304  2.45196  316  -0.8  100   -0.8  19    0     982.6    NA       0.0000   9999     2820  0     0    
2019/07/16  15:10:00  BASE  1.83456  313  2.45196  316  -0.8  100   -0.8  19    0     982.6    NA       0.0000   9999     2990  0     0    
2019/07/16  15:11:00  BASE  1.8522   323  2.45196  316  -0.8  100   -0.8  19    0     982.6    NA       0.0000   9999     2950  0     0    
2019/07/16  15:12:00  BASE  1.95216  331  2.45196  316  -0.8  100   -0.8  19    0     982.6    NA       0.0000   9999     0     0     0    
2019/07/16  15:13:00  BASE  2.058    335  2.45196  316  -0.8  100   -0.8  19    0     982.6    NA       0.0000   9999     0     0     0    
2019/07/16  15:14:00  BASE  1.9698   341  2.35788  302  -0.8  100   -0.8  19    0     982.6    NA       0.0000   9999     2990  0     0    
2019/07/16  15:15:01  BASE  1.8228   345  2.29908  302  -0.9  100   -0.9  20    0     982.5    NA       0.0000   9999     2950  0     0    
2019/07/16  15:16:00  BASE  1.66404  343  2.21088  339  -0.9  100   -0.9  20    0     982.4    NA       0.0000   9999     0     0     0    
2019/07/16  15:17:00  BASE  1.42884  343  2.21088  339  -0.9  100   -0.9  20    0     982.4    NA       0.0000   9999     0     0     0    
2019/07/16  15:18:01  BASE  1.09956  353  2.21088  339  -0.9  100   -0.9  20    0     982.4    NA       0.0000   9999     0     0     0    
2019/07/16  15:19:00  BASE  0.68796  9    2.21088  339  -1.0  100   -1.0  20    0     982.4    NA       0.0000   9999     0     0     0    
2019/07/16  15:20:01  BASE  0.45864  23   2.21088  339  -1.0  100   -1.0  20    0     982.4    NA       0.0000   9999     0     0     0    
2019/07/16  15:21:01  BASE  0.3528   33   2.21088  339  -1.0  100   -1.0  20    0     982.4    NA       0.0000   9999     7250  0     0    
2019/07/16  15:22:01  BASE  0.10584  30   2.1462   334  -0.9  100   -0.9  19    0     982.4    NA       0.0000   9999     7380  0     0    
2019/07/16  15:23:01  BASE  0        19   2.1168   346  -0.9  100   -0.9  19    0     982.4    NA       0.0000   9999     7680  0     0    
2019/07/16  15:24:01  BASE  0        5    1.90512  349  -0.8  100   -0.8  19    0     982.4    NA       0.0000   9999     7580  0     0    
2019/07/16  15:25:01  BASE  0.19992  320  1.90512  349  -0.8  100   -0.8  19    0     982.4    NA       0.0000   9999     7680  0     0    
2019/07/16  15:26:01  BASE  0.735    283  1.42296  347  -0.7  100   -0.7  19    0     982.3    NA       0.0000   9999     7640  0     0    
2019/07/16  15:27:01  BASE  1.24068  281  1.69344  288  -0.7  100   -0.7  19    0     982.3    NA       0.0000   9999     7450  0     0    
2019/07/16  15:28:01  BASE  1.59936  289  1.93452  296  -0.7  100   -0.7  18    0     982.3    NA       0.0000   9999     0     0     0    
2019/07/16  15:29:01  BASE  1.86984  301  2.0874   302  -0.7  100   -0.7  18    0     982.3    NA       0.0000   9999     0     0     0    
2019/07/16  15:30:01  BASE  1.95804  310  2.0874   315  -0.8  100   -0.8  18    0     982.3    NA       0.0000   9999     0     0     0    
2019/07/16  15:31:00  BASE  2.08152  315  2.54016  316  -0.8  100   -0.8  18    0     982.2    NA       0.0000   9999     0     0     0    
2019/07/16  15:32:00  BASE  2.38728  316  2.66364  314  -0.8  100   -0.8  18    0     982.2    NA       0.0000   9999     0     0     0    
2019/07/16  15:33:00  BASE  2.64012  315  2.87532  318  -0.8  100   -0.8  17    0     982.1    NA       0.0000   9999     0     0     0    
2019/07/16  15:34:00  BASE  2.78124  318  2.90472  319  -0.8  100   -0.8  17    0     982.1    NA       0.0000   9999     0     0     0    
2019/07/16  15:35:00  BASE  2.75772  320  2.90472  319  -0.9  100   -0.9  17    0     982.1    NA       0.0000   9999     0     0     0    
2019/07/16  15:36:01  BASE  2.62836  324  2.90472  319  -0.9  100   -0.9  17    0     982.1    NA       0.0000   9999     4040  0     0    
2019/07/16  15:37:00  BASE  2.6166   329  2.90472  319  -1.0  100   -1.0  17    0     982.1    NA       0.0000   9999     4100  0     0    
2019/07/16  15:38:00  BASE  2.52252  334  2.90472  319  -1.0  100   -1.0  17    0     982.1    NA       0.0000   9999     4430  0     0    
2019/07/16  15:39:00  BASE  2.29908  340  2.90472  319  -1.0  100   -1.0  18    0     982.0    NA       0.0000   9999     5020  0     0    
2019/07/16  15:40:00  BASE  2.0874   347  2.90472  319  -1.0  100   -1.0  18    0     982.0    NA       0.0000   9999     3840  0     0    
2019/07/16  15:41:00  BASE  1.84632  355  2.90472  319  -1.0  100   -1.0  18    0     982.0    NA       0.0000   9999     4430  0     0    
2019/07/16  15:42:00  BASE  1.7052   10   2.90472  319  -1.0  100   -1.0  18    0     982.0    NA       0.0000   9999     4630  0     0    
2019/07/16  15:43:00  BASE  1.83456  18   2.90472  319  -1.0  100   -1.0  19    0     982.0    NA       0.0000   9999     4560  0     0    
2019/07/16  15:44:00  BASE  2.08152  20   2.78124  320  -1.0  100   -1.0  19    0     982.0    NA       0.0000   9999     4630  0     0    
2019/07/16  15:45:01  BASE  2.40492  26   3.1458   33   -1.0  100   -1.0  19    0     981.9    NA       0.0000   9999     4400  0     0    
2019/07/16  15:46:00  BASE  2.6754   20   3.1458   33   -1.0  100   -1.0  20    0     981.8    NA       0.0000   9999     4200  0     0    
2019/07/16  15:47:00  BASE  2.71068  7    3.1458   33   -0.9  100   -0.9  20    0     981.8    NA       0.0000   9999     4040  0     0    
2019/07/16  15:48:00  BASE  2.62836  3    3.1458   33   -0.9  100   -0.9  20    0     981.8    NA       0.0000   9999     0     0     0    
2019/07/16  15:49:00  BASE  2.46372  6    3.1458   33   -1.0  100   -1.0  20    0     981.8    NA       0.0000   9999     0     0     0    
2019/07/16  15:50:00  BASE  2.34612  18   3.1458   33   -1.0  100   -1.0  20    0     981.8    NA       0.0000   9999     0     0     0    
2019/07/16  15:51:00  BASE  2.3226   28   3.1458   33   -1.1  100   -1.1  20    0     981.8    NA       0.0000   9999     0     0     0    
2019/07/16  15:52:00  BASE  2.31672  36   3.1458   33   -1.2  100   -1.2  20    0     981.8    NA       0.0000   9999     0     0     0    
2019/07/16  15:53:00  BASE  2.25204  44   3.1458   33   -1.3  100   -1.3  20    0     981.8    NA       0.0000   9999     0     0     0    
2019/07/16  15:54:01  BASE  2.09916  35   3.1458   33   -1.3  100   -1.3  20    0     981.8    NA       0.0000   9999     3580  0     0    
2019/07/16  15:55:00  BASE  2.058    18   2.96352  24   -1.3  100   -1.3  20    0     981.7    NA       0.0000   9999     3250  0     0    
2019/07/16  15:56:00  BASE  2.16972  6    2.87532  360  -1.2  100   -1.2  20    0     981.7    NA       0.0000   9999     4720  0     0    
2019/07/16  15:57:00  BASE  2.16384  4    2.87532  360  -1.1  100   -1.1  19    0     981.7    NA       0.0000   9999     4790  0     0    
2019/07/16  15:58:00  BASE  2.12268  14   2.59896  1    -1.1  100   -1.1  19    0     981.7    NA       0.0000   9999     4690  0     0    
2019/07/16  15:59:00  BASE  1.9404   23   2.59896  1    -1.0  100   -1.0  20    0     981.7    NA       0.0000   9999     4560  0     0    
2019/07/16  16:00:00  BASE  1.54056  32   2.59896  1    -0.9  100   -0.9  20    0     981.7    NA       0.0000   9999     4590  0     0    
2019/07/16  16:01:00  BASE  1.21716  45   2.59896  1    -0.9  100   -0.9  20    0     981.7    NA       0.0000   9999     4630  0     0    
2019/07/16  16:02:00  BASE  1.09956  55   2.59896  1    -0.9  100   -0.9  21    0     981.7    NA       0.0000   9999     4490  0     0    
2019/07/16  16:03:00  BASE  1.11132  55   2.59896  1    -0.8  100   -0.8  21    0     981.7    NA       0.0000   9999     4270  0     0    
2019/07/16  16:04:00  BASE  1.07016  49   2.59896  1    -0.8  100   -0.8  22    0     981.7    NA       0.0000   9999     4360  0     0    
2019/07/16  16:05:00  BASE  1.09956  49   2.35788  2    -0.7  100   -0.7  22    0     981.7    NA       0.0000   9999     4360  0     0    
2019/07/16  16:06:00  BASE  1.37592  52   2.35788  2    -0.7  100   -0.7  23    0     981.6    NA       0.0000   9999     4230  0     0    
2019/07/16  16:07:00  BASE  1.61112  58   2.29908  18   -0.6  100   -0.6  24    0     981.6    NA       0.0000   9999     4430  0     0    
2019/07/16  16:08:00  BASE  1.65228  65   1.93452  71   -0.5  100   -0.5  24    0     981.6    NA       0.0000   9999     4460  0     0    
2019/07/16  16:09:00  BASE  1.51116  54   1.93452  71   -0.4  100   -0.4  25    0     981.6    NA       0.0000   9999     4430  0     0    
2019/07/16  16:10:00  BASE  1.176    30   1.93452  71   -0.3  100   -0.3  26    0     981.5    NA       0.0000   9999     4360  0     0    
2019/07/16  16:11:00  BASE  0.95844  2    1.93452  71   -0.1  100   -0.1  27    0     981.5    NA       0.0000   9999     4230  0     0    
2019/07/16  16:12:00  BASE  0.89376  329  1.93452  71   -0.1  100   -0.1  28    0     981.5    NA       0.0000   9999     0     0     0    
2019/07/16  16:13:00  BASE  1.0878   317  1.93452  71   -0.1  100   -0.1  28    0     981.5    NA       0.0000   9999     0     0     0    
2019/07/16  16:14:00  BASE  1.13484  336  1.93452  71   -0.0  100   -0.0  29    0     981.5    NA       0.0000   9999     4590  0     0    
2019/07/16  16:15:00  BASE  1.18188  13   1.93452  71   -0.0  100   -0.0  30    0     981.5    NA       0.0000   9999     4490  0     0    
2019/07/16  16:16:00  BASE  1.59348  41   2.0874   42   -0.1  100   -0.1  31    0     981.5    NA       0.0000   9999     4530  0     0    
2019/07/16  16:17:04  BASE  1.83456  40   2.0874   42   -0.1  100   -0.1  31    0     981.5    NA       0.0000   9999     4430  0     0    
2019/07/16  16:18:00  BASE  1.68168  9    2.0874   42   -0.1  100   -0.1  32    0     981.4    NA       0.0000   9999     7320  0     0    
2019/07/16  16:19:00  BASE  1.57584  327  2.0874   42   -0.2  100   -0.2  33    0     981.3    NA       0.0000   9999     7710  0     0    
2019/07/16  16:20:00  BASE  1.74636  302  2.1168   285  -0.3  100   -0.3  33    0     981.2    NA       0.0000   9999     7580  0     0    
2019/07/16  16:21:00  BASE  1.82868  290  2.1168   285  -0.4  100   -0.4  34    0     981.2    NA       0.0000   9999     7910  0     0    
2019/07/16  16:22:00  BASE  1.74636  288  2.1168   285  -0.4  100   -0.4  34    0     981.2    NA       0.0000   9999     8040  0     0    
2019/07/16  16:23:00  BASE  1.72284  294  2.1168   285  -0.4  100   -0.4  34    0     981.2    NA       0.0000   9999     8100  0     0    
2019/07/16  16:24:00  BASE  1.42884  300  2.1168   285  -0.4  100   -0.4  35    0     981.2    NA       0.0000   9999     3510  0     0    
2019/07/16  16:25:00  BASE  0.61152  320  2.1168   285  -0.4  100   -0.4  35    0     981.2    NA       0.0000   9999     2760  0     0    
2019/07/16  16:26:00  BASE  0.34104  344  2.1168   285  -0.4  100   -0.4  35    0     981.2    NA       0.0000   9999     7680  0     0    
2019/07/16  16:27:00  BASE  0.84084  325  2.1168   285  -0.4  100   -0.4  34    0     981.2    NA       0.0000   9999     5940  0     0    
2019/07/16  16:28:00  BASE  1.27596  303  2.1168   285  -0.5  100   -0.5  34    0     981.2    NA       0.0000   9999     5580  0     0    
2019/07/16  16:29:00  BASE  1.69344  294  2.1168   285  -0.5  100   -0.5  33    0     981.2    NA       0.0000   9999     7780  0     0    
2019/07/16  16:30:00  BASE  1.77576  286  2.0874   288  -0.5  100   -0.6  32    0     981.2    NA       0.0000   9999     7780  0     0    
2019/07/16  16:31:00  BASE  1.42884  292  2.0874   288  -0.6  100   -0.6  32    0     981.2    NA       0.0000   9999     7420  0     0    
2019/07/16  16:32:00  BASE  1.19952  300  2.0874   288  -0.6  100   -0.6  31    0     981.2    NA       0.0000   9999     7420  0     0    
2019/07/16  16:33:00  BASE  1.05252  313  2.0874   288  -0.7  100   -0.7  30    0     981.2    NA       0.0000   9999     7840  0     0    
2019/07/16  16:34:00  BASE  1.17012  334  2.0874   288  -0.7  100   -0.7  29    0     981.1    NA       0.0000   9999     8270  0     0    
2019/07/16  16:35:00  BASE  1.37004  355  2.0874   288  -0.7  100   -0.7  29    0     981.1    NA       0.0000   9999     8430  0     0    
2019/07/16  16:36:01  BASE  1.42296  357  2.0874   288  -0.7  100   -0.7  28    0     981.0    NA       0.0000   9999     8790  0     0    
2019/07/16  16:37:00  BASE  1.59348  339  2.0874   288  -0.7  100   -0.7  28    0     981.0    NA       0.0000   9999     7910  0     0    
2019/07/16  16:38:00  BASE  1.76988  329  2.0874   288  -0.7  100   -0.7  27    0     981.0    NA       0.0000   9999     6100  0     0    
2019/07/16  16:39:00  BASE  1.86984  332  2.0874   337  -0.6  100   -0.6  27    0     981.0    NA       0.0000   9999     6070  0     0    
2019/07/16  16:40:00  BASE  2.09916  339  2.42256  341  -0.6  100   -0.6  27    0     981.0    NA       0.0000   9999     5680  0     0    
2019/07/16  16:41:00  BASE  2.19324  341  2.51076  339  -0.6  100   -0.6  27    0     981.0    NA       0.0000   9999     5350  0     0    
2019/07/16  16:42:00  BASE  1.9404   343  2.51076  339  -0.6  100   -0.6  26    0     981.0    NA       0.0000   9999     5150  0     0    
2019/07/16  16:43:00  BASE  1.764    344  2.51076  339  -0.6  100   -0.6  26    0     980.9    NA       0.0000   9999     5910  0     0    
2019/07/16  16:44:00  BASE  1.82868  338  2.51076  339  -0.6  100   -0.6  26    0     980.9    NA       0.0000   9999     5770  0     0    
2019/07/16  16:45:00  BASE  1.94628  333  2.51076  339  -0.6  100   -0.6  26    0     980.9    NA       0.0000   9999     5840  6660  0    
2019/07/16  16:46:00  BASE  1.89336  328  2.51076  339  -0.6  100   -0.6  26    0     980.9    NA       0.0000   9999     5740  0     0    
2019/07/16  16:47:00  BASE  1.7934   327  2.51076  339  -0.5  100   -0.5  26    0     980.8    NA       0.0000   9999     6000  0     0    
2019/07/16  16:48:01  BASE  1.72872  336  2.51076  339  -0.5  100   -0.5  26    0     980.8    NA       0.0000   9999     5770  6790  0    
2019/07/16  16:49:00  BASE  1.7346   351  2.51076  339  -0.5  100   -0.5  26    0     980.8    NA       0.0000   9999     6200  0     0    
2019/07/16  16:50:00  BASE  1.76988  357  2.51076  339  -0.5  100   -0.5  26    0     980.8    NA       0.0000   9999     6500  0     0    
2019/07/16  16:51:00  BASE  1.56408  358  2.1462   341  -0.5  100   -0.5  26    0     980.8    NA       0.0000   9999     6270  0     0    
2019/07/16  16:52:00  BASE  1.3524   5    2.1462   341  -0.6  100   -0.6  26    0     980.7    NA       0.0000   9999     6100  0     0    
2019/07/16  16:53:00  BASE  1.43472  1    2.1462   341  -0.6  100   -0.6  26    0     980.7    NA       0.0000   9999     6070  0     0    
2019/07/16  16:54:00  BASE  1.60524  349  2.1168   326  -0.6  100   -0.6  26    0     980.7    NA       0.0000   9999     6140  0     0    
2019/07/16  16:55:00  BASE  1.72872  341  2.0286   355  -0.6  100   -0.6  26    0     980.7    NA       0.0000   9999     5810  8140  0    
2019/07/16  16:56:00  BASE  1.81104  341  2.0286   355  -0.5  100   -0.5  26    0     980.7    NA       0.0000   9999     6560  0     0    
2019/07/16  16:57:00  BASE  1.911    344  2.0874   350  -0.5  100   -0.5  26    0     980.2    NA       0.0000   9999     6370  0     0    
2019/07/16  16:58:00  BASE  1.96392  344  2.0874   338  -0.4  100   -0.4  26    0     980.6    NA       0.0000   9999     6630  8040  0    
2019/07/16  16:59:00  BASE  1.91688  341  2.0874   338  -0.4  100   -0.4  26    0     980.6    NA       0.0000   9999     6370  7870  0    
2019/07/16  17:00:00  BASE  1.91688  342  2.0874   338  -0.4  100   -0.4  26    0     980.6    NA       0.0000   9999     6270  7680  0    
2019/07/16  17:01:00  BASE  1.74048  342  2.0874   338  -0.4  100   -0.4  27    0     980.6    NA       0.0000   9999     6370  7580  0    
2019/07/16  17:02:00  BASE  1.43472  344  2.0874   338  -0.4  100   -0.4  27    0     980.6    NA       0.0000   9999     6370  7550  0    
2019/07/16  17:03:00  BASE  1.34652  349  2.0874   338  -0.4  100   -0.4  27    0     980.6    NA       0.0000   9999     8300  0     0    
2019/07/16  17:04:00  BASE  1.21128  7    2.0874   338  -0.3  100   -0.3  28    0     980.6    NA       0.0000   9999     7710  0     0    
2019/07/16  17:05:00  BASE  0.90552  15   2.0874   338  -0.3  100   -0.3  28    0     980.6    NA       0.0000   9999     8240  0     0    
2019/07/16  17:06:00  BASE  0.75264  5    2.0874   338  -0.4  100   -0.4  28    0     980.5    NA       0.0000   9999     8400  0     0    
2019/07/16  17:07:00  BASE  0.96432  358  2.0874   338  -0.4  100   -0.4  28    0     980.4    NA       0.0000   9999     8460  0     0    
2019/07/16  17:08:00  BASE  1.30536  9    2.0286   344  -0.4  100   -0.4  28    0     980.4    NA       0.0000   9999     6370  0     0    
2019/07/16  17:09:00  BASE  1.48176  30   2.0286   344  -0.5  100   -0.5  28    0     980.4    NA       0.0000   9999     6590  8530  0    
2019/07/16  17:10:00  BASE  1.71696  43   2.0874   44   -0.4  100   -0.4  28    0     980.4    NA       0.0000   9999     7250  0     0    
2019/07/16  17:11:00  BASE  1.7346   38   2.0874   44   -0.4  100   -0.4  28    0     980.3    NA       0.0000   9999     7150  8010  0    
2019/07/16  17:12:00  BASE  1.72284  24   2.24028  19   -0.4  100   -0.4  28    0     980.3    NA       0.0000   9999     6460  0     0    
2019/07/16  17:13:00  BASE  1.78752  19   2.24028  19   -0.3  100   -0.3  27    0     980.3    NA       0.0000   9999     6460  0     0    
2019/07/16  17:14:00  BASE  1.74048  20   2.24028  19   -0.2  100   -0.2  26    0     980.3    NA       0.0000   9999     6100  7510  0    
2019/07/16  17:15:00  BASE  1.89336  23   2.29908  26   -0.1  100   -0.1  25    0     980.3    NA       0.0000   9999     5940  7050  0    
2019/07/16  17:16:00  BASE  1.87572  18   2.29908  26   -0.1  100   -0.1  25    0     980.2    NA       0.0000   9999     6070  0     0    
2019/07/16  17:17:00  BASE  1.84632  7    2.29908  26   0.0   100   -0.0  24    0     980.2    NA       0.0000   9999     6070  0     0    
2019/07/16  17:18:00  BASE  1.87572  18   2.29908  26   0.0   100   0.0   23    0     980.2    NA       0.0000   9999     5840  6960  0    
2019/07/16  17:19:00  BASE  1.78752  36   2.29908  26   0.0   100   0.0   22    0     980.1    NA       0.0000   9999     5940  7250  0    
2019/07/16  17:20:00  BASE  1.81692  29   2.29908  26   0.1   100   0.1   21    0     980.1    NA       0.0000   9999     5810  0     0    
2019/07/16  17:21:00  BASE  1.97568  15   2.29908  26   0.1   100   0.1   20    0     979.9    NA       0.0000   9999     6000  0     0    
2019/07/16  17:22:00  BASE  1.90512  13   2.29908  26   0.1   100   0.1   19    0     979.9    NA       0.0000   9999     7580  0     0    
2019/07/16  17:23:00  BASE  1.69344  21   2.29908  26   0.1   100   0.1   18    0     979.9    NA       0.0000   9999     7610  0     0    
2019/07/16  17:24:00  BASE  1.617    16   2.29908  26   0.1   100   0.1   17    0     979.9    NA       0.0000   9999     6630  0     0    
2019/07/16  17:25:00  BASE  1.7052   357  2.21088  9    0.2   100   0.2   16    0     979.9    NA       0.0000   9999     7640  0     0    
2019/07/16  17:26:00  BASE  1.72872  352  2.21088  9    0.2   100   0.2   16    0     979.9    NA       0.0000   9999     7910  0     0    
2019/07/16  17:27:00  BASE  1.69344  356  2.21088  9    0.2   100   0.2   15    0     979.9    NA       0.0000   9999     8100  0     0    
2019/07/16  17:28:00  BASE  1.61112  354  2.21088  9    0.3   100   0.3   15    0     979.8    NA       0.0000   9999     8070  0     0    
2019/07/16  17:29:00  BASE  1.43472  345  2.21088  9    0.3   100   0.3   14    0     979.8    NA       0.0000   9999     8240  0     0    
2019/07/16  17:30:00  BASE  1.31712  338  2.21088  9    0.3   100   0.3   14    0     979.8    NA       0.0000   9999     8240  0     0    
2019/07/16  17:31:00  BASE  1.37592  337  2.1756   344  0.3   100   0.3   14    0     979.8    NA       0.0000   9999     8140  0     0    
2019/07/16  17:32:00  BASE  1.4994   342  2.1756   344  0.2   100   0.2   14    0     979.8    NA       0.0000   9999     8140  0     0    
2019/07/16  17:33:00  BASE  1.13484  348  2.1756   344  0.2   100   0.2   14    0     979.8    NA       0.0000   9999     8330  0     0    
2019/07/16  17:34:00  BASE  0.5586   351  2.1756   344  0.2   100   0.2   14    0     979.8    NA       0.0000   9999     8270  0     0    
2019/07/16  17:35:00  BASE  0.28224  2    2.058    6    0.2   100   0.2   14    0     979.8    NA       0.0000   9999     6990  0     0    
2019/07/16  17:36:00  BASE  0.6174   2    2.058    6    0.2   100   0.2   14    0     979.8    NA       0.0000   9999     6630  0     0    
2019/07/16  17:37:00  BASE  0.81732  347  1.72284  352  0.2   100   0.2   14    0     979.8    NA       0.0000   9999     8400  0     0    
2019/07/16  17:38:00  BASE  0.66444  335  1.69344  340  0.2   100   0.2   14    0     979.8    NA       0.0000   9999     8530  0     0    
2019/07/16  17:39:00  BASE  1.28184  322  2.42256  314  0.3   100   0.3   14    0     979.8    NA       0.0000   9999     8530  0     0    
2019/07/16  17:40:00  BASE  1.90512  309  2.48136  310  0.4   100   0.4   14    0     979.6    NA       0.0000   9999     6270  0     0    
2019/07/16  17:41:00  BASE  1.8816   298  2.48136  310  0.5   100   0.5   14    0     979.7    NA       0.0000   9999     6270  0     0    
2019/07/16  17:42:00  BASE  1.74048  287  2.48136  310  0.5   100   0.5   14    0     979.8    NA       0.0000   9999     5870  0     0    
2019/07/16  17:43:00  BASE  1.7052   281  2.48136  310  0.5   100   0.5   14    0     979.7    NA       0.0000   9999     5680  0     0    
2019/07/16  17:44:00  BASE  1.79928  285  2.48136  310  0.5   100   0.5   14    0     979.7    NA       0.0000   9999     5870  7120  0    
2019/07/16  17:45:00  BASE  1.96392  290  2.48136  310  0.5   100   0.5   14    0     979.7    NA       0.0000   9999     5840  0     0    
2019/07/16  17:46:00  BASE  2.03448  298  2.48136  310  0.5   100   0.5   14    0     979.7    NA       0.0000   9999     6100  0     0    
2019/07/16  17:47:00  BASE  2.04036  300  2.48136  310  0.5   100   0.5   13    0     979.7    NA       0.0000   9999     6230  0     0    
2019/07/16  17:48:00  BASE  2.205    305  2.69304  313  0.6   100   0.6   13    0     979.7    NA       0.0000   9999     6040  7150  0    
2019/07/16  17:49:00  BASE  2.28144  308  2.69304  313  0.6   100   0.6   13    0     979.6    NA       0.0000   9999     5410  6530  0    
2019/07/16  17:50:00  BASE  2.08152  306  2.69304  313  0.6   100   0.6   13    0     979.6    NA       0.0000   9999     5350  0     0    
2019/07/16  17:51:00  BASE  1.84044  309  2.69304  313  0.6   100   0.6   13    0     979.6    NA       0.0000   9999     5180  0     0    
2019/07/16  17:52:00  BASE  1.87572  303  2.69304  313  0.5   100   0.5   12    0     979.6    NA       0.0000   9999     6860  0     0    
2019/07/16  17:53:00  BASE  1.75812  299  2.69304  313  0.5   100   0.5   12    0     979.6    NA       0.0000   9999     7740  0     0    
2019/07/16  17:54:00  BASE  1.19952  294  2.69304  313  0.4   100   0.4   12    0     979.6    NA       0.0000   9999     7350  0     0    
2019/07/16  17:55:00  BASE  0.55272  265  2.69304  313  0.2   100   0.2   12    0     979.6    NA       0.0000   9999     6820  0     0    
2019/07/16  17:56:00  BASE  0.69384  194  2.69304  313  0.0   100   0.0   11    0     979.6    NA       0.0000   9999     6100  0     0    
2019/07/16  17:57:00  BASE  1.16424  184  2.69304  313  -0.2  100   -0.2  11    0     979.5    NA       0.0000   9999     5840  0     0    
2019/07/16  17:58:00  BASE  1.33476  195  2.56956  312  -0.3  100   -0.3  11    0     979.5    NA       0.0000   9999     5510  0     0    
2019/07/16  17:59:00  BASE  1.28772  218  2.32848  309  -0.5  100   -0.5  10    0     979.5    NA       0.0000   9999     5320  0     0    
2019/07/16  18:00:00  BASE  1.323    226  2.26968  309  -0.5  100   -0.5  10    0     979.5    NA       0.0000   9999     5280  0     0    
2019/07/16  18:01:00  BASE  1.66992  226  2.21088  295  -0.6  100   -0.6  10    0     978.7    NA       0.0000   9999     5450  0     0    
2019/07/16  18:02:00  BASE  1.90512  233  2.1756   240  -0.6  100   -0.6  10    0     978.9    NA       0.0000   9999     5280  0     0    
2019/07/16  18:03:00  BASE  2.04036  239  2.29908  239  -0.6  100   -0.6  9     0     979.3    NA       0.0000   9999     5250  0     0    
2019/07/16  18:04:00  BASE  2.01096  243  2.29908  239  -0.7  100   -0.7  9     0     979.3    NA       0.0000   9999     4890  0     0    
2019/07/16  18:05:00  BASE  1.84632  245  2.29908  239  -0.7  100   -0.7  9     0     979.3    NA       0.0000   9999     4890  0     0    
2019/07/16  18:06:00  BASE  1.69344  247  2.29908  239  -0.7  100   -0.7  9     0     979.3    NA       0.0000   9999     4690  0     0    
2019/07/16  18:07:00  BASE  1.64052  246  2.29908  239  -0.7  100   -0.7  9     0     979.3    NA       0.0000   9999     4760  0     0    
2019/07/16  18:08:00  BASE  1.84044  239  2.29908  239  -0.7  100   -0.7  9     0     979.3    NA       0.0000   9999     4890  0     0    
2019/07/16  18:09:00  BASE  2.04624  236  2.29908  239  -0.7  100   -0.7  9     0     979.3    NA       0.0000   9999     5020  0     0    
2019/07/16  18:10:00  BASE  2.058    247  2.29908  239  -0.7  100   -0.7  9     0     978.7    NA       0.0000   9999     4720  0     0    
2019/07/16  18:11:00  BASE  2.05212  264  2.29908  239  -0.7  100   -0.7  9     0     978.4    NA       0.0000   9999     4530  0     0    
2019/07/16  18:12:00  BASE  2.06976  274  2.29908  239  -0.6  100   -0.6  8     0     979.2    NA       0.0000   9999     4490  0     0    
2019/07/16  18:13:00  BASE  2.00508  275  2.24028  263  -0.5  100   -0.5  8     0     979.2    NA       0.0000   9999     7220  0     0    
2019/07/16  18:14:00  BASE  1.84632  275  2.24028  263  -0.4  100   -0.4  8     0     979.2    NA       0.0000   9999     4630  0     0    
2019/07/16  18:15:00  BASE  1.64052  278  2.24028  263  -0.3  100   -0.3  8     0     979.2    NA       0.0000   9999     4360  0     0    
2019/07/16  18:16:00  BASE  1.51116  282  2.24028  263  -0.2  100   -0.2  8     0     979.1    NA       0.0000   9999     7450  0     0    
2019/07/16  18:17:00  BASE  1.45824  281  2.24028  263  -0.2  100   -0.2  8     0     979.1    NA       0.0000   9999     7420  0     0    
2019/07/16  18:18:00  BASE  1.323    269  2.24028  263  -0.2  100   -0.2  8     0     979.1    NA       0.0000   9999     7320  0     0    
2019/07/16  18:19:00  BASE  1.42296  253  2.24028  263  -0.2  100   -0.2  7     0     979.0    NA       0.0000   9999     7350  0     0    
2019/07/16  18:20:00  BASE  1.5288   252  2.21088  278  -0.3  100   -0.3  7     0     979.0    NA       0.0000   9999     7450  0     0    
2019/07/16  18:21:00  BASE  1.39356  251  2.1462   271  -0.4  100   -0.4  7     0     979.1    NA       0.0000   9999     8830  0     0    
2019/07/16  18:22:00  BASE  1.35828  252  2.0286   274  -0.5  100   -0.5  7     0     979.0    NA       0.0000   9999     7580  0     0    
2019/07/16  18:23:00  BASE  1.44648  268  1.90512  277  -0.6  100   -0.6  6     0     979.0    NA       0.0000   9999     7510  0     0    
2019/07/16  18:24:00  BASE  1.60524  282  1.81692  290  -0.7  100   -0.7  6     0     979.0    NA       0.0000   9999     7480  9090  0    
2019/07/16  18:25:00  BASE  1.48176  289  1.81692  290  -0.6  100   -0.6  6     0     979.0    NA       0.0000   9999     7550  9120  0    
2019/07/16  18:26:00  BASE  1.24068  282  1.81692  290  -0.6  100   -0.6  6     0     978.9    NA       0.0000   9999     9290  0     0    
2019/07/16  18:27:00  BASE  1.2054   273  1.81692  290  -0.6  100   -0.6  6     0     978.9    NA       0.0000   9999     8890  0     0    
2019/07/16  18:28:00  BASE  0.95256  280  1.81692  290  -0.6  100   -0.6  6     0     978.9    NA       0.0000   9999     9220  0     0    
2019/07/16  18:29:00  BASE  0.47628  331  1.81692  290  -0.6  100   -0.6  6     0     979.0    NA       0.0000   9999     8920  0     0    
2019/07/16  18:30:00  BASE  0.69972  40   1.81692  290  -0.7  100   -0.7  6     0     978.9    NA       0.0000   9999     8530  0     0    
2019/07/16  18:31:00  BASE  1.27008  44   1.96392  35   -0.7  100   -0.7  6     0     979.0    NA       0.0000   9999     7780  0     0    
2019/07/16  18:32:00  BASE  1.09956  22   1.96392  35   -0.8  100   -0.8  6     0     979.0    NA       0.0000   9999     8460  0     0    
2019/07/16  18:33:00  BASE  1.15836  354  2.0286   3    -0.8  100   -0.8  6     0     978.8    NA       0.0000   9999     8630  0     0    
2019/07/16  18:34:00  BASE  1.32888  341  2.0286   3    -0.8  100   -0.8  6     0     979.0    NA       0.0000   9999     8860  0     0    
2019/07/16  18:35:00  BASE  1.09956  350  2.0286   3    -0.8  100   -0.8  6     0     979.0    NA       0.0000   9999     7640  0     0    
2019/07/16  18:36:00  BASE  1.13484  358  2.0286   3    -0.8  100   -0.8  5     0     978.8    NA       0.0000   9999     8530  0     0    
2019/07/16  18:37:00  BASE  1.19364  347  2.0286   3    -0.8  100   -0.8  5     0     979.0    NA       0.0000   9999     9250  0     0    
2019/07/16  18:38:00  BASE  1.16424  339  2.0286   3    -0.8  100   -0.8  5     0     979.0    NA       0.0000   9999     8760  0     0    
2019/07/16  18:39:00  BASE  1.24656  346  2.0286   3    -0.8  100   -0.8  5     0     979.0    NA       0.0000   9999     8860  0     0    
2019/07/16  18:40:00  BASE  1.31124  353  2.0286   3    -0.8  100   -0.8  5     0     979.0    NA       0.0000   9999     8830  0     0    
2019/07/16  18:41:00  BASE  1.3818   3    2.0286   3    -0.8  100   -0.8  5     0     979.0    NA       0.0000   9999     7840  0     0    
2019/07/16  18:42:00  BASE  1.6464   10   2.1168   4    -0.8  100   -0.8  5     0     978.9    NA       0.0000   9999     7740  0     0    
2019/07/16  18:43:00  BASE  2.02272  8    2.35788  3    -0.8  100   -0.8  5     0     978.8    NA       0.0000   9999     7280  0     0    
2019/07/16  18:44:00  BASE  2.27556  6    2.48136  4    -0.8  100   -0.8  5     0     978.8    NA       0.0000   9999     6070  0     0    
2019/07/16  18:45:00  BASE  2.34612  5    2.48136  4    -0.8  100   -0.8  5     0     978.6    NA       0.0000   9999     0     0     0    
2019/07/16  18:46:00  BASE  2.39316  2    2.63424  2    -0.8  100   -0.8  5     0     978.7    NA       0.0000   9999     0     0     0    
2019/07/16  18:47:00  BASE  2.49312  357  2.63424  1    -0.9  100   -0.9  5     0     978.7    NA       0.0000   9999     0     0     0    
2019/07/16  18:48:00  BASE  2.49312  358  2.63424  1    -0.9  100   -0.9  5     0     978.7    NA       0.0000   9999     0     0     0    
2019/07/16  18:49:00  BASE  2.33436  5    2.63424  1    -0.9  100   -0.9  4     0     978.7    NA       0.0000   9999     0     0     0    
2019/07/16  18:50:00  BASE  2.15796  12   2.63424  1    -0.9  100   -0.9  4     0     978.8    NA       0.0000   9999     0     0     0    
2019/07/16  18:51:00  BASE  1.96392  22   2.63424  1    -0.9  100   -0.9  4     0     978.8    NA       0.0000   9999     0     0     0    
2019/07/16  18:52:00  BASE  1.72872  32   2.63424  1    -1.0  100   -1.0  4     0     978.6    NA       0.0000   9999     0     0     0    
2019/07/16  18:53:00  BASE  1.54644  36   2.63424  1    -1.0  100   -1.0  4     0     978.9    NA       0.0000   9999     0     0     0    
2019/07/16  18:54:00  BASE  1.37592  36   2.63424  1    -1.0  100   -1.0  3     0     978.8    NA       0.0000   9999     0     0     0    
2019/07/16  18:55:00  BASE  1.2642   27   2.63424  1    -0.9  100   -0.9  3     0     978.7    NA       0.0000   9999     0     0     0    
2019/07/16  18:56:00  BASE  1.40532  10   2.63424  1    -0.9  100   -0.9  3     0     978.7    NA       0.0000   9999     0     0     0    
2019/07/16  18:57:00  BASE  1.54644  359  2.56956  1    -0.8  100   -0.8  3     0     978.6    NA       0.0000   9999     0     0     0    
2019/07/16  18:58:00  BASE  1.5582   1    2.26968  6    -0.8  100   -0.8  3     0     978.6    NA       0.0000   9999     0     0     0    
2019/07/16  18:59:00  BASE  1.42296  8    2.21088  14   -0.8  100   -0.8  3     0     978.0    NA       0.0000   9999     0     0     0    
2019/07/16  19:00:00  BASE  1.16424  16   1.9992   24   -0.8  100   -0.8  3     0     978.6    NA       0.0000   9999     0     0     0    
2019/07/16  19:01:00  BASE  1.029    20   1.84632  6    -0.7  100   -0.7  3     0     978.7    NA       0.0000   9999     6630  0     0    
2019/07/16  19:02:00  BASE  0.96432  13   1.84632  6    -0.7  100   -0.7  3     0     978.7    NA       0.0000   9999     6500  0     0    
2019/07/16  19:03:00  BASE  1.04664  1    1.84632  6    -0.6  100   -0.6  3     0     978.7    NA       0.0000   9999     6660  0     0    
2019/07/16  19:04:00  BASE  1.53468  353  1.96392  353  -0.5  100   -0.5  3     0     978.6    NA       0.0000   9999     6760  8200  0    
2019/07/16  19:05:00  BASE  1.90512  356  2.058    354  -0.4  100   -0.4  2     0     978.6    NA       0.0000   9999     6790  8200  0    
2019/07/16  19:06:00  BASE  1.764    1    2.058    354  -0.4  100   -0.4  2     0     978.6    NA       0.0000   9999     6790  0     0    
2019/07/16  19:07:00  BASE  1.56408  6    2.058    354  -0.3  100   -0.3  2     0     978.7    NA       0.0000   9999     6790  0     0    
2019/07/16  19:08:00  BASE  1.51704  9    2.058    354  -0.3  100   -0.3  2     0     978.7    NA       0.0000   9999     7450  0     0    
2019/07/16  19:09:00  BASE  1.62288  6    2.058    354  -0.3  100   -0.3  2     0     978.7    NA       0.0000   9999     7190  0     0    
2019/07/16  19:10:00  BASE  1.6464   7    2.058    354  -0.4  100   -0.4  2     0     978.7    NA       0.0000   9999     7220  0     0    
2019/07/16  19:11:00  BASE  1.39356  16   2.058    354  -0.4  100   -0.4  2     0     978.7    NA       0.0000   9999     7780  0     0    
2019/07/16  19:12:00  BASE  1.19952  30   2.058    354  -0.4  100   -0.4  2     0     978.7    NA       0.0000   9999     7810  0     0    
2019/07/16  19:13:00  BASE  1.07016  45   2.058    354  -0.4  100   -0.4  2     0     978.7    NA       0.0000   9999     5870  0     0    
2019/07/16  19:14:00  BASE  1.00548  45   2.058    354  -0.4  100   -0.4  2     0     978.7    NA       0.0000   9999     5540  0     0    
2019/07/16  19:15:00  BASE  1.0584   27   1.87572  3    -0.4  100   -0.4  2     0     978.7    NA       0.0000   9999     6660  0     0    
2019/07/16  19:16:00  BASE  1.18776  20   1.87572  3    -0.3  100   -0.3  2     0     978.7    NA       0.0000   9999     6330  0     0    
2019/07/16  19:17:00  BASE  1.32888  30   1.87572  3    -0.2  100   -0.2  1     0     978.5    NA       0.0000   9999     5940  0     0    
2019/07/16  19:18:00  BASE  1.40532  44   1.87572  3    -0.2  100   -0.2  1     0     978.6    NA       0.0000   9999     5640  0     0    
2019/07/16  19:19:00  BASE  1.4406   49   1.81692  4    -0.1  100   -0.1  1     0     978.6    NA       0.0000   9999     5220  0     0    
2019/07/16  19:20:00  BASE  1.39944  39   1.69344  48   -0.1  100   -0.1  1     0     978.6    NA       0.0000   9999     4920  0     0    
2019/07/16  19:21:00  BASE  1.42884  24   1.69344  48   -0.1  100   -0.1  1     0     978.6    NA       0.0000   9999     4530  0     0    
2019/07/16  19:22:00  BASE  1.6758   14   2.0874   10   -0.0  100   -0.0  1     0     978.5    NA       0.0000   9999     4560  0     0    
2019/07/16  19:23:00  BASE  1.81692  10   2.0874   10   0.0   100   0.0   1     0     978.5    NA       0.0000   9999     4360  0     0    
2019/07/16  19:24:00  BASE  1.69932  14   2.0874   10   0.1   100   0.1   1     0     978.5    NA       0.0000   9999     4360  0     0    
2019/07/16  19:25:00  BASE  1.53468  25   2.0874   10   -0.0  100   -0.0  1     0     978.5    NA       0.0000   9999     3970  0     0    
2019/07/16  19:26:00  BASE  1.39944  33   2.0874   10   -0.0  100   -0.0  1     0     978.5    NA       0.0000   9999     3770  0     0    
2019/07/16  19:27:00  BASE  1.2642   33   2.0874   10   -0.1  100   -0.1  1     0     978.5    NA       0.0000   9999     4460  0     0    
2019/07/16  19:28:00  BASE  1.00548  34   2.0874   10   -0.1  100   -0.1  1     0     978.5    NA       0.0000   9999     4590  0     0    
2019/07/16  19:29:00  BASE  0.5586   41   2.0874   10   -0.0  100   -0.0  1     0     978.5    NA       0.0000   9999     4820  0     0    
2019/07/16  19:30:00  BASE  0.13524  58   2.0874   10   0.0   100   0.0   1     0     978.3    NA       0.0000   9999     4720  0     0    
2019/07/16  19:31:00  BASE  0.31164  91   2.0874   10   0.1   100   0.1   1     0     978.5    NA       0.0000   9999     4790  0     0    
2019/07/16  19:32:00  BASE  0.57036  114  1.90512  11   0.2   100   0.2   1     0     978.5    NA       0.0000   9999     4760  0     0    
2019/07/16  19:33:00  BASE  0.56448  125  1.84632  16   0.2   100   0.2   1     0     978.5    NA       0.0000   9999     4820  0     0    
2019/07/16  19:34:00  BASE  0.30576  123  1.78752  29   0.2   100   0.2   1     0     978.5    NA       0.0000   9999     4820  0     0    
2019/07/16  19:35:00  BASE  0        110  1.54056  47   0.2   100   0.2   1     0     978.5    NA       0.0000   9999     4660  0     0    
2019/07/16  19:36:00  BASE  0        73   1.35828  29   0.3   100   0.3   0     0     978.4    NA       0.0000   9999     4400  0     0    
2019/07/16  19:37:00  BASE  0        21   1.0878   41   0.4   100   0.4   0     0     978.4    NA       0.0000   9999     3740  0     0    
2019/07/16  19:38:00  BASE  0        1    0.90552  107  0.4   100   0.4   0     0     978.4    NA       0.0000   9999     3640  0     0    
2019/07/16  19:39:00  BASE  0        1    0.90552  107  0.5   100   0.5   0     0     978.4    NA       0.0000   9999     3580  0     0    
2019/07/16  19:40:00  BASE  0        1    0.90552  107  0.6   100   0.6   0     0     978.4    NA       0.0000   9999     3640  0     0    
2019/07/16  19:41:00  BASE  0        10   0.75852  130  0.6   100   0.6   0     0     978.4    NA       0.0000   9999     3810  0     0    
2019/07/16  19:42:00  BASE  0.24108  199  1.029    195  0.5   100   0.5   0     0     978.4    NA       0.0000   9999     4040  0     0    
2019/07/16  19:43:00  BASE  0.24108  202  1.029    195  0.4   100   0.4   0     0     978.4    NA       0.0000   9999     4300  0     0    
2019/07/16  19:44:00  BASE  0        218  1.029    195  0.3   100   0.3   0     0     978.3    NA       0.0000   9999     4490  0     0    
2019/07/16  19:45:00  BASE  0        239  1.029    195  0.1   100   0.1   0     0     978.3    NA       0.0000   9999     4660  0     0    
2019/07/16  19:46:00  BASE  0.05292  249  1.029    195  0.0   100   -0.0  0     0     978.2    NA       0.0000   9999     3480  0     0    
2019/07/16  19:47:00  BASE  0.45276  258  1.029    195  -0.1  100   -0.1  0     0     978.2    NA       0.0000   9999     4890  0     0    
2019/07/16  19:48:00  BASE  0.86436  260  1.029    195  -0.1  100   -0.1  0     0     978.2    NA       0.0000   9999     5380  0     0    
2019/07/16  19:49:00  BASE  0.882    265  1.029    195  -0.2  100   -0.2  0     0     978.2    NA       0.0000   9999     4950  0     0    
2019/07/16  19:50:00  BASE  0.68208  275  1.029    195  -0.2  100   -0.2  0     0     978.2    NA       0.0000   9999     5380  0     0    
2019/07/16  19:51:00  BASE  0.588    279  1.029    195  -0.2  100   -0.2  0     0     978.2    NA       0.0000   9999     5680  0     0    
2019/07/16  19:52:00  BASE  0.441    276  0.9702   259  -0.3  100   -0.3  0     0     978.2    NA       0.0000   9999     5120  0     0    
2019/07/16  19:53:00  BASE  0.11172  275  0.9702   259  -0.2  100   -0.2  0     0     978.2    NA       0.0000   9999     5050  0     0    
2019/07/16  19:54:00  BASE  0        257  0.9702   259  -0.2  100   -0.2  0     0     978.2    NA       0.0000   9999     5450  0     0    
2019/07/16  19:55:00  BASE  0.33516  222  0.9702   259  -0.1  100   -0.1  0     0     978.2    NA       0.0000   9999     5970  0     0    
2019/07/16  19:56:00  BASE  0.79968  185  1.0878   158  -0.1  100   -0.1  0     0     978.2    NA       0.0000   9999     6200  0     0    
2019/07/16  19:57:00  BASE  1.07016  158  1.35828  147  -0.2  100   -0.2  0     0     978.3    NA       0.0000   9999     7350  0     0    
2019/07/16  19:58:00  BASE  1.13484  159  1.35828  147  -0.4  100   -0.4  0     0     978.3    NA       0.0000   9999     7120  0     0    
2019/07/16  19:59:00  BASE  1.05252  173  1.35828  147  -0.5  100   -0.5  0     0     978.3    NA       0.0000   9999     6990  0     0    
2019/07/16  20:00:00  BASE  1.29948  175  1.93452  168  -0.6  100   -0.6  0     0     978.3    NA       0.0000   9999     6760  0     0    
2019/07/16  20:01:00  BASE  1.86984  173  2.42256  186  -0.7  100   -0.7  0     0     978.3    NA       0.0000   9999     6660  0     0    
2019/07/16  20:02:00  BASE  2.352    181  2.75184  184  -0.7  100   -0.7  0     0     978.3    NA       0.0000   9999     0     0     0    
2019/07/16  20:03:00  BASE  2.04624  188  2.75184  184  -0.7  100   -0.7  0     0     978.2    NA       0.0000   9999     0     0     0    
2019/07/16  20:04:00  BASE  1.36416  201  2.75184  184  -0.7  100   -0.7  0     0     978.2    NA       0.0000   9999     0     0     0    
2019/07/16  20:05:00  BASE  1.04076  223  2.75184  184  -0.6  100   -0.6  0     0     978.2    NA       0.0000   9999     7480  0     0    
2019/07/16  20:06:00  BASE  0.48216  231  2.75184  184  -0.5  100   -0.5  0     0     978.2    NA       0.0000   9999     6920  0     0    
2019/07/16  20:07:00  BASE  0.08232  238  2.75184  184  -0.4  100   -0.4  0     0     978.1    NA       0.0000   9999     6990  0     0    
2019/07/16  20:08:00  BASE  0.51744  251  2.75184  184  -0.3  100   -0.3  0     0     978.1    NA       0.0000   9999     6660  0     0    
2019/07/16  20:09:00  BASE  1.14072  257  2.75184  184  -0.2  100   -0.2  0     0     978.1    NA       0.0000   9999     6230  0     0    
2019/07/16  20:10:00  BASE  2.01096  248  4.1454   232  -0.2  100   -0.2  0     0     978.0    NA       0.0000   9999     6560  0     0    
2019/07/16  20:11:00  BASE  2.94     220  5.74476  230  -0.1  100   -0.1  0     0     978.0    NA       0.0000   9999     6270  0     0    
2019/07/16  20:12:00  BASE  2.69304  132  5.74476  230  -0.1  100   -0.1  0     0     978.1    NA       0.0000   9999     5640  0     0    
2019/07/16  20:13:00  BASE  1.75224  90   5.74476  230  -0.1  100   -0.1  0     0     978.2    NA       0.0000   9999     6430  0     0    
2019/07/16  20:14:00  BASE  1.68168  61   5.74476  230  -0.2  100   -0.2  0     0     978.2    NA       0.0000   9999     6370  0     0    
2019/07/16  20:15:00  BASE  2.13444  28   5.74476  230  -0.3  100   -0.3  0     0     978.1    NA       0.0000   9999     5510  0     0    
2019/07/16  20:16:00  BASE  1.74048  18   5.74476  230  -0.5  100   -0.5  0     0     978.1    NA       0.0000   9999     3940  0     0    
2019/07/16  20:17:00  BASE  1.5876   26   5.74476  230  -0.7  100   -0.7  0     0     978.0    NA       0.0000   9999     3940  0     0    
2019/07/16  20:18:00  BASE  1.86396  9    5.74476  230  -0.8  100   -0.8  0     0     977.9    NA       0.0000   9999     3940  4990  0    
2019/07/16  20:19:00  BASE  2.5872   351  5.74476  230  -0.9  100   -0.9  0     0     977.9    NA       0.0000   9999     4490  0     0    
2019/07/16  20:20:00  BASE  2.45784  360  5.74476  230  -0.9  100   -0.9  0     0     978.0    NA       0.0000   9999     4040  0     0    
2019/07/16  20:21:00  BASE  1.61112  3    3.96312  352  -0.9  100   -0.9  0     0     978.0    NA       0.0000   9999     4530  0     0    
2019/07/16  20:22:00  BASE  1.62876  336  3.96312  352  -0.8  100   -0.8  0     0     977.9    NA       0.0000   9999     4360  4920  0    
2019/07/16  20:23:00  BASE  1.50528  331  3.96312  352  -0.8  100   -0.8  0     0     978.0    NA       0.0000   9999     4530  0     0    
2019/07/16  20:24:00  BASE  1.52292  330  3.96312  352  -0.8  100   -0.8  0     0     977.9    NA       0.0000   9999     4560  0     0    
2019/07/16  20:25:00  BASE  1.44648  301  3.96312  352  -0.8  100   -0.8  0     0     977.9    NA       0.0000   9999     5180  0     0    
2019/07/16  20:26:00  BASE  1.15836  290  3.96312  352  -0.7  100   -0.7  0     0     977.9    NA       0.0000   9999     5150  7640  0    
2019/07/16  20:27:00  BASE  0.74676  291  3.96312  352  -0.6  100   -0.6  0     0     977.9    NA       0.0000   9999     4360  0     0    
2019/07/16  20:28:00  BASE  0.63504  314  3.96312  352  -0.5  100   -0.5  0     0     977.9    NA       0.0000   9999     4000  0     0    
2019/07/16  20:29:00  BASE  0.82908  7    2.21088  12   -0.4  100   -0.4  0     0     977.9    NA       0.0000   9999     3940  0     0    
2019/07/16  20:30:00  BASE  0.8526   5    2.0874   105  -0.3  100   -0.3  0     0     977.9    NA       0.0000   9999     4100  0     0    
2019/07/16  20:31:00  BASE  0.94668  61   2.0874   105  -0.2  100   -0.2  0     0     977.9    NA       0.0000   9999     4200  0     0    
2019/07/16  20:32:00  BASE  1.5876   109  2.69304  127  -0.1  100   -0.1  0     0     977.9    NA       0.0000   9999     4130  0     0    
2019/07/16  20:33:00  BASE  2.42256  122  3.1164   118  0.1   100   0.1   0     0     977.9    NA       0.0000   9999     3870  0     0    
2019/07/16  20:34:00  BASE  3.27516  111  5.53308  100  0.2   100   0.2   0     0     977.8    NA       0.0000   9999     3770  0     0    
2019/07/16  20:35:00  BASE  4.85688  94   7.13832  100  0.4   100   0.4   0     0     977.7    NA       0.0000   9999     3870  4490  0    
2019/07/16  20:36:00  BASE  6.21516  94   7.3794   93   0.7   100   0.7   0     0     977.7    NA       0.0000   9999     3870  0     0    
2019/07/16  20:37:00  BASE  6.6738   97   7.62048  96   1.0   100   1.0   0     0     977.7    NA       0.0000   9999     3870  0     0    
2019/07/16  20:38:00  BASE  6.87372  100  7.89684  107  1.2   100   1.2   0     0     977.6    NA       0.0000   9999     3610  0     0    
2019/07/16  20:39:00  BASE  6.76788  103  7.89684  107  1.5   100   1.5   0     0     977.6    NA       0.0000   9999     3740  0     0    
2019/07/16  20:40:00  BASE  6.70908  105  7.89684  107  1.7   100   1.7   0     0     977.5    NA       0.0000   9999     4040  0     0    
2019/07/16  20:41:00  BASE  6.43272  108  7.89684  107  1.8   100   1.8   0     0     977.6    NA       0.0000   9999     4100  0     0    
2019/07/16  20:42:00  BASE  6.07992  102  7.89684  107  1.9   99    1.7   0     0     977.6    NA       0.0000   9999     6990  0     0    
2019/07/16  20:43:00  BASE  6.48564  97   7.89684  107  2.0   98    1.6   0     0     977.5    NA       0.0000   9999     3940  0     0    
2019/07/16  20:44:00  BASE  6.49152  96   7.92624  92   2.0   96    1.4   0     0     977.5    NA       0.0000   9999     4000  0     0    
2019/07/16  20:45:00  BASE  6.83844  95   8.74356  93   2.0   95    1.2   0     0     977.4    NA       0.0000   9999     3870  0     0    
2019/07/16  20:46:00  BASE  7.8498   99   8.98464  101  1.9   93    1.0   0     0     977.4    NA       0.0000   9999     7510  0     0    
2019/07/16  20:47:00  BASE  7.51464  104  8.98464  101  1.9   93    0.9   0     0     977.5    NA       0.0000   9999     7550  0     0    
2019/07/16  20:48:00  BASE  6.31512  103  8.98464  101  1.9   92    0.8   0     0     977.5    NA       0.0000   9999     7970  0     0    
2019/07/16  20:49:00  BASE  6.47976  105  8.98464  101  1.9   92    0.7   0     0     977.4    NA       0.0000   9999     7710  0     0    
2019/07/16  20:50:00  BASE  7.15596  110  8.98464  101  1.9   91    0.6   0     0     977.3    NA       0.0000   9999     8370  0     0    
2019/07/16  20:51:00  BASE  7.03248  106  8.98464  101  1.8   91    0.5   0     0     977.3    NA       0.0000   9999     8690  0     0    
2019/07/16  20:52:00  BASE  7.497    104  8.98464  101  1.8   91    0.5   0     0     977.3    NA       0.0000   9999     8960  0     0    
2019/07/16  20:53:00  BASE  8.33196  109  9.31392  104  1.7   91    0.4   0     0     977.3    NA       0.0000   9999     7940  0     0    
2019/07/16  20:54:00  BASE  8.18496  110  9.31392  104  1.7   91    0.4   0     0     977.2    NA       0.0000   9999     9320  0     0    
2019/07/16  20:55:00  BASE  8.57304  112  10.3429  116  1.7   91    0.4   0     0     977.2    NA       0.0000   9999     7940  0     0    
2019/07/16  20:56:00  BASE  9.4374   111  10.5546  105  1.7   92    0.5   0     0     977.2    NA       0.0000   9999     8500  0     0    
2019/07/16  20:57:00  BASE  9.13164  111  10.5546  105  1.7   92    0.5   0     0     977.3    NA       0.0000   9999     7640  0     0    
2019/07/16  20:58:00  BASE  8.24964  114  10.5546  105  1.7   92    0.5   0     0     977.3    NA       0.0000   9999     7580  0     0    
2019/07/16  20:59:00  BASE  7.97328  112  10.5546  105  1.7   92    0.5   0     0     977.3    NA       0.0000   9999     7610  0     0    
2019/07/16  21:00:00  BASE  8.30256  111  10.5546  105  1.6   92    0.5   0     0     977.3    NA       0.0000   9999     7640  0     0    
2019/07/16  21:01:00  BASE  7.74984  115  10.5546  105  1.6   92    0.4   0     0     977.3    NA       0.0000   9999     7550  0     0    
2019/07/16  21:02:00  BASE  6.60912  113  10.5546  105  1.6   92    0.4   0     0     977.3    NA       0.0000   9999     7680  0     0    
2019/07/16  21:03:00  BASE  7.938    105  10.7663  101  1.5   92    0.3   0     0     977.2    NA       0.0000   9999     7740  0     0    
2019/07/16  21:04:00  BASE  9.21396  101  10.7663  101  1.5   92    0.3   0     0     977.2    NA       0.0000   9999     3770  0     0    
2019/07/16  21:05:00  BASE  7.82628  105  10.7663  101  1.5   92    0.3   0     0     977.3    NA       0.0000   9999     3450  0     0    
2019/07/16  21:06:00  BASE  7.53816  109  10.7663  101  1.5   92    0.4   0     0     977.2    NA       0.0000   9999     7050  0     0    
2019/07/16  21:07:00  BASE  8.1732   110  10.7663  101  1.5   92    0.3   0     0     977.2    NA       0.0000   9999     6730  0     0    
2019/07/16  21:08:00  BASE  8.78472  109  10.7663  101  1.5   92    0.4   0     0     977.2    NA       0.0000   9999     6760  0     0    
2019/07/16  21:09:00  BASE  8.59068  109  10.7663  101  1.5   92    0.3   0     0     977.2    NA       0.0000   9999     6590  0     0    
2019/07/16  21:10:00  BASE  7.94976  111  10.7663  101  1.5   91    0.3   0     0     977.2    NA       0.0000   9999     6370  0     0    
2019/07/16  21:11:00  BASE  8.62008  113  10.7663  101  1.5   91    0.2   0     0     977.1    NA       0.0000   9999     4300  0     0    
2019/07/16  21:12:00  BASE  9.13752  118  10.7663  101  1.5   92    0.3   0     0     977.0    NA       0.0000   9999     5120  0     0    
2019/07/16  21:13:00  BASE  8.60244  122  10.3782  98   1.5   92    0.3   0     0     977.1    NA       0.0000   9999     0     0     0    
2019/07/16  21:14:00  BASE  8.06736  124  10.1665  115  1.6   92    0.4   0     0     977.1    NA       0.0000   9999     3970  0     0    
2019/07/16  21:15:00  BASE  7.57344  128  10.1665  115  1.6   92    0.5   0     0     977.1    NA       0.0000   9999     3810  0     0    
2019/07/16  21:16:00  BASE  7.16772  138  10.1665  115  1.7   92    0.5   0     0     977.1    NA       0.0000   9999     9020  0     0    
2019/07/16  21:17:00  BASE  7.056    139  10.1665  115  1.7   91    0.5   0     0     977.1    NA       0.0000   9999     9380  0     0    
2019/07/16  21:18:00  BASE  6.67968  137  10.1665  115  1.7   91    0.4   0     0     977.1    NA       0.0000   9999     8100  0     0    
2019/07/16  21:19:00  BASE  6.39156  136  10.1665  115  1.7   91    0.3   0     0     977.1    NA       0.0000   9999     8010  0     0    
2019/07/16  21:20:00  BASE  6.38568  133  10.1665  115  1.6   91    0.3   0     0     977.0    NA       0.0000   9999     7970  0     0    
2019/07/16  21:21:00  BASE  6.09756  137  9.56088  119  1.6   91    0.2   0     0     977.0    NA       0.0000   9999     7710  0     0    
2019/07/16  21:22:00  BASE  6.4386   137  9.04344  120  1.5   91    0.2   0     0     977.0    NA       0.0000   9999     7710  0     0    
2019/07/16  21:23:00  BASE  6.90312  132  9.04344  120  1.5   91    0.2   0     0     977.1    NA       0.0000   9999     7870  0     0    
2019/07/16  21:24:00  BASE  6.89136  130  8.3202   129  1.5   91    0.2   0     0     977.0    NA       0.0000   9999     7810  0     0    
2019/07/16  21:25:00  BASE  7.28532  128  8.3202   129  1.5   92    0.2   0     0     977.0    NA       0.0000   9999     7870  0     0    
2019/07/16  21:26:00  BASE  7.88508  125  9.31392  122  1.4   92    0.2   0     0     977.0    NA       0.0000   9999     7940  0     0    
2019/07/16  21:27:00  BASE  7.94388  121  9.31392  122  1.4   92    0.3   0     0     977.0    NA       0.0000   9999     7680  0     0    
2019/07/16  21:28:00  BASE  7.5264   120  9.31392  122  1.3   92    0.2   0     0     977.0    NA       0.0000   9999     7710  0     0    
2019/07/16  21:29:00  BASE  7.66164  123  9.70788  122  1.2   93    0.2   0     0     976.9    NA       0.0000   9999     7680  0     0    
2019/07/16  21:30:00  BASE  8.085    122  9.70788  122  1.2   93    0.2   0     0     977.0    NA       0.0000   9999     7710  0     0    
2019/07/16  21:31:00  BASE  8.75532  120  10.2547  113  1.1   94    0.3   0     0     976.9    NA       0.0000   9999     7580  0     0    
2019/07/16  21:32:00  BASE  8.82588  122  10.2547  113  1.1   94    0.3   0     0     976.9    NA       0.0000   9999     7680  0     0    
2019/07/16  21:33:00  BASE  8.01444  123  10.2547  113  1.1   95    0.3   0     0     977.0    NA       0.0000   9999     7510  0     0    
2019/07/16  21:34:00  BASE  7.50876  120  10.2547  113  1.0   95    0.3   0     0     977.0    NA       0.0000   9999     7550  0     0    
2019/07/16  21:35:00  BASE  7.19124  118  10.2547  113  1.0   96    0.3   0     0     977.0    NA       0.0000   9999     6890  0     0    
2019/07/16  21:36:00  BASE  6.93252  116  10.2547  113  0.9   96    0.4   0     0     977.0    NA       0.0000   9999     6590  0     0    
2019/07/16  21:37:00  BASE  6.00936  114  10.2547  113  0.9   96    0.4   0     0     977.0    NA       0.0000   9999     6920  0     0    
2019/07/16  21:38:00  BASE  5.53308  116  10.2547  113  0.9   97    0.4   0     0     977.0    NA       0.0000   9999     6730  0     0    
2019/07/16  21:39:00  BASE  6.30336  119  10.2547  113  0.9   97    0.5   0     0     977.0    NA       0.0000   9999     6790  0     0    
2019/07/16  21:40:00  BASE  6.35628  118  10.2547  113  0.9   97    0.5   0     0     977.0    NA       0.0000   9999     9020  0     0    
2019/07/16  21:41:00  BASE  6.45624  116  9.22572  127  0.9   98    0.6   0     0     976.9    NA       0.0000   9999     9020  0     0    
2019/07/16  21:42:00  BASE  7.1736   106  8.379    130  1.0   98    0.6   0     0     976.8    NA       0.0000   9999     6140  0     0    
2019/07/16  21:43:00  BASE  7.78512  95   10.4958  95   1.1   98    0.7   0     0     976.8    NA       0.0000   9999     6660  0     0    
2019/07/16  21:44:00  BASE  8.89644  92   10.978   87   1.2   97    0.8   0     0     976.7    NA       0.0000   9999     9350  0     0    
2019/07/16  21:45:00  BASE  9.28452  93   10.978   87   1.3   96    0.8   0     0     976.7    NA       0.0000   9999     9220  0     0    
2019/07/16  21:46:00  BASE  8.54952  90   10.978   87   1.4   95    0.7   0     0     976.8    NA       0.0000   9999     9060  0     0    
2019/07/16  21:47:00  BASE  8.04972  88   10.978   87   1.5   94    0.6   0     0     976.8    NA       0.0000   9999     6660  0     0    
2019/07/16  21:48:00  BASE  7.59696  94   10.978   87   1.6   93    0.5   0     0     976.8    NA       0.0000   9999     6690  0     0    
2019/07/16  21:49:00  BASE  8.085    103  10.978   87   1.6   91    0.3   0     0     976.8    NA       0.0000   9999     6590  0     0    
2019/07/16  21:50:00  BASE  8.83176  98   10.978   87   1.6   90    0.2   0     0     976.8    NA       0.0000   9999     6860  0     0    
2019/07/16  21:51:00  BASE  9.13752  84   10.978   87   1.6   90    0.1   0     0     976.7    NA       0.0000   9999     6690  0     0    
2019/07/16  21:52:00  BASE  8.64948  75   10.978   87   1.6   89    0.0   0     0     976.7    NA       0.0000   9999     6560  0     0    
2019/07/16  21:53:00  BASE  7.60284  76   10.978   87   1.7   89    0.0   0     0     976.8    NA       0.0000   9999     6630  0     0    
2019/07/16  21:54:00  BASE  7.1148   80   10.8016  94   1.8   88    0.0   0     0     976.8    NA       0.0000   9999     6630  0     0    
2019/07/16  21:55:00  BASE  7.1148   90   10.5252  102  1.9   87    -0.0  0     0     976.8    NA       0.0000   9999     8860  0     0    
2019/07/16  21:56:00  BASE  6.88548  106  10.5252  102  2.0   86    -0.1  0     0     976.8    NA       0.0000   9999     6590  0     0    
2019/07/16  21:57:00  BASE  6.10344  106  10.5252  102  1.9   85    -0.3  0     0     976.8    NA       0.0000   9999     8690  0     0    
2019/07/16  21:58:00  BASE  6.03876  90   10.5252  102  1.9   85    -0.4  0     0     976.8    NA       0.0000   9999     5090  6560  0    
2019/07/16  21:59:00  BASE  5.92116  88   10.2253  78   1.9   85    -0.4  0     0     976.8    NA       0.0000   9999     5120  0     0    
2019/07/16  22:00:00  BASE  5.78592  95   10.2253  78   1.9   84    -0.5  0     0     976.8    NA       0.0000   9999     6560  0     0    
2019/07/16  22:01:00  BASE  6.4386   92   8.95524  96   1.8   84    -0.5  0     0     976.7    NA       0.0000   9999     8560  0     0    
2019/07/16  22:02:00  BASE  6.5856   89   8.95524  96   1.8   85    -0.5  0     0     976.7    NA       0.0000   9999     6660  0     0    
2019/07/16  22:03:00  BASE  6.0564   90   8.95524  96   1.8   85    -0.5  0     0     976.8    NA       0.0000   9999     6590  0     0    
2019/07/16  22:04:00  BASE  5.78004  95   8.95524  96   1.8   84    -0.6  0     0     976.8    NA       0.0000   9999     9020  0     0    
2019/07/16  22:05:00  BASE  6.15048  109  7.3794   117  1.8   84    -0.6  0     0     976.8    NA       0.0000   9999     8960  0     0    
2019/07/16  22:06:00  BASE  6.9972   119  8.379    121  1.7   85    -0.6  0     0     976.7    NA       0.0000   9999     8960  0     0    
2019/07/16  22:07:00  BASE  7.65576  122  9.3492   128  1.6   85    -0.7  0     0     976.6    NA       0.0000   9999     8860  0     0    
2019/07/16  22:08:00  BASE  7.17948  120  9.3492   128  1.4   86    -0.7  0     0     976.7    NA       0.0000   9999     6530  0     0    
2019/07/16  22:09:00  BASE  6.79728  117  9.3492   128  1.3   87    -0.7  0     0     976.7    NA       0.0000   9999     8790  0     0    
2019/07/16  22:10:00  BASE  6.90312  114  9.3492   128  1.2   89    -0.5  0     0     976.6    NA       0.0000   9999     8040  0     0    
2019/07/16  22:11:00  BASE  6.468    105  9.3492   128  1.2   90    -0.3  0     0     976.7    NA       0.0000   9999     8200  0     0    
2019/07/16  22:12:00  BASE  6.13284  99   9.3492   128  1.2   91    -0.2  0     0     976.7    NA       0.0000   9999     8460  0     0    
2019/07/16  22:13:00  BASE  5.48604  102  9.3492   128  1.2   91    -0.1  0     0     976.7    NA       0.0000   9999     8530  0     0    
2019/07/16  22:14:00  BASE  5.15088  102  9.3492   128  1.3   91    -0.1  0     0     976.7    NA       0.0000   9999     8630  0     0    
2019/07/16  22:15:00  BASE  5.48016  99   9.3492   128  1.3   90    -0.1  0     0     976.7    NA       0.0000   9999     8600  0     0    
2019/07/16  22:16:00  BASE  5.68008  97   9.3492   128  1.2   90    -0.2  0     0     976.7    NA       0.0000   9999     8630  0     0    
2019/07/16  22:17:00  BASE  4.96272  94   7.59108  121  1.2   90    -0.2  0     0     976.7    NA       0.0000   9999     8690  0     0    
2019/07/16  22:18:00  BASE  4.63932  95   7.59108  121  1.2   90    -0.2  0     0     976.7    NA       0.0000   9999     6200  0     0    
2019/07/16  22:19:00  BASE  5.13324  100  7.05012  113  1.2   91    -0.2  0     0     976.7    NA       0.0000   9999     7120  0     0    
2019/07/16  22:20:00  BASE  5.38608  102  6.59148  99   1.1   91    -0.2  0     0     976.7    NA       0.0000   9999     8400  0     0    
2019/07/16  22:21:00  BASE  5.58012  99   6.59148  99   1.1   91    -0.2  0     0     976.7    NA       0.0000   9999     4070  0     0    
2019/07/16  22:22:00  BASE  5.28024  92   6.59148  99   1.1   91    -0.2  0     0     976.7    NA       0.0000   9999     3970  0     0    
2019/07/16  22:23:00  BASE  4.63344  87   6.59148  99   1.1   91    -0.2  0     0     976.7    NA       0.0000   9999     3970  0     0    
2019/07/16  22:24:00  BASE  3.92784  84   6.59148  99   1.1   91    -0.2  0     0     976.8    NA       0.0000   9999     3970  0     0    
2019/07/16  22:25:00  BASE  3.0576   81   6.59148  99   1.2   91    -0.1  0     0     976.8    NA       0.0000   9999     3970  0     0    
2019/07/16  22:26:00  BASE  2.39904  59   6.2034   102  1.2   91    -0.1  0     0     976.8    NA       0.0000   9999     3900  0     0    
2019/07/16  22:27:00  BASE  2.28732  34   6.2034   102  1.2   91    -0.1  0     0     976.8    NA       0.0000   9999     3870  0     0    
2019/07/16  22:28:00  BASE  2.00508  27   6.13872  100  1.2   91    -0.1  0     0     976.8    NA       0.0000   9999     3410  3940  0    
2019/07/16  22:29:00  BASE  1.4406   12   6.07992  101  1.1   92    -0.1  0     0     976.8    NA       0.0000   9999     3280  3900  0    
2019/07/16  22:30:00  BASE  1.27596  3    5.99172  103  1.1   92    -0.0  0     0     976.8    NA       0.0000   9999     3220  3870  0    
2019/07/16  22:31:00  BASE  1.53468  3    5.59776  91   1.0   93    -0.0  0     0     976.9    NA       0.0000   9999     3180  3810  0    
2019/07/16  22:32:00  BASE  1.8228   1    4.68636  82   1.0   94    0.0   0     0     976.9    NA       0.0000   9999     3150  3810  0    
2019/07/16  22:33:00  BASE  2.27556  3    4.116    85   0.9   94    0.1   0     0     976.9    NA       0.0000   9999     3180  3870  0    
2019/07/16  22:34:00  BASE  2.39316  5    3.2046   77   0.8   95    0.2   0     0     977.0    NA       0.0000   9999     3120  3840  0    
2019/07/16  22:35:00  BASE  2.24028  6    3.2046   77   0.8   96    0.2   0     0     977.0    NA       0.0000   9999     3020  0     0    
2019/07/16  22:36:00  BASE  2.94     7    3.93372  6    0.7   96    0.2   0     0     977.0    NA       0.0000   9999     3050  0     0    
2019/07/16  22:37:00  BASE  3.42216  11   3.93372  6    0.7   97    0.2   0     0     977.0    NA       0.0000   9999     3080  3810  0    
2019/07/16  22:38:00  BASE  3.5868   12   4.38648  8    0.6   97    0.2   0     0     977.0    NA       0.0000   9999     3050  0     0    
2019/07/16  22:39:00  BASE  4.0572   7    4.47468  1    0.5   98    0.2   0     0     976.9    NA       0.0000   9999     3080  0     0    
2019/07/16  22:40:00  BASE  4.06308  360  4.47468  1    0.5   98    0.3   0     0     976.8    NA       0.0000   9999     3150  0     0    
2019/07/16  22:41:00  BASE  3.7338   352  4.47468  1    0.5   99    0.4   0     0     976.8    NA       0.0000   9999     3150  0     0    
2019/07/16  22:42:00  BASE  3.71028  348  4.47468  1    0.5   99    0.4   0     0     976.8    NA       0.0000   9999     3180  0     0    
2019/07/16  22:43:00  BASE  4.12776  346  4.65696  347  0.6   100   0.6   0     0     976.9    NA       0.0000   9999     3220  0     0    
2019/07/16  22:44:00  BASE  4.54524  348  5.08032  351  0.6   100   0.6   0     0     976.8    NA       0.0000   9999     3220  0     0    
2019/07/16  22:45:00  BASE  4.6746   350  5.08032  353  0.7   100   0.7   0     0     976.9    NA       0.0000   9999     3250  0     0    
2019/07/16  22:46:00  BASE  4.41     350  5.08032  353  0.7   100   0.7   0     0     976.9    NA       0.0000   9999     3220  0     0    
2019/07/16  22:47:00  BASE  4.41     348  5.2332   348  0.7   100   0.7   0     0     976.8    NA       0.0000   9999     0     0     0    
2019/07/16  22:48:00  BASE  4.92744  346  5.3214   345  0.7   100   0.7   0     0     976.8    NA       0.0000   9999     0     0     0    
2019/07/16  22:49:00  BASE  5.00388  346  5.3214   345  0.7   100   0.7   0     0     976.8    NA       0.0000   9999     3540  0     0    
2019/07/16  22:50:00  BASE  4.68636  347  5.3214   345  0.7   100   0.7   0     0     976.8    NA       0.0000   9999     0     0     0    
2019/07/16  22:51:00  BASE  4.22184  348  5.3214   345  0.6   100   0.6   0     0     976.8    NA       0.0000   9999     3940  0     0    
2019/07/16  22:52:00  BASE  4.116    345  5.3214   345  0.6   100   0.6   0     0     976.8    NA       0.0000   9999     3940  0     0    
2019/07/16  22:53:00  BASE  4.42764  338  5.3214   345  0.5   100   0.5   0     0     976.8    NA       0.0000   9999     0     0     0    
2019/07/16  22:54:00  BASE  4.51584  337  5.3214   345  0.5   100   0.5   0     0     976.8    NA       0.0000   9999     0     0     0    
2019/07/16  22:55:00  BASE  4.55112  338  5.3214   345  0.4   100   0.4   0     0     976.8    NA       0.0000   9999     0     0     0    
2019/07/16  22:56:00  BASE  4.83924  340  5.3214   345  0.4   100   0.4   0     0     976.8    NA       0.0000   9999     0     0     0    
2019/07/16  22:57:00  BASE  4.86864  344  5.3214   345  0.4   100   0.4   0     0     976.8    NA       0.0000   9999     0     0     0    
2019/07/16  22:58:00  BASE  4.06896  348  5.145    341  0.5   100   0.5   0     0     976.9    NA       0.0000   9999     0     0     0    
2019/07/16  22:59:00  BASE  2.91648  353  5.145    341  0.5   100   0.5   0     0     977.0    NA       0.0000   9999     3970  0     0    
2019/07/16  23:00:00  BASE  2.48136  352  5.145    341  0.5   100   0.5   0     0     977.0    NA       0.0000   9999     0     0     0    
2019/07/16  23:01:00  BASE  2.65776  349  5.145    341  0.5   100   0.5   0     0     977.0    NA       0.0000   9999     0     0     0    
2019/07/16  23:02:00  BASE  2.62836  347  5.145    341  0.5   100   0.5   0     0     977.0    NA       0.0000   9999     0     0     0    
2019/07/16  23:03:00  BASE  2.5284   345  5.145    341  0.5   100   0.5   0     0     977.0    NA       0.0000   9999     0     0     0    
2019/07/16  23:04:00  BASE  2.26968  350  5.145    341  0.4   100   0.4   0     0     977.0    NA       0.0000   9999     0     0     0    
2019/07/16  23:05:00  BASE  1.8522   3    5.145    341  0.4   100   0.4   0     0     977.0    NA       0.0000   9999     0     0     0    
2019/07/16  23:06:00  BASE  1.69932  17   4.83924  345  0.4   100   0.4   0     0     976.9    NA       0.0000   9999     850   0     0    
2019/07/16  23:07:00  BASE  1.94628  14   4.35708  353  0.4   100   0.4   0     0     976.8    NA       0.0000   UP       9999  0     0    
2019/07/16  23:08:00  BASE  2.2638   2    2.87532  346  0.4   100   0.4   0     0     976.8    NA       0.0000   UP       9999  520   0    
2019/07/16  23:09:00  BASE  2.3226   352  3.1458   345  0.5   100   0.5   0     0     976.8    NA       0.0000   UP       9999  560   0    
2019/07/16  23:10:00  BASE  2.08152  349  3.1458   345  0.5   100   0.5   0     0     976.8    NA       0.0000   UP       9999  390   0    
2019/07/16  23:11:00  BASE  2.28732  348  3.234    345  0.5   100   0.5   0     0     976.7    NA       0.0000   UP       8000  0     0    
2019/07/16  23:12:00  BASE  3.09876  343  3.81024  340  0.5   100   0.5   0     0     976.7    NA       0.0000   UP       9000  0     0    
2019/07/16  23:13:00  BASE  3.72792  340  4.2042   340  0.4   100   0.4   0     0     976.7    NA       0.0000   -SN      9999  0     0    
2019/07/16  23:14:00  BASE  4.06308  340  4.32768  336  0.4   100   0.4   0     0     976.7    NA       0.0000   -SN      9999  0     0    
2019/07/16  23:15:00  BASE  4.24536  339  4.75104  342  0.3   100   0.3   0     0     976.7    NA       0.0000   -SN      9999  0     0    
2019/07/16  23:16:00  BASE  4.3218   341  4.75104  342  0.2   100   0.2   0     0     976.7    NA       0.0000   -SN      9999  0     0    
2019/07/16  23:17:00  BASE  4.263    342  4.75104  342  0.2   100   0.2   0     0     976.7    NA       0.0000   -SN      9999  0     0    
2019/07/16  23:18:00  BASE  3.93372  344  4.75104  342  0.2   100   0.2   0     0     976.7    NA       0.0000   -SN      9999  0     0    
2019/07/16  23:19:00  BASE  3.75144  346  4.75104  342  0.2   100   0.2   0     0     976.7    NA       0.0000   -SN      9999  0     0    
2019/07/16  23:20:00  BASE  3.4986   353  4.75104  342  0.2   100   0.2   0     0     976.7    NA       0.0000   -SN      9999  0     0    
2019/07/16  23:21:00  BASE  3.36336  354  4.75104  342  0.2   100   0.2   0     0     976.7    NA       0.0000   -SN      9999  0     0    
2019/07/16  23:22:00  BASE  3.73968  348  4.75104  342  0.1   100   0.1   0     0     976.7    NA       0.0000   -SN      9999  0     0    
2019/07/16  23:23:00  BASE  3.75144  345  4.75104  342  0.1   100   0.1   0     0     976.7    NA       0.0000   -SN      9999  0     0    
2019/07/16  23:24:00  BASE  3.38688  346  4.75104  342  0.1   100   0.1   0     0     976.7    NA       0.0000   -SN      9999  0     0    
2019/07/16  23:25:00  BASE  3.26928  345  4.72164  343  0.1   100   0.1   0     0     976.7    NA       0.0000   -SN      9999  0     0    
2019/07/16  23:26:00  BASE  3.4104   341  4.56876  344  0.2   100   0.2   0     0     976.7    NA       0.0000   -SN      9999  0     0    
2019/07/16  23:27:00  BASE  3.4104   338  4.2042   349  0.2   100   0.2   0     0     976.7    NA       0.0000   -SN      9999  0     0    
2019/07/16  23:28:00  BASE  3.38688  338  4.2042   349  0.2   100   0.2   0     0     976.7    NA       0.0000   -SN      9999  0     0    
2019/07/16  23:29:00  BASE  3.19284  341  4.05132  347  0.2   100   0.2   0     0     976.7    NA       0.0000   9999     0     0     0    
2019/07/16  23:30:00  BASE  2.98116  342  4.05132  347  0.2   100   0.2   0     0     976.7    NA       0.0000   9999     0     0     0    
2019/07/16  23:31:00  BASE  3.11052  346  4.41588  348  0.3   100   0.3   0     0     976.7    NA       0.0000   9999     0     0     0    
2019/07/16  23:32:00  BASE  3.65148  349  4.68636  339  0.3   100   0.3   0     0     976.7    NA       0.0000   9999     0     0     0    
2019/07/16  23:33:00  BASE  4.1748   347  5.10972  346  0.4   100   0.4   0     0     976.7    NA       0.0000   9999     0     0     0    
2019/07/16  23:34:00  BASE  4.29828  349  5.10972  346  0.5   100   0.5   0     0     976.6    NA       0.0000   9999     0     0     0    
2019/07/16  23:35:00  BASE  4.54524  348  5.145    349  0.5   100   0.5   0     0     976.6    NA       0.0000   9999     0     0     0    
2019/07/16  23:36:00  BASE  4.53348  346  5.145    349  0.6   100   0.6   0     0     976.7    NA       0.0000   9999     0     0     0    
2019/07/16  23:37:00  BASE  3.95136  346  5.145    349  0.6   100   0.6   0     0     976.7    NA       0.0000   9999     0     0     0    
2019/07/16  23:38:00  BASE  3.89844  345  5.145    349  0.6   100   0.6   0     0     976.7    NA       0.0000   9999     0     0     0    
2019/07/16  23:39:00  BASE  3.98664  341  5.145    349  0.5   100   0.5   0     0     976.7    NA       0.0000   9999     0     0     0    
2019/07/16  23:40:00  BASE  3.9984   342  5.145    349  0.5   100   0.5   0     0     976.6    NA       0.0000   9999     0     0     0    
2019/07/16  23:41:00  BASE  4.47468  345  5.35668  343  0.5   100   0.5   0     0     976.6    NA       0.0000   9999     3510  0     0    
2019/07/16  23:42:00  BASE  4.9686   345  5.59776  344  0.4   100   0.4   0     0     976.6    NA       0.0000   9999     3580  0     0    
2019/07/16  23:43:00  BASE  5.00976  346  5.59776  344  0.4   100   0.4   0     0     976.6    NA       0.0000   9999     3670  0     0    
2019/07/16  23:44:00  BASE  4.82748  347  5.59776  344  0.4   100   0.4   0     0     976.6    NA       0.0000   9999     3670  0     0    
2019/07/16  23:45:00  BASE  4.60992  347  5.59776  344  0.5   100   0.5   0     0     976.6    NA       0.0000   9999     3710  0     0    
2019/07/16  23:46:01  BASE  4.26888  348  5.59776  344  0.5   100   0.5   0     0     976.6    NA       0.0000   9999     4760  0     0    
2019/07/16  23:47:00  BASE  3.90432  347  5.59776  344  0.5   100   0.5   0     0     976.6    NA       0.0000   9999     4720  0     0    
2019/07/16  23:48:00  BASE  3.675    345  5.59776  344  0.5   100   0.5   0     0     976.6    NA       0.0000   9999     4560  0     0    
2019/07/16  23:49:00  BASE  3.5868   344  5.59776  344  0.5   100   0.5   0     0     976.6    NA       0.0000   9999     4660  0     0    
2019/07/16  23:50:00  BASE  3.43392  342  5.59776  344  0.5   100   0.5   0     0     976.6    NA       0.0000   9999     4950  0     0    
2019/07/16  23:51:00  BASE  3.01056  344  5.59776  344  0.5   100   0.5   0     0     976.6    NA       0.0000   9999     6760  0     0    
2019/07/16  23:52:00  BASE  2.6166   347  5.2332   350  0.4   100   0.4   0     0     976.6    NA       0.0000   9999     4400  0     0    
2019/07/16  23:53:00  BASE  3.22224  345  4.93332  349  0.4   100   0.4   0     0     976.7    NA       0.0000   9999     3740  0     0    
2019/07/16  23:54:00  BASE  4.3512   348  5.44488  351  0.4   100   0.4   0     0     976.7    NA       0.0000   9999     3740  0     0    
2019/07/16  23:55:00  BASE  4.8804   357  5.44488  351  0.5   100   0.5   0     0     976.7    NA       0.0000   9999     3900  0     0    
2019/07/16  23:56:00  BASE  4.74516  359  5.44488  351  0.5   100   0.5   0     0     976.7    NA       0.0000   9999     3840  0     0    
2019/07/16  23:57:00  BASE  4.32768  359  5.44488  351  0.6   100   0.6   0     0     976.7    NA       0.0000   9999     3740  0     0    
2019/07/16  23:58:00  BASE  4.30416  359  5.44488  351  0.6   100   0.6   0     0     976.7    NA       0.0000   9999     0     0     0    
2019/07/16  23:59:00  BASE  4.3218   357  5.44488  351  0.6   100   0.6   0     0     976.7    NA       0.0000   9999     5910  0     0